<?xml version="1.0" encoding="UTF-8" standalone="no" ?>
<gpx xmlns="http://www.topografix.com/GPX/1/1" xmlns:xsi="http://www.w3.org/2001/XMLSchema-instance" xsi:schemaLocation="http://www.topografix.com/GPX/1/1 http://www.topografix.com/GPX/1/1/gpx.xsd" version="1.1" creator="VisuGPX - https://www.visugpx.com">
  <metadata>
    <name>VTT - Courmes</name>
    <desc><![CDATA[VTT - Courmes
Relevé terrain: 32 km / Den   1 320 m
CR 1001 ici <>]]></desc>
  </metadata>
  <trk>
    <name><![CDATA[2014-03-21T12:26:35Z]]></name>
    <trkseg>
      <trkpt lat="43.74343" lon="7.00885">
        <ele>648.799</ele>
        <time>2014-03-21T12:26:41Z</time>
      </trkpt>
      <trkpt lat="43.74344" lon="7.00885">
        <ele>646.23</ele>
        <time>2014-03-21T12:26:46Z</time>
      </trkpt>
      <trkpt lat="43.74345" lon="7.00895">
        <ele>642.788</ele>
        <time>2014-03-21T12:26:51Z</time>
      </trkpt>
      <trkpt lat="43.74351" lon="7.00906">
        <ele>641.563</ele>
        <time>2014-03-21T12:26:55Z</time>
      </trkpt>
      <trkpt lat="43.74376" lon="7.00913">
        <ele>640.073</ele>
        <time>2014-03-21T12:27:02Z</time>
      </trkpt>
      <trkpt lat="43.74388" lon="7.00917">
        <ele>637.537</ele>
        <time>2014-03-21T12:27:06Z</time>
      </trkpt>
      <trkpt lat="43.74391" lon="7.00931">
        <ele>638.04</ele>
        <time>2014-03-21T12:27:12Z</time>
      </trkpt>
      <trkpt lat="43.74392" lon="7.00938">
        <ele>636.612</ele>
        <time>2014-03-21T12:27:17Z</time>
      </trkpt>
      <trkpt lat="43.74392" lon="7.00941">
        <ele>636.705</ele>
        <time>2014-03-21T12:27:23Z</time>
      </trkpt>
      <trkpt lat="43.74391" lon="7.00942">
        <ele>636.854</ele>
        <time>2014-03-21T12:27:25Z</time>
      </trkpt>
      <trkpt lat="43.74386" lon="7.00949">
        <ele>638.101</ele>
        <time>2014-03-21T12:27:30Z</time>
      </trkpt>
      <trkpt lat="43.74378" lon="7.00956">
        <ele>639.487</ele>
        <time>2014-03-21T12:27:36Z</time>
      </trkpt>
      <trkpt lat="43.74371" lon="7.00967">
        <ele>641.205</ele>
        <time>2014-03-21T12:27:43Z</time>
      </trkpt>
      <trkpt lat="43.74366" lon="7.00973">
        <ele>643.566</ele>
        <time>2014-03-21T12:27:47Z</time>
      </trkpt>
      <trkpt lat="43.74361" lon="7.00984">
        <ele>646.625</ele>
        <time>2014-03-21T12:27:55Z</time>
      </trkpt>
      <trkpt lat="43.74355" lon="7.00993">
        <ele>646.672</ele>
        <time>2014-03-21T12:28:02Z</time>
      </trkpt>
      <trkpt lat="43.74349" lon="7.01">
        <ele>648.504</ele>
        <time>2014-03-21T12:28:08Z</time>
      </trkpt>
      <trkpt lat="43.74341" lon="7.01008">
        <ele>650.858</ele>
        <time>2014-03-21T12:28:16Z</time>
      </trkpt>
      <trkpt lat="43.74333" lon="7.01016">
        <ele>654.972</ele>
        <time>2014-03-21T12:28:25Z</time>
      </trkpt>
      <trkpt lat="43.74331" lon="7.0102">
        <ele>656.196</ele>
        <time>2014-03-21T12:28:29Z</time>
      </trkpt>
      <trkpt lat="43.74326" lon="7.01026">
        <ele>658.756</ele>
        <time>2014-03-21T12:28:36Z</time>
      </trkpt>
      <trkpt lat="43.74322" lon="7.01036">
        <ele>659.43</ele>
        <time>2014-03-21T12:28:42Z</time>
      </trkpt>
      <trkpt lat="43.7432" lon="7.0104">
        <ele>660.504</ele>
        <time>2014-03-21T12:28:45Z</time>
      </trkpt>
      <trkpt lat="43.74311" lon="7.01046">
        <ele>663.687</ele>
        <time>2014-03-21T12:28:54Z</time>
      </trkpt>
      <trkpt lat="43.74305" lon="7.01052">
        <ele>666.493</ele>
        <time>2014-03-21T12:29:01Z</time>
      </trkpt>
      <trkpt lat="43.74301" lon="7.01059">
        <ele>667.367</ele>
        <time>2014-03-21T12:29:06Z</time>
      </trkpt>
      <trkpt lat="43.74299" lon="7.01062">
        <ele>667.444</ele>
        <time>2014-03-21T12:29:09Z</time>
      </trkpt>
      <trkpt lat="43.74296" lon="7.01069">
        <ele>667.585</ele>
        <time>2014-03-21T12:29:14Z</time>
      </trkpt>
      <trkpt lat="43.74289" lon="7.01079">
        <ele>669.686</ele>
        <time>2014-03-21T12:29:22Z</time>
      </trkpt>
      <trkpt lat="43.74282" lon="7.01092">
        <ele>670.499</ele>
        <time>2014-03-21T12:29:31Z</time>
      </trkpt>
      <trkpt lat="43.74277" lon="7.01102">
        <ele>669.231</ele>
        <time>2014-03-21T12:29:38Z</time>
      </trkpt>
      <trkpt lat="43.7427" lon="7.01112">
        <ele>668.552</ele>
        <time>2014-03-21T12:29:45Z</time>
      </trkpt>
      <trkpt lat="43.7426" lon="7.01119">
        <ele>671.03</ele>
        <time>2014-03-21T12:29:55Z</time>
      </trkpt>
      <trkpt lat="43.74249" lon="7.01125">
        <ele>672.852</ele>
        <time>2014-03-21T12:30:04Z</time>
      </trkpt>
      <trkpt lat="43.74235" lon="7.01135">
        <ele>674.155</ele>
        <time>2014-03-21T12:30:15Z</time>
      </trkpt>
      <trkpt lat="43.74223" lon="7.01141">
        <ele>675.467</ele>
        <time>2014-03-21T12:30:25Z</time>
      </trkpt>
      <trkpt lat="43.74212" lon="7.01147">
        <ele>677.376</ele>
        <time>2014-03-21T12:30:34Z</time>
      </trkpt>
      <trkpt lat="43.74202" lon="7.01153">
        <ele>679.46</ele>
        <time>2014-03-21T12:30:44Z</time>
      </trkpt>
      <trkpt lat="43.74193" lon="7.01159">
        <ele>683.081</ele>
        <time>2014-03-21T12:30:52Z</time>
      </trkpt>
      <trkpt lat="43.74183" lon="7.01167">
        <ele>684.207</ele>
        <time>2014-03-21T12:31:01Z</time>
      </trkpt>
      <trkpt lat="43.74175" lon="7.01174">
        <ele>686.319</ele>
        <time>2014-03-21T12:31:09Z</time>
      </trkpt>
      <trkpt lat="43.74168" lon="7.0118">
        <ele>689.911</ele>
        <time>2014-03-21T12:31:16Z</time>
      </trkpt>
      <trkpt lat="43.74164" lon="7.01185">
        <ele>691.785</ele>
        <time>2014-03-21T12:31:21Z</time>
      </trkpt>
      <trkpt lat="43.74159" lon="7.01193">
        <ele>693.372</ele>
        <time>2014-03-21T12:31:28Z</time>
      </trkpt>
      <trkpt lat="43.7415" lon="7.01201">
        <ele>695.782</ele>
        <time>2014-03-21T12:31:37Z</time>
      </trkpt>
      <trkpt lat="43.74143" lon="7.01201">
        <ele>697.196</ele>
        <time>2014-03-21T12:31:43Z</time>
      </trkpt>
      <trkpt lat="43.74135" lon="7.01192">
        <ele>700.995</ele>
        <time>2014-03-21T12:31:50Z</time>
      </trkpt>
      <trkpt lat="43.74131" lon="7.01182">
        <ele>703.056</ele>
        <time>2014-03-21T12:31:55Z</time>
      </trkpt>
      <trkpt lat="43.74126" lon="7.01174">
        <ele>705.553</ele>
        <time>2014-03-21T12:32:01Z</time>
      </trkpt>
      <trkpt lat="43.74125" lon="7.0117">
        <ele>705.959</ele>
        <time>2014-03-21T12:32:03Z</time>
      </trkpt>
      <trkpt lat="43.74119" lon="7.01168">
        <ele>706.489</ele>
        <time>2014-03-21T12:32:09Z</time>
      </trkpt>
      <trkpt lat="43.74117" lon="7.01176">
        <ele>706.925</ele>
        <time>2014-03-21T12:32:14Z</time>
      </trkpt>
      <trkpt lat="43.74117" lon="7.01186">
        <ele>707.735</ele>
        <time>2014-03-21T12:32:19Z</time>
      </trkpt>
      <trkpt lat="43.74119" lon="7.01202">
        <ele>706.932</ele>
        <time>2014-03-21T12:32:26Z</time>
      </trkpt>
      <trkpt lat="43.74119" lon="7.01213">
        <ele>707.449</ele>
        <time>2014-03-21T12:32:33Z</time>
      </trkpt>
      <trkpt lat="43.74123" lon="7.01227">
        <ele>708.662</ele>
        <time>2014-03-21T12:32:41Z</time>
      </trkpt>
      <trkpt lat="43.74131" lon="7.01236">
        <ele>708.003</ele>
        <time>2014-03-21T12:32:48Z</time>
      </trkpt>
      <trkpt lat="43.74141" lon="7.01244">
        <ele>709.52</ele>
        <time>2014-03-21T12:32:57Z</time>
      </trkpt>
      <trkpt lat="43.7415" lon="7.01252">
        <ele>709.87</ele>
        <time>2014-03-21T12:33:05Z</time>
      </trkpt>
      <trkpt lat="43.7416" lon="7.01264">
        <ele>708.821</ele>
        <time>2014-03-21T12:33:13Z</time>
      </trkpt>
      <trkpt lat="43.74165" lon="7.01269">
        <ele>709.218</ele>
        <time>2014-03-21T12:33:17Z</time>
      </trkpt>
      <trkpt lat="43.74175" lon="7.01277">
        <ele>710.071</ele>
        <time>2014-03-21T12:33:25Z</time>
      </trkpt>
      <trkpt lat="43.74177" lon="7.01284">
        <ele>711.978</ele>
        <time>2014-03-21T12:33:30Z</time>
      </trkpt>
      <trkpt lat="43.7417" lon="7.01293">
        <ele>713.569</ele>
        <time>2014-03-21T12:33:37Z</time>
      </trkpt>
      <trkpt lat="43.74159" lon="7.01297">
        <ele>713.385</ele>
        <time>2014-03-21T12:33:46Z</time>
      </trkpt>
      <trkpt lat="43.74148" lon="7.01301">
        <ele>714.572</ele>
        <time>2014-03-21T12:33:54Z</time>
      </trkpt>
      <trkpt lat="43.74139" lon="7.01305">
        <ele>715.469</ele>
        <time>2014-03-21T12:34:01Z</time>
      </trkpt>
      <trkpt lat="43.74132" lon="7.01308">
        <ele>717.215</ele>
        <time>2014-03-21T12:34:07Z</time>
      </trkpt>
      <trkpt lat="43.74125" lon="7.01308">
        <ele>719.43</ele>
        <time>2014-03-21T12:34:13Z</time>
      </trkpt>
      <trkpt lat="43.74115" lon="7.013">
        <ele>720.554</ele>
        <time>2014-03-21T12:34:19Z</time>
      </trkpt>
      <trkpt lat="43.74102" lon="7.01288">
        <ele>719.447</ele>
        <time>2014-03-21T12:34:25Z</time>
      </trkpt>
      <trkpt lat="43.74088" lon="7.01277">
        <ele>718.947</ele>
        <time>2014-03-21T12:34:31Z</time>
      </trkpt>
      <trkpt lat="43.7407" lon="7.01265">
        <ele>719.603</ele>
        <time>2014-03-21T12:34:38Z</time>
      </trkpt>
      <trkpt lat="43.74057" lon="7.01256">
        <ele>721.01</ele>
        <time>2014-03-21T12:34:45Z</time>
      </trkpt>
      <trkpt lat="43.74044" lon="7.01252">
        <ele>721.99</ele>
        <time>2014-03-21T12:34:51Z</time>
      </trkpt>
      <trkpt lat="43.7403" lon="7.01255">
        <ele>721.908</ele>
        <time>2014-03-21T12:34:57Z</time>
      </trkpt>
      <trkpt lat="43.74013" lon="7.01268">
        <ele>721.692</ele>
        <time>2014-03-21T12:35:06Z</time>
      </trkpt>
      <trkpt lat="43.73997" lon="7.01279">
        <ele>721.519</ele>
        <time>2014-03-21T12:35:14Z</time>
      </trkpt>
      <trkpt lat="43.73986" lon="7.01287">
        <ele>722.371</ele>
        <time>2014-03-21T12:35:20Z</time>
      </trkpt>
      <trkpt lat="43.73973" lon="7.01284">
        <ele>725.003</ele>
        <time>2014-03-21T12:35:27Z</time>
      </trkpt>
      <trkpt lat="43.73965" lon="7.01283">
        <ele>727.74</ele>
        <time>2014-03-21T12:35:33Z</time>
      </trkpt>
      <trkpt lat="43.73959" lon="7.01287">
        <ele>728.324</ele>
        <time>2014-03-21T12:35:39Z</time>
      </trkpt>
      <trkpt lat="43.73952" lon="7.01295">
        <ele>728.905</ele>
        <time>2014-03-21T12:35:46Z</time>
      </trkpt>
      <trkpt lat="43.73951" lon="7.01296">
        <ele>728.853</ele>
        <time>2014-03-21T12:35:47Z</time>
      </trkpt>
      <trkpt lat="43.73944" lon="7.01299">
        <ele>730.687</ele>
        <time>2014-03-21T12:35:53Z</time>
      </trkpt>
      <trkpt lat="43.73941" lon="7.01299">
        <ele>731.844</ele>
        <time>2014-03-21T12:35:55Z</time>
      </trkpt>
      <trkpt lat="43.73929" lon="7.01302">
        <ele>733.565</ele>
        <time>2014-03-21T12:36:03Z</time>
      </trkpt>
      <trkpt lat="43.73922" lon="7.01303">
        <ele>735.139</ele>
        <time>2014-03-21T12:36:08Z</time>
      </trkpt>
      <trkpt lat="43.73916" lon="7.01304">
        <ele>737.003</ele>
        <time>2014-03-21T12:36:13Z</time>
      </trkpt>
      <trkpt lat="43.73904" lon="7.01307">
        <ele>739.274</ele>
        <time>2014-03-21T12:36:22Z</time>
      </trkpt>
      <trkpt lat="43.73894" lon="7.01308">
        <ele>742.365</ele>
        <time>2014-03-21T12:36:30Z</time>
      </trkpt>
      <trkpt lat="43.73885" lon="7.01307">
        <ele>741.472</ele>
        <time>2014-03-21T12:36:34Z</time>
      </trkpt>
      <trkpt lat="43.73872" lon="7.01305">
        <ele>743.638</ele>
        <time>2014-03-21T12:36:41Z</time>
      </trkpt>
      <trkpt lat="43.73864" lon="7.01301">
        <ele>745.929</ele>
        <time>2014-03-21T12:36:46Z</time>
      </trkpt>
      <trkpt lat="43.73853" lon="7.01299">
        <ele>746.657</ele>
        <time>2014-03-21T12:36:52Z</time>
      </trkpt>
      <trkpt lat="43.73844" lon="7.01302">
        <ele>745.748</ele>
        <time>2014-03-21T12:36:55Z</time>
      </trkpt>
      <trkpt lat="43.73827" lon="7.01318">
        <ele>743.673</ele>
        <time>2014-03-21T12:37:00Z</time>
      </trkpt>
      <trkpt lat="43.73822" lon="7.01327">
        <ele>742.836</ele>
        <time>2014-03-21T12:37:02Z</time>
      </trkpt>
      <trkpt lat="43.7381" lon="7.01349">
        <ele>742.519</ele>
        <time>2014-03-21T12:37:07Z</time>
      </trkpt>
      <trkpt lat="43.73808" lon="7.0136">
        <ele>744.503</ele>
        <time>2014-03-21T12:37:11Z</time>
      </trkpt>
      <trkpt lat="43.73805" lon="7.01366">
        <ele>746.07</ele>
        <time>2014-03-21T12:37:14Z</time>
      </trkpt>
      <trkpt lat="43.73802" lon="7.0137">
        <ele>747.168</ele>
        <time>2014-03-21T12:37:20Z</time>
      </trkpt>
      <trkpt lat="43.738" lon="7.01374">
        <ele>749.307</ele>
        <time>2014-03-21T12:37:26Z</time>
      </trkpt>
      <trkpt lat="43.73799" lon="7.01375">
        <ele>754.17</ele>
        <time>2014-03-21T12:37:33Z</time>
      </trkpt>
      <trkpt lat="43.73793" lon="7.01375">
        <ele>759.911</ele>
        <time>2014-03-21T12:37:40Z</time>
      </trkpt>
      <trkpt lat="43.73788" lon="7.01372">
        <ele>761.326</ele>
        <time>2014-03-21T12:37:47Z</time>
      </trkpt>
      <trkpt lat="43.73779" lon="7.01372">
        <ele>760.156</ele>
        <time>2014-03-21T12:37:55Z</time>
      </trkpt>
      <trkpt lat="43.73774" lon="7.01373">
        <ele>760.81</ele>
        <time>2014-03-21T12:38:00Z</time>
      </trkpt>
      <trkpt lat="43.73769" lon="7.01374">
        <ele>760.515</ele>
        <time>2014-03-21T12:38:07Z</time>
      </trkpt>
      <trkpt lat="43.73763" lon="7.01374">
        <ele>761.241</ele>
        <time>2014-03-21T12:38:13Z</time>
      </trkpt>
      <trkpt lat="43.73756" lon="7.01375">
        <ele>762.204</ele>
        <time>2014-03-21T12:38:19Z</time>
      </trkpt>
      <trkpt lat="43.73749" lon="7.01381">
        <ele>763.7</ele>
        <time>2014-03-21T12:38:27Z</time>
      </trkpt>
      <trkpt lat="43.73742" lon="7.01384">
        <ele>764.37</ele>
        <time>2014-03-21T12:38:34Z</time>
      </trkpt>
      <trkpt lat="43.73741" lon="7.01384">
        <ele>763.698</ele>
        <time>2014-03-21T12:38:40Z</time>
      </trkpt>
      <trkpt lat="43.73733" lon="7.01383">
        <ele>764.003</ele>
        <time>2014-03-21T12:38:46Z</time>
      </trkpt>
      <trkpt lat="43.73724" lon="7.01385">
        <ele>761.966</ele>
        <time>2014-03-21T12:38:53Z</time>
      </trkpt>
      <trkpt lat="43.73717" lon="7.01387">
        <ele>762.419</ele>
        <time>2014-03-21T12:38:59Z</time>
      </trkpt>
      <trkpt lat="43.7371" lon="7.01395">
        <ele>768.015</ele>
        <time>2014-03-21T12:39:08Z</time>
      </trkpt>
      <trkpt lat="43.7371" lon="7.01397">
        <ele>769.287</ele>
        <time>2014-03-21T12:39:15Z</time>
      </trkpt>
      <trkpt lat="43.73712" lon="7.014">
        <ele>768.314</ele>
        <time>2014-03-21T12:39:19Z</time>
      </trkpt>
      <trkpt lat="43.7371" lon="7.01405">
        <ele>767.994</ele>
        <time>2014-03-21T12:39:22Z</time>
      </trkpt>
      <trkpt lat="43.73709" lon="7.01412">
        <ele>769.496</ele>
        <time>2014-03-21T12:39:26Z</time>
      </trkpt>
      <trkpt lat="43.73705" lon="7.01421">
        <ele>773.31</ele>
        <time>2014-03-21T12:39:34Z</time>
      </trkpt>
      <trkpt lat="43.73705" lon="7.01423">
        <ele>773.358</ele>
        <time>2014-03-21T12:39:35Z</time>
      </trkpt>
      <trkpt lat="43.73705" lon="7.0143">
        <ele>773.427</ele>
        <time>2014-03-21T12:39:41Z</time>
      </trkpt>
      <trkpt lat="43.73702" lon="7.01438">
        <ele>787.017</ele>
        <time>2014-03-21T12:40:36Z</time>
      </trkpt>
      <trkpt lat="43.73697" lon="7.01445">
        <ele>786.689</ele>
        <time>2014-03-21T12:40:43Z</time>
      </trkpt>
      <trkpt lat="43.73692" lon="7.0145">
        <ele>789.372</ele>
        <time>2014-03-21T12:40:48Z</time>
      </trkpt>
      <trkpt lat="43.7369" lon="7.01454">
        <ele>789.526</ele>
        <time>2014-03-21T12:40:52Z</time>
      </trkpt>
      <trkpt lat="43.73687" lon="7.01458">
        <ele>789.813</ele>
        <time>2014-03-21T12:40:56Z</time>
      </trkpt>
      <trkpt lat="43.7368" lon="7.01462">
        <ele>789.95</ele>
        <time>2014-03-21T12:41:02Z</time>
      </trkpt>
      <trkpt lat="43.73674" lon="7.01464">
        <ele>788.892</ele>
        <time>2014-03-21T12:41:06Z</time>
      </trkpt>
      <trkpt lat="43.73661" lon="7.0147">
        <ele>788.142</ele>
        <time>2014-03-21T12:41:14Z</time>
      </trkpt>
      <trkpt lat="43.73648" lon="7.01471">
        <ele>785.531</ele>
        <time>2014-03-21T12:41:20Z</time>
      </trkpt>
      <trkpt lat="43.73646" lon="7.0147">
        <ele>785.394</ele>
        <time>2014-03-21T12:41:21Z</time>
      </trkpt>
      <trkpt lat="43.7364" lon="7.01461">
        <ele>784.11</ele>
        <time>2014-03-21T12:41:27Z</time>
      </trkpt>
      <trkpt lat="43.73631" lon="7.01456">
        <ele>785.44</ele>
        <time>2014-03-21T12:41:35Z</time>
      </trkpt>
      <trkpt lat="43.73622" lon="7.01454">
        <ele>788.246</ele>
        <time>2014-03-21T12:41:41Z</time>
      </trkpt>
      <trkpt lat="43.73612" lon="7.01454">
        <ele>788.796</ele>
        <time>2014-03-21T12:41:46Z</time>
      </trkpt>
      <trkpt lat="43.73603" lon="7.01457">
        <ele>788.698</ele>
        <time>2014-03-21T12:41:51Z</time>
      </trkpt>
      <trkpt lat="43.73596" lon="7.01464">
        <ele>790.526</ele>
        <time>2014-03-21T12:41:57Z</time>
      </trkpt>
      <trkpt lat="43.73589" lon="7.01468">
        <ele>792.452</ele>
        <time>2014-03-21T12:42:04Z</time>
      </trkpt>
      <trkpt lat="43.73578" lon="7.01465">
        <ele>792.88</ele>
        <time>2014-03-21T12:42:10Z</time>
      </trkpt>
      <trkpt lat="43.73566" lon="7.01458">
        <ele>792.5</ele>
        <time>2014-03-21T12:42:16Z</time>
      </trkpt>
      <trkpt lat="43.73553" lon="7.01457">
        <ele>791.836</ele>
        <time>2014-03-21T12:42:22Z</time>
      </trkpt>
      <trkpt lat="43.73544" lon="7.01459">
        <ele>792.134</ele>
        <time>2014-03-21T12:42:28Z</time>
      </trkpt>
      <trkpt lat="43.73538" lon="7.01464">
        <ele>794.53</ele>
        <time>2014-03-21T12:42:34Z</time>
      </trkpt>
      <trkpt lat="43.73534" lon="7.01466">
        <ele>798.018</ele>
        <time>2014-03-21T12:42:37Z</time>
      </trkpt>
      <trkpt lat="43.73526" lon="7.01472">
        <ele>800.426</ele>
        <time>2014-03-21T12:42:43Z</time>
      </trkpt>
      <trkpt lat="43.73515" lon="7.01478">
        <ele>802.19</ele>
        <time>2014-03-21T12:42:51Z</time>
      </trkpt>
      <trkpt lat="43.73505" lon="7.01482">
        <ele>803.384</ele>
        <time>2014-03-21T12:42:58Z</time>
      </trkpt>
      <trkpt lat="43.73496" lon="7.01479">
        <ele>805.646</ele>
        <time>2014-03-21T12:43:04Z</time>
      </trkpt>
      <trkpt lat="43.73481" lon="7.01469">
        <ele>805.263</ele>
        <time>2014-03-21T12:43:11Z</time>
      </trkpt>
      <trkpt lat="43.73472" lon="7.01462">
        <ele>807.022</ele>
        <time>2014-03-21T12:43:16Z</time>
      </trkpt>
      <trkpt lat="43.73464" lon="7.01458">
        <ele>809.48</ele>
        <time>2014-03-21T12:43:23Z</time>
      </trkpt>
      <trkpt lat="43.73455" lon="7.01453">
        <ele>812.177</ele>
        <time>2014-03-21T12:43:29Z</time>
      </trkpt>
      <trkpt lat="43.73453" lon="7.01445">
        <ele>811.853</ele>
        <time>2014-03-21T12:43:33Z</time>
      </trkpt>
      <trkpt lat="43.73455" lon="7.01432">
        <ele>808.395</ele>
        <time>2014-03-21T12:43:40Z</time>
      </trkpt>
      <trkpt lat="43.73455" lon="7.01421">
        <ele>808.993</ele>
        <time>2014-03-21T12:43:45Z</time>
      </trkpt>
      <trkpt lat="43.73459" lon="7.01398">
        <ele>804.333</ele>
        <time>2014-03-21T12:43:51Z</time>
      </trkpt>
      <trkpt lat="43.73462" lon="7.01385">
        <ele>804.109</ele>
        <time>2014-03-21T12:43:56Z</time>
      </trkpt>
      <trkpt lat="43.73469" lon="7.01366">
        <ele>802.607</ele>
        <time>2014-03-21T12:44:02Z</time>
      </trkpt>
      <trkpt lat="43.73481" lon="7.01353">
        <ele>804.462</ele>
        <time>2014-03-21T12:44:08Z</time>
      </trkpt>
      <trkpt lat="43.73493" lon="7.01342">
        <ele>805.307</ele>
        <time>2014-03-21T12:44:14Z</time>
      </trkpt>
      <trkpt lat="43.7351" lon="7.01331">
        <ele>802.527</ele>
        <time>2014-03-21T12:44:20Z</time>
      </trkpt>
      <trkpt lat="43.73524" lon="7.01314">
        <ele>800.163</ele>
        <time>2014-03-21T12:44:24Z</time>
      </trkpt>
      <trkpt lat="43.73523" lon="7.01297">
        <ele>800.315</ele>
        <time>2014-03-21T12:44:27Z</time>
      </trkpt>
      <trkpt lat="43.73516" lon="7.01287">
        <ele>804.276</ele>
        <time>2014-03-21T12:44:32Z</time>
      </trkpt>
      <trkpt lat="43.73509" lon="7.01282">
        <ele>808.479</ele>
        <time>2014-03-21T12:44:37Z</time>
      </trkpt>
      <trkpt lat="43.73503" lon="7.01279">
        <ele>807.386</ele>
        <time>2014-03-21T12:44:41Z</time>
      </trkpt>
      <trkpt lat="43.73491" lon="7.01268">
        <ele>813.128</ele>
        <time>2014-03-21T12:44:48Z</time>
      </trkpt>
      <trkpt lat="43.73483" lon="7.01257">
        <ele>819.848</ele>
        <time>2014-03-21T12:44:54Z</time>
      </trkpt>
      <trkpt lat="43.73472" lon="7.01239">
        <ele>825.229</ele>
        <time>2014-03-21T12:45:00Z</time>
      </trkpt>
      <trkpt lat="43.7347" lon="7.01234">
        <ele>826.644</ele>
        <time>2014-03-21T12:45:02Z</time>
      </trkpt>
      <trkpt lat="43.73463" lon="7.0122">
        <ele>832.104</ele>
        <time>2014-03-21T12:45:09Z</time>
      </trkpt>
      <trkpt lat="43.73454" lon="7.01204">
        <ele>838.844</ele>
        <time>2014-03-21T12:45:17Z</time>
      </trkpt>
      <trkpt lat="43.73446" lon="7.01192">
        <ele>839.581</ele>
        <time>2014-03-21T12:45:25Z</time>
      </trkpt>
      <trkpt lat="43.73443" lon="7.01179">
        <ele>836.943</ele>
        <time>2014-03-21T12:45:31Z</time>
      </trkpt>
      <trkpt lat="43.73434" lon="7.01165">
        <ele>832.21</ele>
        <time>2014-03-21T12:45:37Z</time>
      </trkpt>
      <trkpt lat="43.73428" lon="7.0115">
        <ele>829.948</ele>
        <time>2014-03-21T12:45:41Z</time>
      </trkpt>
      <trkpt lat="43.73425" lon="7.01138">
        <ele>829.53</ele>
        <time>2014-03-21T12:45:45Z</time>
      </trkpt>
      <trkpt lat="43.73413" lon="7.01136">
        <ele>823.145</ele>
        <time>2014-03-21T12:45:52Z</time>
      </trkpt>
      <trkpt lat="43.73404" lon="7.01135">
        <ele>820.833</ele>
        <time>2014-03-21T12:45:57Z</time>
      </trkpt>
      <trkpt lat="43.73398" lon="7.01142">
        <ele>821.949</ele>
        <time>2014-03-21T12:46:02Z</time>
      </trkpt>
      <trkpt lat="43.73394" lon="7.01154">
        <ele>824.78</ele>
        <time>2014-03-21T12:46:08Z</time>
      </trkpt>
      <trkpt lat="43.73387" lon="7.01165">
        <ele>825.077</ele>
        <time>2014-03-21T12:46:13Z</time>
      </trkpt>
      <trkpt lat="43.73374" lon="7.01178">
        <ele>822.666</ele>
        <time>2014-03-21T12:46:20Z</time>
      </trkpt>
      <trkpt lat="43.73359" lon="7.01183">
        <ele>822.254</ele>
        <time>2014-03-21T12:46:28Z</time>
      </trkpt>
      <trkpt lat="43.73356" lon="7.01186">
        <ele>822.395</ele>
        <time>2014-03-21T12:46:30Z</time>
      </trkpt>
      <trkpt lat="43.73352" lon="7.01202">
        <ele>823.689</ele>
        <time>2014-03-21T12:46:36Z</time>
      </trkpt>
      <trkpt lat="43.73354" lon="7.01216">
        <ele>827.359</ele>
        <time>2014-03-21T12:46:42Z</time>
      </trkpt>
      <trkpt lat="43.73361" lon="7.0123">
        <ele>827.92</ele>
        <time>2014-03-21T12:46:48Z</time>
      </trkpt>
      <trkpt lat="43.73361" lon="7.01233">
        <ele>828.155</ele>
        <time>2014-03-21T12:46:49Z</time>
      </trkpt>
      <trkpt lat="43.73355" lon="7.01256">
        <ele>828.579</ele>
        <time>2014-03-21T12:46:56Z</time>
      </trkpt>
      <trkpt lat="43.73351" lon="7.01261">
        <ele>828.629</ele>
        <time>2014-03-21T12:46:58Z</time>
      </trkpt>
      <trkpt lat="43.73336" lon="7.01271">
        <ele>828.693</ele>
        <time>2014-03-21T12:47:06Z</time>
      </trkpt>
      <trkpt lat="43.73325" lon="7.01278">
        <ele>827.331</ele>
        <time>2014-03-21T12:47:12Z</time>
      </trkpt>
      <trkpt lat="43.73312" lon="7.01289">
        <ele>825.362</ele>
        <time>2014-03-21T12:47:19Z</time>
      </trkpt>
      <trkpt lat="43.733" lon="7.013">
        <ele>823.939</ele>
        <time>2014-03-21T12:47:26Z</time>
      </trkpt>
      <trkpt lat="43.73297" lon="7.01301">
        <ele>823.288</ele>
        <time>2014-03-21T12:47:27Z</time>
      </trkpt>
      <trkpt lat="43.73293" lon="7.01311">
        <ele>823.104</ele>
        <time>2014-03-21T12:47:31Z</time>
      </trkpt>
      <trkpt lat="43.73285" lon="7.01321">
        <ele>823.14</ele>
        <time>2014-03-21T12:47:35Z</time>
      </trkpt>
      <trkpt lat="43.7328" lon="7.0132">
        <ele>823.695</ele>
        <time>2014-03-21T12:47:37Z</time>
      </trkpt>
      <trkpt lat="43.73271" lon="7.01324">
        <ele>825.491</ele>
        <time>2014-03-21T12:47:43Z</time>
      </trkpt>
      <trkpt lat="43.73263" lon="7.01327">
        <ele>827.289</ele>
        <time>2014-03-21T12:47:49Z</time>
      </trkpt>
      <trkpt lat="43.73259" lon="7.01332">
        <ele>830.395</ele>
        <time>2014-03-21T12:47:53Z</time>
      </trkpt>
      <trkpt lat="43.73257" lon="7.01341">
        <ele>833.964</ele>
        <time>2014-03-21T12:47:58Z</time>
      </trkpt>
      <trkpt lat="43.73254" lon="7.01357">
        <ele>838.894</ele>
        <time>2014-03-21T12:48:05Z</time>
      </trkpt>
      <trkpt lat="43.73251" lon="7.01371">
        <ele>839.043</ele>
        <time>2014-03-21T12:48:11Z</time>
      </trkpt>
      <trkpt lat="43.73251" lon="7.01373">
        <ele>839.683</ele>
        <time>2014-03-21T12:48:12Z</time>
      </trkpt>
      <trkpt lat="43.7325" lon="7.01382">
        <ele>841.538</ele>
        <time>2014-03-21T12:48:16Z</time>
      </trkpt>
      <trkpt lat="43.73251" lon="7.01394">
        <ele>843.868</ele>
        <time>2014-03-21T12:48:23Z</time>
      </trkpt>
      <trkpt lat="43.73253" lon="7.01405">
        <ele>843.103</ele>
        <time>2014-03-21T12:48:30Z</time>
      </trkpt>
      <trkpt lat="43.73257" lon="7.01417">
        <ele>844.461</ele>
        <time>2014-03-21T12:48:36Z</time>
      </trkpt>
      <trkpt lat="43.73264" lon="7.01426">
        <ele>846.185</ele>
        <time>2014-03-21T12:48:41Z</time>
      </trkpt>
      <trkpt lat="43.73262" lon="7.0143">
        <ele>846.216</ele>
        <time>2014-03-21T12:48:45Z</time>
      </trkpt>
      <trkpt lat="43.73257" lon="7.01424">
        <ele>847.21</ele>
        <time>2014-03-21T12:48:48Z</time>
      </trkpt>
      <trkpt lat="43.73243" lon="7.01415">
        <ele>848.784</ele>
        <time>2014-03-21T12:48:54Z</time>
      </trkpt>
      <trkpt lat="43.73233" lon="7.01407">
        <ele>850.265</ele>
        <time>2014-03-21T12:49:00Z</time>
      </trkpt>
      <trkpt lat="43.73225" lon="7.01398">
        <ele>850.095</ele>
        <time>2014-03-21T12:49:06Z</time>
      </trkpt>
      <trkpt lat="43.73218" lon="7.01386">
        <ele>852.52</ele>
        <time>2014-03-21T12:49:13Z</time>
      </trkpt>
      <trkpt lat="43.73212" lon="7.01376">
        <ele>854.44</ele>
        <time>2014-03-21T12:49:20Z</time>
      </trkpt>
      <trkpt lat="43.73204" lon="7.01366">
        <ele>857.049</ele>
        <time>2014-03-21T12:49:27Z</time>
      </trkpt>
      <trkpt lat="43.73196" lon="7.01354">
        <ele>859.486</ele>
        <time>2014-03-21T12:49:35Z</time>
      </trkpt>
      <trkpt lat="43.7319" lon="7.01344">
        <ele>863.358</ele>
        <time>2014-03-21T12:49:42Z</time>
      </trkpt>
      <trkpt lat="43.73189" lon="7.01343">
        <ele>863.494</ele>
        <time>2014-03-21T12:49:43Z</time>
      </trkpt>
      <trkpt lat="43.73185" lon="7.01338">
        <ele>862.909</ele>
        <time>2014-03-21T12:49:47Z</time>
      </trkpt>
      <trkpt lat="43.73178" lon="7.01327">
        <ele>864.668</ele>
        <time>2014-03-21T12:49:56Z</time>
      </trkpt>
      <trkpt lat="43.73172" lon="7.01321">
        <ele>862.295</ele>
        <time>2014-03-21T12:50:03Z</time>
      </trkpt>
      <trkpt lat="43.73166" lon="7.01316">
        <ele>863.059</ele>
        <time>2014-03-21T12:50:08Z</time>
      </trkpt>
      <trkpt lat="43.73153" lon="7.01305">
        <ele>864.228</ele>
        <time>2014-03-21T12:50:17Z</time>
      </trkpt>
      <trkpt lat="43.73141" lon="7.01303">
        <ele>864.635</ele>
        <time>2014-03-21T12:50:25Z</time>
      </trkpt>
      <trkpt lat="43.73128" lon="7.01302">
        <ele>865.003</ele>
        <time>2014-03-21T12:50:32Z</time>
      </trkpt>
      <trkpt lat="43.7312" lon="7.01303">
        <ele>864.277</ele>
        <time>2014-03-21T12:50:37Z</time>
      </trkpt>
      <trkpt lat="43.73103" lon="7.01304">
        <ele>864.252</ele>
        <time>2014-03-21T12:50:44Z</time>
      </trkpt>
      <trkpt lat="43.73097" lon="7.01295">
        <ele>864.273</ele>
        <time>2014-03-21T12:50:49Z</time>
      </trkpt>
      <trkpt lat="43.73091" lon="7.01284">
        <ele>864.909</ele>
        <time>2014-03-21T12:50:53Z</time>
      </trkpt>
      <trkpt lat="43.73088" lon="7.01272">
        <ele>868.324</ele>
        <time>2014-03-21T12:50:57Z</time>
      </trkpt>
      <trkpt lat="43.73081" lon="7.01258">
        <ele>874.251</ele>
        <time>2014-03-21T12:51:02Z</time>
      </trkpt>
      <trkpt lat="43.73072" lon="7.01237">
        <ele>882.073</ele>
        <time>2014-03-21T12:51:08Z</time>
      </trkpt>
      <trkpt lat="43.73061" lon="7.01218">
        <ele>888.17</ele>
        <time>2014-03-21T12:51:13Z</time>
      </trkpt>
      <trkpt lat="43.73042" lon="7.012">
        <ele>894.383</ele>
        <time>2014-03-21T12:51:20Z</time>
      </trkpt>
      <trkpt lat="43.73024" lon="7.01191">
        <ele>895.09</ele>
        <time>2014-03-21T12:51:25Z</time>
      </trkpt>
      <trkpt lat="43.73017" lon="7.01188">
        <ele>890.516</ele>
        <time>2014-03-21T12:51:27Z</time>
      </trkpt>
      <trkpt lat="43.72998" lon="7.01168">
        <ele>892.584</ele>
        <time>2014-03-21T12:51:32Z</time>
      </trkpt>
      <trkpt lat="43.72996" lon="7.01153">
        <ele>888.335</ele>
        <time>2014-03-21T12:51:35Z</time>
      </trkpt>
      <trkpt lat="43.73004" lon="7.01146">
        <ele>881.466</ele>
        <time>2014-03-21T12:51:38Z</time>
      </trkpt>
      <trkpt lat="43.73006" lon="7.01145">
        <ele>880.578</ele>
        <time>2014-03-21T12:51:39Z</time>
      </trkpt>
      <trkpt lat="43.73017" lon="7.01132">
        <ele>873.81</ele>
        <time>2014-03-21T12:51:45Z</time>
      </trkpt>
      <trkpt lat="43.73021" lon="7.01129">
        <ele>874.34</ele>
        <time>2014-03-21T12:51:48Z</time>
      </trkpt>
      <trkpt lat="43.73026" lon="7.0112">
        <ele>872.821</ele>
        <time>2014-03-21T12:51:52Z</time>
      </trkpt>
      <trkpt lat="43.73033" lon="7.01106">
        <ele>869.552</ele>
        <time>2014-03-21T12:51:58Z</time>
      </trkpt>
      <trkpt lat="43.7303" lon="7.01091">
        <ele>870.039</ele>
        <time>2014-03-21T12:52:04Z</time>
      </trkpt>
      <trkpt lat="43.7303" lon="7.01089">
        <ele>870.192</ele>
        <time>2014-03-21T12:52:05Z</time>
      </trkpt>
      <trkpt lat="43.73023" lon="7.01071">
        <ele>871.885</ele>
        <time>2014-03-21T12:52:12Z</time>
      </trkpt>
      <trkpt lat="43.73016" lon="7.01055">
        <ele>872.391</ele>
        <time>2014-03-21T12:52:18Z</time>
      </trkpt>
      <trkpt lat="43.73013" lon="7.01044">
        <ele>873.322</ele>
        <time>2014-03-21T12:52:22Z</time>
      </trkpt>
      <trkpt lat="43.73008" lon="7.01024">
        <ele>875.535</ele>
        <time>2014-03-21T12:52:31Z</time>
      </trkpt>
      <trkpt lat="43.73005" lon="7.01011">
        <ele>878.483</ele>
        <time>2014-03-21T12:52:37Z</time>
      </trkpt>
      <trkpt lat="43.73005" lon="7.0101">
        <ele>878.924</ele>
        <time>2014-03-21T12:52:38Z</time>
      </trkpt>
      <trkpt lat="43.72999" lon="7.00996">
        <ele>880.917</ele>
        <time>2014-03-21T12:52:45Z</time>
      </trkpt>
      <trkpt lat="43.72995" lon="7.00983">
        <ele>881.655</ele>
        <time>2014-03-21T12:52:52Z</time>
      </trkpt>
      <trkpt lat="43.72987" lon="7.00974">
        <ele>883.379</ele>
        <time>2014-03-21T12:52:57Z</time>
      </trkpt>
      <trkpt lat="43.7298" lon="7.00963">
        <ele>884.34</ele>
        <time>2014-03-21T12:53:05Z</time>
      </trkpt>
      <trkpt lat="43.72973" lon="7.00955">
        <ele>887.602</ele>
        <time>2014-03-21T12:53:11Z</time>
      </trkpt>
      <trkpt lat="43.72971" lon="7.00955">
        <ele>888.987</ele>
        <time>2014-03-21T12:53:16Z</time>
      </trkpt>
      <trkpt lat="43.7297" lon="7.00956">
        <ele>889.37</ele>
        <time>2014-03-21T12:53:19Z</time>
      </trkpt>
      <trkpt lat="43.72967" lon="7.00953">
        <ele>889.75</ele>
        <time>2014-03-21T12:53:23Z</time>
      </trkpt>
      <trkpt lat="43.72964" lon="7.00955">
        <ele>888.865</ele>
        <time>2014-03-21T12:53:27Z</time>
      </trkpt>
      <trkpt lat="43.7296" lon="7.00958">
        <ele>889.11</ele>
        <time>2014-03-21T12:53:31Z</time>
      </trkpt>
      <trkpt lat="43.7295" lon="7.00978">
        <ele>887.93</ele>
        <time>2014-03-21T12:53:40Z</time>
      </trkpt>
      <trkpt lat="43.72942" lon="7.00993">
        <ele>888.195</ele>
        <time>2014-03-21T12:53:47Z</time>
      </trkpt>
      <trkpt lat="43.72932" lon="7.01009">
        <ele>888.096</ele>
        <time>2014-03-21T12:53:54Z</time>
      </trkpt>
      <trkpt lat="43.72921" lon="7.0103">
        <ele>888.493</ele>
        <time>2014-03-21T12:54:03Z</time>
      </trkpt>
      <trkpt lat="43.72912" lon="7.01049">
        <ele>892.317</ele>
        <time>2014-03-21T12:54:11Z</time>
      </trkpt>
      <trkpt lat="43.72909" lon="7.01062">
        <ele>895.025</ele>
        <time>2014-03-21T12:54:15Z</time>
      </trkpt>
      <trkpt lat="43.72903" lon="7.01079">
        <ele>898.631</ele>
        <time>2014-03-21T12:54:21Z</time>
      </trkpt>
      <trkpt lat="43.72898" lon="7.01099">
        <ele>901.7</ele>
        <time>2014-03-21T12:54:28Z</time>
      </trkpt>
      <trkpt lat="43.72893" lon="7.01114">
        <ele>903.339</ele>
        <time>2014-03-21T12:54:34Z</time>
      </trkpt>
      <trkpt lat="43.72878" lon="7.01138">
        <ele>907.742</ele>
        <time>2014-03-21T12:54:44Z</time>
      </trkpt>
      <trkpt lat="43.72866" lon="7.01152">
        <ele>909.857</ele>
        <time>2014-03-21T12:54:52Z</time>
      </trkpt>
      <trkpt lat="43.72855" lon="7.01165">
        <ele>904.726</ele>
        <time>2014-03-21T12:55:00Z</time>
      </trkpt>
      <trkpt lat="43.72847" lon="7.0118">
        <ele>907.171</ele>
        <time>2014-03-21T12:55:07Z</time>
      </trkpt>
      <trkpt lat="43.7284" lon="7.012">
        <ele>908.947</ele>
        <time>2014-03-21T12:55:15Z</time>
      </trkpt>
      <trkpt lat="43.72838" lon="7.01207">
        <ele>909.051</ele>
        <time>2014-03-21T12:55:18Z</time>
      </trkpt>
      <trkpt lat="43.72841" lon="7.01229">
        <ele>908.685</ele>
        <time>2014-03-21T12:55:27Z</time>
      </trkpt>
      <trkpt lat="43.72847" lon="7.01245">
        <ele>908.984</ele>
        <time>2014-03-21T12:55:34Z</time>
      </trkpt>
      <trkpt lat="43.72853" lon="7.01267">
        <ele>909.557</ele>
        <time>2014-03-21T12:55:44Z</time>
      </trkpt>
      <trkpt lat="43.72855" lon="7.01275">
        <ele>910.098</ele>
        <time>2014-03-21T12:55:47Z</time>
      </trkpt>
      <trkpt lat="43.72855" lon="7.01295">
        <ele>912.844</ele>
        <time>2014-03-21T12:55:55Z</time>
      </trkpt>
      <trkpt lat="43.72854" lon="7.01313">
        <ele>918.095</ele>
        <time>2014-03-21T12:56:03Z</time>
      </trkpt>
      <trkpt lat="43.72848" lon="7.01337">
        <ele>922.516</ele>
        <time>2014-03-21T12:56:13Z</time>
      </trkpt>
      <trkpt lat="43.72847" lon="7.01352">
        <ele>927.421</ele>
        <time>2014-03-21T12:56:20Z</time>
      </trkpt>
      <trkpt lat="43.72846" lon="7.01363">
        <ele>933.077</ele>
        <time>2014-03-21T12:56:27Z</time>
      </trkpt>
      <trkpt lat="43.72847" lon="7.01369">
        <ele>933.399</ele>
        <time>2014-03-21T12:56:30Z</time>
      </trkpt>
      <trkpt lat="43.72845" lon="7.01383">
        <ele>935.446</ele>
        <time>2014-03-21T12:56:35Z</time>
      </trkpt>
      <trkpt lat="43.72838" lon="7.01387">
        <ele>930.079</ele>
        <time>2014-03-21T12:56:41Z</time>
      </trkpt>
      <trkpt lat="43.72836" lon="7.01384">
        <ele>928.713</ele>
        <time>2014-03-21T12:56:43Z</time>
      </trkpt>
      <trkpt lat="43.72832" lon="7.01374">
        <ele>925.67</ele>
        <time>2014-03-21T12:56:48Z</time>
      </trkpt>
      <trkpt lat="43.72829" lon="7.01365">
        <ele>922.937</ele>
        <time>2014-03-21T12:56:54Z</time>
      </trkpt>
      <trkpt lat="43.72828" lon="7.01364">
        <ele>922.561</ele>
        <time>2014-03-21T12:56:55Z</time>
      </trkpt>
      <trkpt lat="43.72822" lon="7.01359">
        <ele>921.913</ele>
        <time>2014-03-21T12:57:00Z</time>
      </trkpt>
      <trkpt lat="43.72811" lon="7.01357">
        <ele>921.893</ele>
        <time>2014-03-21T12:57:07Z</time>
      </trkpt>
      <trkpt lat="43.72801" lon="7.01349">
        <ele>924.092</ele>
        <time>2014-03-21T12:57:16Z</time>
      </trkpt>
      <trkpt lat="43.72793" lon="7.01343">
        <ele>925.908</ele>
        <time>2014-03-21T12:57:23Z</time>
      </trkpt>
      <trkpt lat="43.72783" lon="7.01334">
        <ele>930.84</ele>
        <time>2014-03-21T12:57:32Z</time>
      </trkpt>
      <trkpt lat="43.72776" lon="7.01326">
        <ele>934.164</ele>
        <time>2014-03-21T12:57:39Z</time>
      </trkpt>
      <trkpt lat="43.72766" lon="7.01312">
        <ele>939.622</ele>
        <time>2014-03-21T12:57:49Z</time>
      </trkpt>
      <trkpt lat="43.72761" lon="7.013">
        <ele>939.374</ele>
        <time>2014-03-21T12:57:57Z</time>
      </trkpt>
      <trkpt lat="43.72755" lon="7.01287">
        <ele>942.773</ele>
        <time>2014-03-21T12:58:06Z</time>
      </trkpt>
      <trkpt lat="43.72748" lon="7.01272">
        <ele>940.581</ele>
        <time>2014-03-21T12:58:15Z</time>
      </trkpt>
      <trkpt lat="43.72741" lon="7.01261">
        <ele>944.059</ele>
        <time>2014-03-21T12:58:23Z</time>
      </trkpt>
      <trkpt lat="43.72734" lon="7.01253">
        <ele>943.753</ele>
        <time>2014-03-21T12:58:30Z</time>
      </trkpt>
      <trkpt lat="43.72721" lon="7.0124">
        <ele>945.569</ele>
        <time>2014-03-21T12:58:41Z</time>
      </trkpt>
      <trkpt lat="43.72714" lon="7.01229">
        <ele>947.208</ele>
        <time>2014-03-21T12:58:49Z</time>
      </trkpt>
      <trkpt lat="43.72705" lon="7.01216">
        <ele>947.118</ele>
        <time>2014-03-21T12:58:58Z</time>
      </trkpt>
      <trkpt lat="43.72698" lon="7.01206">
        <ele>947.659</ele>
        <time>2014-03-21T12:59:04Z</time>
      </trkpt>
      <trkpt lat="43.7268" lon="7.012">
        <ele>945.626</ele>
        <time>2014-03-21T12:59:13Z</time>
      </trkpt>
      <trkpt lat="43.72671" lon="7.01199">
        <ele>943.862</ele>
        <time>2014-03-21T12:59:17Z</time>
      </trkpt>
      <trkpt lat="43.72666" lon="7.01199">
        <ele>942.152</ele>
        <time>2014-03-21T12:59:22Z</time>
      </trkpt>
      <trkpt lat="43.72667" lon="7.012">
        <ele>941.272</ele>
        <time>2014-03-21T12:59:28Z</time>
      </trkpt>
      <trkpt lat="43.72655" lon="7.01201">
        <ele>940.471</ele>
        <time>2014-03-21T12:59:35Z</time>
      </trkpt>
      <trkpt lat="43.7264" lon="7.01208">
        <ele>939.551</ele>
        <time>2014-03-21T12:59:41Z</time>
      </trkpt>
      <trkpt lat="43.72618" lon="7.01223">
        <ele>938.087</ele>
        <time>2014-03-21T12:59:47Z</time>
      </trkpt>
      <trkpt lat="43.72587" lon="7.01237">
        <ele>935.447</ele>
        <time>2014-03-21T12:59:54Z</time>
      </trkpt>
      <trkpt lat="43.72582" lon="7.01239">
        <ele>934.986</ele>
        <time>2014-03-21T12:59:55Z</time>
      </trkpt>
      <trkpt lat="43.72552" lon="7.01265">
        <ele>932.534</ele>
        <time>2014-03-21T13:00:02Z</time>
      </trkpt>
      <trkpt lat="43.72528" lon="7.01291">
        <ele>930.712</ele>
        <time>2014-03-21T13:00:07Z</time>
      </trkpt>
      <trkpt lat="43.72492" lon="7.01318">
        <ele>927.801</ele>
        <time>2014-03-21T13:00:13Z</time>
      </trkpt>
      <trkpt lat="43.72456" lon="7.01341">
        <ele>926.257</ele>
        <time>2014-03-21T13:00:19Z</time>
      </trkpt>
      <trkpt lat="43.72441" lon="7.01351">
        <ele>925.959</ele>
        <time>2014-03-21T13:00:22Z</time>
      </trkpt>
      <trkpt lat="43.72422" lon="7.01367">
        <ele>924.839</ele>
        <time>2014-03-21T13:00:27Z</time>
      </trkpt>
      <trkpt lat="43.72404" lon="7.01376">
        <ele>922.748</ele>
        <time>2014-03-21T13:00:33Z</time>
      </trkpt>
      <trkpt lat="43.72392" lon="7.01381">
        <ele>921.302</ele>
        <time>2014-03-21T13:00:40Z</time>
      </trkpt>
      <trkpt lat="43.72385" lon="7.01383">
        <ele>921.191</ele>
        <time>2014-03-21T13:00:44Z</time>
      </trkpt>
      <trkpt lat="43.7238" lon="7.01384">
        <ele>921.801</ele>
        <time>2014-03-21T13:00:50Z</time>
      </trkpt>
      <trkpt lat="43.72364" lon="7.01393">
        <ele>920.167</ele>
        <time>2014-03-21T13:00:55Z</time>
      </trkpt>
      <trkpt lat="43.72332" lon="7.01398">
        <ele>916.911</ele>
        <time>2014-03-21T13:01:01Z</time>
      </trkpt>
      <trkpt lat="43.72328" lon="7.01398">
        <ele>916.381</ele>
        <time>2014-03-21T13:01:02Z</time>
      </trkpt>
      <trkpt lat="43.72325" lon="7.01407">
        <ele>916.849</ele>
        <time>2014-03-21T13:01:06Z</time>
      </trkpt>
      <trkpt lat="43.7233" lon="7.01413">
        <ele>918.788</ele>
        <time>2014-03-21T13:01:10Z</time>
      </trkpt>
      <trkpt lat="43.72338" lon="7.01423">
        <ele>921.731</ele>
        <time>2014-03-21T13:01:17Z</time>
      </trkpt>
      <trkpt lat="43.72345" lon="7.01431">
        <ele>924.962</ele>
        <time>2014-03-21T13:01:24Z</time>
      </trkpt>
      <trkpt lat="43.72351" lon="7.01443">
        <ele>927.59</ele>
        <time>2014-03-21T13:01:32Z</time>
      </trkpt>
      <trkpt lat="43.72353" lon="7.01457">
        <ele>929.609</ele>
        <time>2014-03-21T13:01:39Z</time>
      </trkpt>
      <trkpt lat="43.72352" lon="7.0146">
        <ele>930.269</ele>
        <time>2014-03-21T13:01:44Z</time>
      </trkpt>
      <trkpt lat="43.72351" lon="7.01464">
        <ele>931.948</ele>
        <time>2014-03-21T13:01:48Z</time>
      </trkpt>
      <trkpt lat="43.72353" lon="7.01473">
        <ele>935.13</ele>
        <time>2014-03-21T13:01:55Z</time>
      </trkpt>
      <trkpt lat="43.72354" lon="7.01473">
        <ele>935.307</ele>
        <time>2014-03-21T13:01:56Z</time>
      </trkpt>
      <trkpt lat="43.72354" lon="7.0148">
        <ele>936.816</ele>
        <time>2014-03-21T13:02:01Z</time>
      </trkpt>
      <trkpt lat="43.72357" lon="7.01498">
        <ele>939.282</ele>
        <time>2014-03-21T13:02:10Z</time>
      </trkpt>
      <trkpt lat="43.7236" lon="7.0151">
        <ele>940.884</ele>
        <time>2014-03-21T13:02:16Z</time>
      </trkpt>
      <trkpt lat="43.72362" lon="7.01523">
        <ele>943.704</ele>
        <time>2014-03-21T13:02:24Z</time>
      </trkpt>
      <trkpt lat="43.72361" lon="7.01542">
        <ele>944.208</ele>
        <time>2014-03-21T13:02:33Z</time>
      </trkpt>
      <trkpt lat="43.72359" lon="7.01559">
        <ele>943.705</ele>
        <time>2014-03-21T13:02:39Z</time>
      </trkpt>
      <trkpt lat="43.72358" lon="7.01572">
        <ele>946.17</ele>
        <time>2014-03-21T13:02:47Z</time>
      </trkpt>
      <trkpt lat="43.72355" lon="7.01587">
        <ele>951.987</ele>
        <time>2014-03-21T13:02:56Z</time>
      </trkpt>
      <trkpt lat="43.72353" lon="7.01605">
        <ele>955.264</ele>
        <time>2014-03-21T13:03:06Z</time>
      </trkpt>
      <trkpt lat="43.72353" lon="7.01621">
        <ele>957.323</ele>
        <time>2014-03-21T13:03:14Z</time>
      </trkpt>
      <trkpt lat="43.72352" lon="7.0164">
        <ele>957.55</ele>
        <time>2014-03-21T13:03:22Z</time>
      </trkpt>
      <trkpt lat="43.72348" lon="7.0166">
        <ele>957.188</ele>
        <time>2014-03-21T13:03:29Z</time>
      </trkpt>
      <trkpt lat="43.72345" lon="7.01675">
        <ele>954.984</ele>
        <time>2014-03-21T13:03:35Z</time>
      </trkpt>
      <trkpt lat="43.72342" lon="7.01688">
        <ele>953.393</ele>
        <time>2014-03-21T13:03:40Z</time>
      </trkpt>
      <trkpt lat="43.72338" lon="7.017">
        <ele>954.304</ele>
        <time>2014-03-21T13:03:45Z</time>
      </trkpt>
      <trkpt lat="43.72336" lon="7.01711">
        <ele>959.403</ele>
        <time>2014-03-21T13:03:50Z</time>
      </trkpt>
      <trkpt lat="43.72334" lon="7.0172">
        <ele>960.016</ele>
        <time>2014-03-21T13:03:56Z</time>
      </trkpt>
      <trkpt lat="43.72332" lon="7.01727">
        <ele>960.737</ele>
        <time>2014-03-21T13:04:00Z</time>
      </trkpt>
      <trkpt lat="43.72332" lon="7.01736">
        <ele>960.177</ele>
        <time>2014-03-21T13:04:05Z</time>
      </trkpt>
      <trkpt lat="43.72332" lon="7.01742">
        <ele>960.798</ele>
        <time>2014-03-21T13:04:07Z</time>
      </trkpt>
      <trkpt lat="43.72333" lon="7.01747">
        <ele>962.5</ele>
        <time>2014-03-21T13:04:10Z</time>
      </trkpt>
      <trkpt lat="43.72331" lon="7.01764">
        <ele>968.649</ele>
        <time>2014-03-21T13:04:18Z</time>
      </trkpt>
      <trkpt lat="43.7233" lon="7.01782">
        <ele>972.303</ele>
        <time>2014-03-21T13:04:25Z</time>
      </trkpt>
      <trkpt lat="43.72331" lon="7.01795">
        <ele>971.978</ele>
        <time>2014-03-21T13:04:31Z</time>
      </trkpt>
      <trkpt lat="43.7233" lon="7.01812">
        <ele>973.137</ele>
        <time>2014-03-21T13:04:39Z</time>
      </trkpt>
      <trkpt lat="43.72329" lon="7.0183">
        <ele>975.558</ele>
        <time>2014-03-21T13:04:47Z</time>
      </trkpt>
      <trkpt lat="43.72332" lon="7.01846">
        <ele>975.558</ele>
        <time>2014-03-21T13:04:55Z</time>
      </trkpt>
      <trkpt lat="43.72336" lon="7.01866">
        <ele>975.499</ele>
        <time>2014-03-21T13:05:05Z</time>
      </trkpt>
      <trkpt lat="43.72335" lon="7.01886">
        <ele>978.887</ele>
        <time>2014-03-21T13:05:15Z</time>
      </trkpt>
      <trkpt lat="43.72332" lon="7.01901">
        <ele>980.221</ele>
        <time>2014-03-21T13:05:23Z</time>
      </trkpt>
      <trkpt lat="43.72333" lon="7.01914">
        <ele>981.06</ele>
        <time>2014-03-21T13:05:30Z</time>
      </trkpt>
      <trkpt lat="43.72337" lon="7.01928">
        <ele>980.645</ele>
        <time>2014-03-21T13:05:36Z</time>
      </trkpt>
      <trkpt lat="43.7234" lon="7.01942">
        <ele>981.141</ele>
        <time>2014-03-21T13:05:42Z</time>
      </trkpt>
      <trkpt lat="43.72348" lon="7.01956">
        <ele>982.122</ele>
        <time>2014-03-21T13:05:50Z</time>
      </trkpt>
      <trkpt lat="43.72355" lon="7.01968">
        <ele>983.761</ele>
        <time>2014-03-21T13:05:57Z</time>
      </trkpt>
      <trkpt lat="43.72357" lon="7.01982">
        <ele>985.136</ele>
        <time>2014-03-21T13:06:05Z</time>
      </trkpt>
      <trkpt lat="43.72361" lon="7.01999">
        <ele>986.377</ele>
        <time>2014-03-21T13:06:14Z</time>
      </trkpt>
      <trkpt lat="43.72363" lon="7.02014">
        <ele>987.167</ele>
        <time>2014-03-21T13:06:22Z</time>
      </trkpt>
      <trkpt lat="43.72365" lon="7.02025">
        <ele>986.843</ele>
        <time>2014-03-21T13:06:28Z</time>
      </trkpt>
      <trkpt lat="43.72367" lon="7.02037">
        <ele>987.413</ele>
        <time>2014-03-21T13:06:35Z</time>
      </trkpt>
      <trkpt lat="43.72369" lon="7.0205">
        <ele>988.244</ele>
        <time>2014-03-21T13:06:43Z</time>
      </trkpt>
      <trkpt lat="43.72369" lon="7.02053">
        <ele>988.525</ele>
        <time>2014-03-21T13:06:45Z</time>
      </trkpt>
      <trkpt lat="43.72368" lon="7.02065">
        <ele>989.928</ele>
        <time>2014-03-21T13:06:52Z</time>
      </trkpt>
      <trkpt lat="43.72367" lon="7.0208">
        <ele>991.627</ele>
        <time>2014-03-21T13:07:00Z</time>
      </trkpt>
      <trkpt lat="43.72366" lon="7.02083">
        <ele>992.708</ele>
        <time>2014-03-21T13:07:02Z</time>
      </trkpt>
      <trkpt lat="43.72359" lon="7.02088">
        <ele>991.724</ele>
        <time>2014-03-21T13:07:06Z</time>
      </trkpt>
      <trkpt lat="43.72353" lon="7.02107">
        <ele>991.943</ele>
        <time>2014-03-21T13:07:12Z</time>
      </trkpt>
      <trkpt lat="43.72351" lon="7.02119">
        <ele>994.418</ele>
        <time>2014-03-21T13:07:17Z</time>
      </trkpt>
      <trkpt lat="43.72351" lon="7.02125">
        <ele>994.927</ele>
        <time>2014-03-21T13:07:20Z</time>
      </trkpt>
      <trkpt lat="43.72353" lon="7.02138">
        <ele>995.417</ele>
        <time>2014-03-21T13:07:26Z</time>
      </trkpt>
      <trkpt lat="43.72354" lon="7.02142">
        <ele>995.159</ele>
        <time>2014-03-21T13:07:28Z</time>
      </trkpt>
      <trkpt lat="43.72353" lon="7.02157">
        <ele>996.109</ele>
        <time>2014-03-21T13:07:35Z</time>
      </trkpt>
      <trkpt lat="43.7235" lon="7.02172">
        <ele>997.971</ele>
        <time>2014-03-21T13:07:41Z</time>
      </trkpt>
      <trkpt lat="43.72348" lon="7.02191">
        <ele>1000.941</ele>
        <time>2014-03-21T13:07:48Z</time>
      </trkpt>
      <trkpt lat="43.7234" lon="7.0221">
        <ele>1000.435</ele>
        <time>2014-03-21T13:07:54Z</time>
      </trkpt>
      <trkpt lat="43.72332" lon="7.02224">
        <ele>999.431</ele>
        <time>2014-03-21T13:07:58Z</time>
      </trkpt>
      <trkpt lat="43.72331" lon="7.02227">
        <ele>998.06</ele>
        <time>2014-03-21T13:08:02Z</time>
      </trkpt>
      <trkpt lat="43.72329" lon="7.02234">
        <ele>999.309</ele>
        <time>2014-03-21T13:09:49Z</time>
      </trkpt>
      <trkpt lat="43.72327" lon="7.0225">
        <ele>996.68</ele>
        <time>2014-03-21T13:09:53Z</time>
      </trkpt>
      <trkpt lat="43.72324" lon="7.02271">
        <ele>991.891</ele>
        <time>2014-03-21T13:09:58Z</time>
      </trkpt>
      <trkpt lat="43.72322" lon="7.02276">
        <ele>990.963</ele>
        <time>2014-03-21T13:09:59Z</time>
      </trkpt>
      <trkpt lat="43.7232" lon="7.02294">
        <ele>987.164</ele>
        <time>2014-03-21T13:10:04Z</time>
      </trkpt>
      <trkpt lat="43.72313" lon="7.02318">
        <ele>986.282</ele>
        <time>2014-03-21T13:10:09Z</time>
      </trkpt>
      <trkpt lat="43.72306" lon="7.02328">
        <ele>983.979</ele>
        <time>2014-03-21T13:10:12Z</time>
      </trkpt>
      <trkpt lat="43.72297" lon="7.02352">
        <ele>980.136</ele>
        <time>2014-03-21T13:10:17Z</time>
      </trkpt>
      <trkpt lat="43.72293" lon="7.02361">
        <ele>980.467</ele>
        <time>2014-03-21T13:10:19Z</time>
      </trkpt>
      <trkpt lat="43.72289" lon="7.02377">
        <ele>979.104</ele>
        <time>2014-03-21T13:10:23Z</time>
      </trkpt>
      <trkpt lat="43.72288" lon="7.02379">
        <ele>978.889</ele>
        <time>2014-03-21T13:10:27Z</time>
      </trkpt>
      <trkpt lat="43.72288" lon="7.02383">
        <ele>978.419</ele>
        <time>2014-03-21T13:10:33Z</time>
      </trkpt>
      <trkpt lat="43.72287" lon="7.02385">
        <ele>976.936</ele>
        <time>2014-03-21T13:10:37Z</time>
      </trkpt>
      <trkpt lat="43.72286" lon="7.02388">
        <ele>976.458</ele>
        <time>2014-03-21T13:10:40Z</time>
      </trkpt>
      <trkpt lat="43.72287" lon="7.02394">
        <ele>974.689</ele>
        <time>2014-03-21T13:10:47Z</time>
      </trkpt>
      <trkpt lat="43.72287" lon="7.02395">
        <ele>974.14</ele>
        <time>2014-03-21T13:10:50Z</time>
      </trkpt>
      <trkpt lat="43.72285" lon="7.02397">
        <ele>974.402</ele>
        <time>2014-03-21T13:10:57Z</time>
      </trkpt>
      <trkpt lat="43.72283" lon="7.02402">
        <ele>973.98</ele>
        <time>2014-03-21T13:11:01Z</time>
      </trkpt>
      <trkpt lat="43.72282" lon="7.02414">
        <ele>970.786</ele>
        <time>2014-03-21T13:11:07Z</time>
      </trkpt>
      <trkpt lat="43.72282" lon="7.02425">
        <ele>968.092</ele>
        <time>2014-03-21T13:11:11Z</time>
      </trkpt>
      <trkpt lat="43.72273" lon="7.02432">
        <ele>964.681</ele>
        <time>2014-03-21T13:11:17Z</time>
      </trkpt>
      <trkpt lat="43.72269" lon="7.02434">
        <ele>958.717</ele>
        <time>2014-03-21T13:11:24Z</time>
      </trkpt>
      <trkpt lat="43.72267" lon="7.02438">
        <ele>965.904</ele>
        <time>2014-03-21T13:11:29Z</time>
      </trkpt>
      <trkpt lat="43.72263" lon="7.02438">
        <ele>968.708</ele>
        <time>2014-03-21T13:11:36Z</time>
      </trkpt>
      <trkpt lat="43.72263" lon="7.02436">
        <ele>971.601</ele>
        <time>2014-03-21T13:11:43Z</time>
      </trkpt>
      <trkpt lat="43.72265" lon="7.02443">
        <ele>972.179</ele>
        <time>2014-03-21T13:11:49Z</time>
      </trkpt>
      <trkpt lat="43.72265" lon="7.02443">
        <ele>970.467</ele>
        <time>2014-03-21T13:11:52Z</time>
      </trkpt>
      <trkpt lat="43.72262" lon="7.02445">
        <ele>969.766</ele>
        <time>2014-03-21T13:11:55Z</time>
      </trkpt>
      <trkpt lat="43.72257" lon="7.02452">
        <ele>967.763</ele>
        <time>2014-03-21T13:12:01Z</time>
      </trkpt>
      <trkpt lat="43.72255" lon="7.02454">
        <ele>967.122</ele>
        <time>2014-03-21T13:12:06Z</time>
      </trkpt>
      <trkpt lat="43.72253" lon="7.02453">
        <ele>967.591</ele>
        <time>2014-03-21T13:12:10Z</time>
      </trkpt>
      <trkpt lat="43.72255" lon="7.02462">
        <ele>962.538</ele>
        <time>2014-03-21T13:12:16Z</time>
      </trkpt>
      <trkpt lat="43.72253" lon="7.02461">
        <ele>961.302</ele>
        <time>2014-03-21T13:12:25Z</time>
      </trkpt>
      <trkpt lat="43.72253" lon="7.02463">
        <ele>960.491</ele>
        <time>2014-03-21T13:12:31Z</time>
      </trkpt>
      <trkpt lat="43.72251" lon="7.02465">
        <ele>960.54</ele>
        <time>2014-03-21T13:12:36Z</time>
      </trkpt>
      <trkpt lat="43.7225" lon="7.0247">
        <ele>962.834</ele>
        <time>2014-03-21T13:12:42Z</time>
      </trkpt>
      <trkpt lat="43.72251" lon="7.02471">
        <ele>961.783</ele>
        <time>2014-03-21T13:12:44Z</time>
      </trkpt>
      <trkpt lat="43.72258" lon="7.02476">
        <ele>959.622</ele>
        <time>2014-03-21T13:12:51Z</time>
      </trkpt>
      <trkpt lat="43.72258" lon="7.02477">
        <ele>960.002</ele>
        <time>2014-03-21T13:12:54Z</time>
      </trkpt>
      <trkpt lat="43.72257" lon="7.02483">
        <ele>960.965</ele>
        <time>2014-03-21T13:12:58Z</time>
      </trkpt>
      <trkpt lat="43.72258" lon="7.02489">
        <ele>961.695</ele>
        <time>2014-03-21T13:13:03Z</time>
      </trkpt>
      <trkpt lat="43.72254" lon="7.025">
        <ele>963.404</ele>
        <time>2014-03-21T13:13:08Z</time>
      </trkpt>
      <trkpt lat="43.72255" lon="7.02504">
        <ele>963.395</ele>
        <time>2014-03-21T13:13:09Z</time>
      </trkpt>
      <trkpt lat="43.72256" lon="7.02509">
        <ele>964.425</ele>
        <time>2014-03-21T13:13:11Z</time>
      </trkpt>
      <trkpt lat="43.72253" lon="7.02516">
        <ele>963.753</ele>
        <time>2014-03-21T13:13:14Z</time>
      </trkpt>
      <trkpt lat="43.72251" lon="7.02525">
        <ele>963.243</ele>
        <time>2014-03-21T13:13:20Z</time>
      </trkpt>
      <trkpt lat="43.72249" lon="7.02533">
        <ele>963.172</ele>
        <time>2014-03-21T13:13:25Z</time>
      </trkpt>
      <trkpt lat="43.72248" lon="7.02534">
        <ele>962.401</ele>
        <time>2014-03-21T13:13:27Z</time>
      </trkpt>
      <trkpt lat="43.72248" lon="7.02552">
        <ele>958.398</ele>
        <time>2014-03-21T13:13:33Z</time>
      </trkpt>
      <trkpt lat="43.7225" lon="7.02558">
        <ele>958.001</ele>
        <time>2014-03-21T13:13:37Z</time>
      </trkpt>
      <trkpt lat="43.72246" lon="7.02553">
        <ele>958.526</ele>
        <time>2014-03-21T13:13:44Z</time>
      </trkpt>
      <trkpt lat="43.72241" lon="7.02558">
        <ele>957.984</ele>
        <time>2014-03-21T13:13:49Z</time>
      </trkpt>
      <trkpt lat="43.72239" lon="7.02563">
        <ele>957.975</ele>
        <time>2014-03-21T13:13:55Z</time>
      </trkpt>
      <trkpt lat="43.72238" lon="7.02564">
        <ele>958.325</ele>
        <time>2014-03-21T13:13:57Z</time>
      </trkpt>
      <trkpt lat="43.72234" lon="7.02568">
        <ele>957.675</ele>
        <time>2014-03-21T13:14:01Z</time>
      </trkpt>
      <trkpt lat="43.72225" lon="7.02573">
        <ele>957.025</ele>
        <time>2014-03-21T13:14:07Z</time>
      </trkpt>
      <trkpt lat="43.72216" lon="7.02578">
        <ele>954.02</ele>
        <time>2014-03-21T13:14:11Z</time>
      </trkpt>
      <trkpt lat="43.72214" lon="7.02579">
        <ele>953.73</ele>
        <time>2014-03-21T13:14:12Z</time>
      </trkpt>
      <trkpt lat="43.72212" lon="7.02585">
        <ele>952.801</ele>
        <time>2014-03-21T13:14:15Z</time>
      </trkpt>
      <trkpt lat="43.72208" lon="7.02589">
        <ele>950.119</ele>
        <time>2014-03-21T13:14:21Z</time>
      </trkpt>
      <trkpt lat="43.72205" lon="7.02591">
        <ele>948.556</ele>
        <time>2014-03-21T13:14:26Z</time>
      </trkpt>
      <trkpt lat="43.72203" lon="7.02594">
        <ele>948.22</ele>
        <time>2014-03-21T13:14:33Z</time>
      </trkpt>
      <trkpt lat="43.72197" lon="7.02602">
        <ele>946.506</ele>
        <time>2014-03-21T13:14:37Z</time>
      </trkpt>
      <trkpt lat="43.72191" lon="7.02608">
        <ele>947.431</ele>
        <time>2014-03-21T13:14:41Z</time>
      </trkpt>
      <trkpt lat="43.7218" lon="7.02601">
        <ele>947.583</ele>
        <time>2014-03-21T13:14:45Z</time>
      </trkpt>
      <trkpt lat="43.72165" lon="7.02602">
        <ele>943.377</ele>
        <time>2014-03-21T13:14:50Z</time>
      </trkpt>
      <trkpt lat="43.72158" lon="7.02611">
        <ele>941.866</ele>
        <time>2014-03-21T13:14:54Z</time>
      </trkpt>
      <trkpt lat="43.72154" lon="7.02638">
        <ele>937.138</ele>
        <time>2014-03-21T13:15:01Z</time>
      </trkpt>
      <trkpt lat="43.72146" lon="7.02657">
        <ele>937.108</ele>
        <time>2014-03-21T13:15:05Z</time>
      </trkpt>
      <trkpt lat="43.72132" lon="7.02677">
        <ele>934.107</ele>
        <time>2014-03-21T13:15:11Z</time>
      </trkpt>
      <trkpt lat="43.72123" lon="7.02692">
        <ele>930.572</ele>
        <time>2014-03-21T13:15:15Z</time>
      </trkpt>
      <trkpt lat="43.7211" lon="7.02705">
        <ele>930.058</ele>
        <time>2014-03-21T13:15:20Z</time>
      </trkpt>
      <trkpt lat="43.721" lon="7.02713">
        <ele>926.121</ele>
        <time>2014-03-21T13:15:24Z</time>
      </trkpt>
      <trkpt lat="43.72091" lon="7.02724">
        <ele>924.809</ele>
        <time>2014-03-21T13:15:29Z</time>
      </trkpt>
      <trkpt lat="43.72077" lon="7.02735">
        <ele>922.989</ele>
        <time>2014-03-21T13:15:34Z</time>
      </trkpt>
      <trkpt lat="43.72074" lon="7.02738">
        <ele>922.567</ele>
        <time>2014-03-21T13:15:35Z</time>
      </trkpt>
      <trkpt lat="43.7206" lon="7.02755">
        <ele>918.68</ele>
        <time>2014-03-21T13:15:39Z</time>
      </trkpt>
      <trkpt lat="43.72043" lon="7.02769">
        <ele>914.28</ele>
        <time>2014-03-21T13:15:44Z</time>
      </trkpt>
      <trkpt lat="43.72043" lon="7.0277">
        <ele>913.765</ele>
        <time>2014-03-21T13:15:46Z</time>
      </trkpt>
      <trkpt lat="43.72044" lon="7.02772">
        <ele>913.931</ele>
        <time>2014-03-21T13:15:49Z</time>
      </trkpt>
      <trkpt lat="43.72042" lon="7.02775">
        <ele>912.973</ele>
        <time>2014-03-21T13:15:56Z</time>
      </trkpt>
      <trkpt lat="43.72042" lon="7.02775">
        <ele>912.245</ele>
        <time>2014-03-21T13:16:07Z</time>
      </trkpt>
      <trkpt lat="43.7203" lon="7.02774">
        <ele>909.473</ele>
        <time>2014-03-21T13:16:12Z</time>
      </trkpt>
      <trkpt lat="43.72023" lon="7.02773">
        <ele>907.849</ele>
        <time>2014-03-21T13:16:14Z</time>
      </trkpt>
      <trkpt lat="43.72004" lon="7.02782">
        <ele>904.117</ele>
        <time>2014-03-21T13:16:19Z</time>
      </trkpt>
      <trkpt lat="43.72001" lon="7.02783">
        <ele>903.015</ele>
        <time>2014-03-21T13:16:20Z</time>
      </trkpt>
      <trkpt lat="43.71985" lon="7.02788">
        <ele>899.976</ele>
        <time>2014-03-21T13:16:24Z</time>
      </trkpt>
      <trkpt lat="43.71976" lon="7.02787">
        <ele>898.657</ele>
        <time>2014-03-21T13:16:26Z</time>
      </trkpt>
      <trkpt lat="43.71956" lon="7.02787">
        <ele>895.518</ele>
        <time>2014-03-21T13:16:30Z</time>
      </trkpt>
      <trkpt lat="43.71952" lon="7.02791">
        <ele>894.345</ele>
        <time>2014-03-21T13:16:31Z</time>
      </trkpt>
      <trkpt lat="43.71937" lon="7.0279">
        <ele>890.855</ele>
        <time>2014-03-21T13:16:35Z</time>
      </trkpt>
      <trkpt lat="43.71923" lon="7.02793">
        <ele>888.185</ele>
        <time>2014-03-21T13:16:38Z</time>
      </trkpt>
      <trkpt lat="43.71914" lon="7.02799">
        <ele>886.404</ele>
        <time>2014-03-21T13:16:40Z</time>
      </trkpt>
      <trkpt lat="43.71907" lon="7.02816">
        <ele>884.642</ele>
        <time>2014-03-21T13:16:43Z</time>
      </trkpt>
      <trkpt lat="43.71897" lon="7.02829">
        <ele>881.52</ele>
        <time>2014-03-21T13:16:46Z</time>
      </trkpt>
      <trkpt lat="43.71894" lon="7.02832">
        <ele>880.411</ele>
        <time>2014-03-21T13:16:47Z</time>
      </trkpt>
      <trkpt lat="43.71887" lon="7.02852">
        <ele>877.48</ele>
        <time>2014-03-21T13:16:52Z</time>
      </trkpt>
      <trkpt lat="43.71884" lon="7.02859">
        <ele>876.302</ele>
        <time>2014-03-21T13:16:55Z</time>
      </trkpt>
      <trkpt lat="43.7188" lon="7.02852">
        <ele>874.855</ele>
        <time>2014-03-21T13:16:58Z</time>
      </trkpt>
      <trkpt lat="43.71877" lon="7.02845">
        <ele>873.864</ele>
        <time>2014-03-21T13:17:00Z</time>
      </trkpt>
      <trkpt lat="43.71874" lon="7.02832">
        <ele>873.466</ele>
        <time>2014-03-21T13:17:03Z</time>
      </trkpt>
      <trkpt lat="43.71873" lon="7.02827">
        <ele>872.77</ele>
        <time>2014-03-21T13:17:08Z</time>
      </trkpt>
      <trkpt lat="43.71873" lon="7.02826">
        <ele>872.272</ele>
        <time>2014-03-21T13:17:12Z</time>
      </trkpt>
      <trkpt lat="43.71864" lon="7.02812">
        <ele>871.579</ele>
        <time>2014-03-21T13:17:18Z</time>
      </trkpt>
      <trkpt lat="43.71854" lon="7.02801">
        <ele>870.569</ele>
        <time>2014-03-21T13:17:21Z</time>
      </trkpt>
      <trkpt lat="43.71845" lon="7.02784">
        <ele>869.839</ele>
        <time>2014-03-21T13:17:24Z</time>
      </trkpt>
      <trkpt lat="43.71836" lon="7.02755">
        <ele>869.842</ele>
        <time>2014-03-21T13:17:29Z</time>
      </trkpt>
      <trkpt lat="43.71825" lon="7.02739">
        <ele>868.684</ele>
        <time>2014-03-21T13:17:33Z</time>
      </trkpt>
      <trkpt lat="43.7182" lon="7.02739">
        <ele>867.961</ele>
        <time>2014-03-21T13:17:34Z</time>
      </trkpt>
      <trkpt lat="43.71786" lon="7.02738">
        <ele>864.521</ele>
        <time>2014-03-21T13:17:40Z</time>
      </trkpt>
      <trkpt lat="43.71761" lon="7.02737">
        <ele>861.12</ele>
        <time>2014-03-21T13:17:45Z</time>
      </trkpt>
      <trkpt lat="43.71735" lon="7.02734">
        <ele>857.861</ele>
        <time>2014-03-21T13:17:50Z</time>
      </trkpt>
      <trkpt lat="43.71724" lon="7.02734">
        <ele>856.79</ele>
        <time>2014-03-21T13:17:52Z</time>
      </trkpt>
      <trkpt lat="43.71701" lon="7.02735">
        <ele>853.862</ele>
        <time>2014-03-21T13:17:57Z</time>
      </trkpt>
      <trkpt lat="43.71695" lon="7.02739">
        <ele>853.663</ele>
        <time>2014-03-21T13:17:59Z</time>
      </trkpt>
      <trkpt lat="43.71696" lon="7.0275">
        <ele>853.619</ele>
        <time>2014-03-21T13:18:03Z</time>
      </trkpt>
      <trkpt lat="43.71698" lon="7.02754">
        <ele>854.644</ele>
        <time>2014-03-21T13:18:07Z</time>
      </trkpt>
      <trkpt lat="43.71698" lon="7.0276">
        <ele>856.277</ele>
        <time>2014-03-21T13:18:12Z</time>
      </trkpt>
      <trkpt lat="43.71698" lon="7.02761">
        <ele>856.587</ele>
        <time>2014-03-21T13:18:13Z</time>
      </trkpt>
      <trkpt lat="43.71706" lon="7.02773">
        <ele>856.487</ele>
        <time>2014-03-21T13:18:19Z</time>
      </trkpt>
      <trkpt lat="43.71716" lon="7.02784">
        <ele>856.186</ele>
        <time>2014-03-21T13:18:26Z</time>
      </trkpt>
      <trkpt lat="43.71726" lon="7.02796">
        <ele>855.855</ele>
        <time>2014-03-21T13:18:31Z</time>
      </trkpt>
      <trkpt lat="43.71744" lon="7.02819">
        <ele>854.864</ele>
        <time>2014-03-21T13:18:39Z</time>
      </trkpt>
      <trkpt lat="43.71757" lon="7.0284">
        <ele>854.394</ele>
        <time>2014-03-21T13:18:45Z</time>
      </trkpt>
      <trkpt lat="43.71768" lon="7.02857">
        <ele>854.225</ele>
        <time>2014-03-21T13:18:49Z</time>
      </trkpt>
      <trkpt lat="43.71791" lon="7.0289">
        <ele>853.092</ele>
        <time>2014-03-21T13:18:57Z</time>
      </trkpt>
      <trkpt lat="43.71794" lon="7.02894">
        <ele>853.052</ele>
        <time>2014-03-21T13:18:58Z</time>
      </trkpt>
      <trkpt lat="43.7182" lon="7.02933">
        <ele>851.943</ele>
        <time>2014-03-21T13:19:07Z</time>
      </trkpt>
      <trkpt lat="43.71838" lon="7.02958">
        <ele>850.921</ele>
        <time>2014-03-21T13:19:12Z</time>
      </trkpt>
      <trkpt lat="43.71848" lon="7.02969">
        <ele>849.627</ele>
        <time>2014-03-21T13:19:14Z</time>
      </trkpt>
      <trkpt lat="43.71872" lon="7.03001">
        <ele>846.883</ele>
        <time>2014-03-21T13:19:19Z</time>
      </trkpt>
      <trkpt lat="43.71901" lon="7.03058">
        <ele>842.88</ele>
        <time>2014-03-21T13:19:26Z</time>
      </trkpt>
      <trkpt lat="43.71905" lon="7.03066">
        <ele>842.411</ele>
        <time>2014-03-21T13:19:27Z</time>
      </trkpt>
      <trkpt lat="43.71919" lon="7.03119">
        <ele>840.827</ele>
        <time>2014-03-21T13:19:33Z</time>
      </trkpt>
      <trkpt lat="43.71922" lon="7.03154">
        <ele>840.182</ele>
        <time>2014-03-21T13:19:38Z</time>
      </trkpt>
      <trkpt lat="43.71922" lon="7.03167">
        <ele>840.614</ele>
        <time>2014-03-21T13:19:40Z</time>
      </trkpt>
      <trkpt lat="43.7192" lon="7.03189">
        <ele>841.066</ele>
        <time>2014-03-21T13:19:43Z</time>
      </trkpt>
      <trkpt lat="43.71923" lon="7.03216">
        <ele>841.708</ele>
        <time>2014-03-21T13:19:47Z</time>
      </trkpt>
      <trkpt lat="43.71927" lon="7.03228">
        <ele>841.517</ele>
        <time>2014-03-21T13:19:49Z</time>
      </trkpt>
      <trkpt lat="43.71942" lon="7.03253">
        <ele>842.569</ele>
        <time>2014-03-21T13:19:55Z</time>
      </trkpt>
      <trkpt lat="43.71971" lon="7.03291">
        <ele>841.692</ele>
        <time>2014-03-21T13:20:05Z</time>
      </trkpt>
      <trkpt lat="43.71977" lon="7.033">
        <ele>841.754</ele>
        <time>2014-03-21T13:20:07Z</time>
      </trkpt>
      <trkpt lat="43.71997" lon="7.03345">
        <ele>838.967</ele>
        <time>2014-03-21T13:20:13Z</time>
      </trkpt>
      <trkpt lat="43.7202" lon="7.03386">
        <ele>836.003</ele>
        <time>2014-03-21T13:20:18Z</time>
      </trkpt>
      <trkpt lat="43.72035" lon="7.03422">
        <ele>834.424</ele>
        <time>2014-03-21T13:20:22Z</time>
      </trkpt>
      <trkpt lat="43.72042" lon="7.03472">
        <ele>832.426</ele>
        <time>2014-03-21T13:20:27Z</time>
      </trkpt>
      <trkpt lat="43.72043" lon="7.03482">
        <ele>831.702</ele>
        <time>2014-03-21T13:20:28Z</time>
      </trkpt>
      <trkpt lat="43.72058" lon="7.03518">
        <ele>829.327</ele>
        <time>2014-03-21T13:20:32Z</time>
      </trkpt>
      <trkpt lat="43.7208" lon="7.03544">
        <ele>828.519</ele>
        <time>2014-03-21T13:20:36Z</time>
      </trkpt>
      <trkpt lat="43.72105" lon="7.03573">
        <ele>828.012</ele>
        <time>2014-03-21T13:20:42Z</time>
      </trkpt>
      <trkpt lat="43.72131" lon="7.03604">
        <ele>823.613</ele>
        <time>2014-03-21T13:20:48Z</time>
      </trkpt>
      <trkpt lat="43.72151" lon="7.03635">
        <ele>820.633</ele>
        <time>2014-03-21T13:20:53Z</time>
      </trkpt>
      <trkpt lat="43.72157" lon="7.03668">
        <ele>818.676</ele>
        <time>2014-03-21T13:20:57Z</time>
      </trkpt>
      <trkpt lat="43.7215" lon="7.03696">
        <ele>819.735</ele>
        <time>2014-03-21T13:21:01Z</time>
      </trkpt>
      <trkpt lat="43.72143" lon="7.03712">
        <ele>819.714</ele>
        <time>2014-03-21T13:21:04Z</time>
      </trkpt>
      <trkpt lat="43.72133" lon="7.03751">
        <ele>818.352</ele>
        <time>2014-03-21T13:21:10Z</time>
      </trkpt>
      <trkpt lat="43.72132" lon="7.03764">
        <ele>818.505</ele>
        <time>2014-03-21T13:21:12Z</time>
      </trkpt>
      <trkpt lat="43.72129" lon="7.03784">
        <ele>820.17</ele>
        <time>2014-03-21T13:21:16Z</time>
      </trkpt>
      <trkpt lat="43.72126" lon="7.03818">
        <ele>824.607</ele>
        <time>2014-03-21T13:21:23Z</time>
      </trkpt>
      <trkpt lat="43.72132" lon="7.03853">
        <ele>827.939</ele>
        <time>2014-03-21T13:21:30Z</time>
      </trkpt>
      <trkpt lat="43.72143" lon="7.03882">
        <ele>828.025</ele>
        <time>2014-03-21T13:21:36Z</time>
      </trkpt>
      <trkpt lat="43.72157" lon="7.0391">
        <ele>828.463</ele>
        <time>2014-03-21T13:21:42Z</time>
      </trkpt>
      <trkpt lat="43.72177" lon="7.03937">
        <ele>828.242</ele>
        <time>2014-03-21T13:21:49Z</time>
      </trkpt>
      <trkpt lat="43.72204" lon="7.03959">
        <ele>828.051</ele>
        <time>2014-03-21T13:21:57Z</time>
      </trkpt>
      <trkpt lat="43.72227" lon="7.03972">
        <ele>827.923</ele>
        <time>2014-03-21T13:22:03Z</time>
      </trkpt>
      <trkpt lat="43.72243" lon="7.03974">
        <ele>825.461</ele>
        <time>2014-03-21T13:22:08Z</time>
      </trkpt>
      <trkpt lat="43.72266" lon="7.03981">
        <ele>823.775</ele>
        <time>2014-03-21T13:22:14Z</time>
      </trkpt>
      <trkpt lat="43.72298" lon="7.0399">
        <ele>823.839</ele>
        <time>2014-03-21T13:22:22Z</time>
      </trkpt>
      <trkpt lat="43.72313" lon="7.0399">
        <ele>824.189</ele>
        <time>2014-03-21T13:22:26Z</time>
      </trkpt>
      <trkpt lat="43.72335" lon="7.03993">
        <ele>822.912</ele>
        <time>2014-03-21T13:22:31Z</time>
      </trkpt>
      <trkpt lat="43.72357" lon="7.03983">
        <ele>822.984</ele>
        <time>2014-03-21T13:22:36Z</time>
      </trkpt>
      <trkpt lat="43.7237" lon="7.03974">
        <ele>822.111</ele>
        <time>2014-03-21T13:22:39Z</time>
      </trkpt>
      <trkpt lat="43.72379" lon="7.03965">
        <ele>821.723</ele>
        <time>2014-03-21T13:22:41Z</time>
      </trkpt>
      <trkpt lat="43.72404" lon="7.03942">
        <ele>819.58</ele>
        <time>2014-03-21T13:22:47Z</time>
      </trkpt>
      <trkpt lat="43.72421" lon="7.03938">
        <ele>819.393</ele>
        <time>2014-03-21T13:22:51Z</time>
      </trkpt>
      <trkpt lat="43.72426" lon="7.03947">
        <ele>820.298</ele>
        <time>2014-03-21T13:22:53Z</time>
      </trkpt>
      <trkpt lat="43.72432" lon="7.03968">
        <ele>822.211</ele>
        <time>2014-03-21T13:22:56Z</time>
      </trkpt>
      <trkpt lat="43.72453" lon="7.04004">
        <ele>823.682</ele>
        <time>2014-03-21T13:23:03Z</time>
      </trkpt>
      <trkpt lat="43.72472" lon="7.04023">
        <ele>824.755</ele>
        <time>2014-03-21T13:23:09Z</time>
      </trkpt>
      <trkpt lat="43.72486" lon="7.04028">
        <ele>825.965</ele>
        <time>2014-03-21T13:23:15Z</time>
      </trkpt>
      <trkpt lat="43.72489" lon="7.04029">
        <ele>826.442</ele>
        <time>2014-03-21T13:23:19Z</time>
      </trkpt>
      <trkpt lat="43.7249" lon="7.04028">
        <ele>823.248</ele>
        <time>2014-03-21T13:23:49Z</time>
      </trkpt>
      <trkpt lat="43.72501" lon="7.04031">
        <ele>823.159</ele>
        <time>2014-03-21T13:23:54Z</time>
      </trkpt>
      <trkpt lat="43.72521" lon="7.04041">
        <ele>822.548</ele>
        <time>2014-03-21T13:24:00Z</time>
      </trkpt>
      <trkpt lat="43.72536" lon="7.04052">
        <ele>821.857</ele>
        <time>2014-03-21T13:24:05Z</time>
      </trkpt>
      <trkpt lat="43.72554" lon="7.04062">
        <ele>821.126</ele>
        <time>2014-03-21T13:24:10Z</time>
      </trkpt>
      <trkpt lat="43.72577" lon="7.04069">
        <ele>819.73</ele>
        <time>2014-03-21T13:24:15Z</time>
      </trkpt>
      <trkpt lat="43.72602" lon="7.04082">
        <ele>819.115</ele>
        <time>2014-03-21T13:24:20Z</time>
      </trkpt>
      <trkpt lat="43.72606" lon="7.04086">
        <ele>819.127</ele>
        <time>2014-03-21T13:24:21Z</time>
      </trkpt>
      <trkpt lat="43.72623" lon="7.04094">
        <ele>820.123</ele>
        <time>2014-03-21T13:24:26Z</time>
      </trkpt>
      <trkpt lat="43.72641" lon="7.04096">
        <ele>821.223</ele>
        <time>2014-03-21T13:24:32Z</time>
      </trkpt>
      <trkpt lat="43.7266" lon="7.04104">
        <ele>820.816</ele>
        <time>2014-03-21T13:24:38Z</time>
      </trkpt>
      <trkpt lat="43.72678" lon="7.04117">
        <ele>821.42</ele>
        <time>2014-03-21T13:24:44Z</time>
      </trkpt>
      <trkpt lat="43.727" lon="7.04132">
        <ele>823.064</ele>
        <time>2014-03-21T13:24:52Z</time>
      </trkpt>
      <trkpt lat="43.72715" lon="7.04136">
        <ele>824.234</ele>
        <time>2014-03-21T13:24:57Z</time>
      </trkpt>
      <trkpt lat="43.72741" lon="7.04137">
        <ele>824.68</ele>
        <time>2014-03-21T13:25:04Z</time>
      </trkpt>
      <trkpt lat="43.7277" lon="7.04133">
        <ele>826.726</ele>
        <time>2014-03-21T13:25:12Z</time>
      </trkpt>
      <trkpt lat="43.72792" lon="7.04121">
        <ele>827.059</ele>
        <time>2014-03-21T13:25:19Z</time>
      </trkpt>
      <trkpt lat="43.72811" lon="7.04112">
        <ele>827.981</ele>
        <time>2014-03-21T13:25:25Z</time>
      </trkpt>
      <trkpt lat="43.72826" lon="7.04117">
        <ele>828.462</ele>
        <time>2014-03-21T13:25:30Z</time>
      </trkpt>
      <trkpt lat="43.72833" lon="7.04121">
        <ele>829.525</ele>
        <time>2014-03-21T13:25:34Z</time>
      </trkpt>
      <trkpt lat="43.7284" lon="7.04123">
        <ele>831.177</ele>
        <time>2014-03-21T13:25:38Z</time>
      </trkpt>
      <trkpt lat="43.72862" lon="7.04129">
        <ele>834.635</ele>
        <time>2014-03-21T13:25:50Z</time>
      </trkpt>
      <trkpt lat="43.72874" lon="7.04131">
        <ele>834.822</ele>
        <time>2014-03-21T13:25:56Z</time>
      </trkpt>
      <trkpt lat="43.72894" lon="7.04132">
        <ele>834.52</ele>
        <time>2014-03-21T13:26:04Z</time>
      </trkpt>
      <trkpt lat="43.72912" lon="7.04131">
        <ele>831.999</ele>
        <time>2014-03-21T13:26:10Z</time>
      </trkpt>
      <trkpt lat="43.72938" lon="7.04134">
        <ele>830.039</ele>
        <time>2014-03-21T13:26:15Z</time>
      </trkpt>
      <trkpt lat="43.72944" lon="7.04134">
        <ele>830.03</ele>
        <time>2014-03-21T13:26:16Z</time>
      </trkpt>
      <trkpt lat="43.72958" lon="7.04146">
        <ele>829.616</ele>
        <time>2014-03-21T13:26:20Z</time>
      </trkpt>
      <trkpt lat="43.72959" lon="7.04167">
        <ele>833.179</ele>
        <time>2014-03-21T13:26:27Z</time>
      </trkpt>
      <trkpt lat="43.72953" lon="7.04187">
        <ele>836.87</ele>
        <time>2014-03-21T13:26:35Z</time>
      </trkpt>
      <trkpt lat="43.72949" lon="7.04204">
        <ele>839.838</ele>
        <time>2014-03-21T13:26:42Z</time>
      </trkpt>
      <trkpt lat="43.72948" lon="7.04223">
        <ele>841.692</ele>
        <time>2014-03-21T13:26:48Z</time>
      </trkpt>
      <trkpt lat="43.72948" lon="7.04245">
        <ele>842.881</ele>
        <time>2014-03-21T13:26:53Z</time>
      </trkpt>
      <trkpt lat="43.72948" lon="7.04269">
        <ele>842.822</ele>
        <time>2014-03-21T13:26:59Z</time>
      </trkpt>
      <trkpt lat="43.72944" lon="7.0429">
        <ele>844.065</ele>
        <time>2014-03-21T13:27:05Z</time>
      </trkpt>
      <trkpt lat="43.72944" lon="7.04311">
        <ele>844.135</ele>
        <time>2014-03-21T13:27:11Z</time>
      </trkpt>
      <trkpt lat="43.72944" lon="7.04336">
        <ele>844.905</ele>
        <time>2014-03-21T13:27:19Z</time>
      </trkpt>
      <trkpt lat="43.72944" lon="7.04362">
        <ele>845.303</ele>
        <time>2014-03-21T13:27:27Z</time>
      </trkpt>
      <trkpt lat="43.72945" lon="7.04385">
        <ele>846.315</ele>
        <time>2014-03-21T13:27:34Z</time>
      </trkpt>
      <trkpt lat="43.72944" lon="7.0441">
        <ele>848.498</ele>
        <time>2014-03-21T13:27:42Z</time>
      </trkpt>
      <trkpt lat="43.72945" lon="7.04432">
        <ele>850.366</ele>
        <time>2014-03-21T13:27:49Z</time>
      </trkpt>
      <trkpt lat="43.72941" lon="7.04461">
        <ele>850.92</ele>
        <time>2014-03-21T13:27:55Z</time>
      </trkpt>
      <trkpt lat="43.72936" lon="7.04485">
        <ele>850.953</ele>
        <time>2014-03-21T13:28:01Z</time>
      </trkpt>
      <trkpt lat="43.72931" lon="7.04508">
        <ele>851.724</ele>
        <time>2014-03-21T13:28:07Z</time>
      </trkpt>
      <trkpt lat="43.72931" lon="7.04512">
        <ele>851.915</ele>
        <time>2014-03-21T13:28:08Z</time>
      </trkpt>
      <trkpt lat="43.7294" lon="7.04523">
        <ele>851.892</ele>
        <time>2014-03-21T13:28:14Z</time>
      </trkpt>
      <trkpt lat="43.72952" lon="7.04526">
        <ele>852.183</ele>
        <time>2014-03-21T13:28:20Z</time>
      </trkpt>
      <trkpt lat="43.72964" lon="7.04528">
        <ele>851.923</ele>
        <time>2014-03-21T13:28:26Z</time>
      </trkpt>
      <trkpt lat="43.72983" lon="7.04534">
        <ele>852.454</ele>
        <time>2014-03-21T13:28:35Z</time>
      </trkpt>
      <trkpt lat="43.72986" lon="7.04536">
        <ele>852.488</ele>
        <time>2014-03-21T13:28:37Z</time>
      </trkpt>
      <trkpt lat="43.72996" lon="7.04538">
        <ele>853.283</ele>
        <time>2014-03-21T13:28:42Z</time>
      </trkpt>
      <trkpt lat="43.73012" lon="7.04541">
        <ele>854.682</ele>
        <time>2014-03-21T13:28:52Z</time>
      </trkpt>
      <trkpt lat="43.73025" lon="7.04544">
        <ele>856.243</ele>
        <time>2014-03-21T13:29:00Z</time>
      </trkpt>
      <trkpt lat="43.73031" lon="7.04544">
        <ele>857.585</ele>
        <time>2014-03-21T13:29:04Z</time>
      </trkpt>
      <trkpt lat="43.73045" lon="7.04545">
        <ele>859.753</ele>
        <time>2014-03-21T13:29:12Z</time>
      </trkpt>
      <trkpt lat="43.73047" lon="7.04546">
        <ele>860.322</ele>
        <time>2014-03-21T13:29:14Z</time>
      </trkpt>
      <trkpt lat="43.73058" lon="7.04546">
        <ele>862.293</ele>
        <time>2014-03-21T13:29:22Z</time>
      </trkpt>
      <trkpt lat="43.73065" lon="7.04548">
        <ele>863.547</ele>
        <time>2014-03-21T13:29:27Z</time>
      </trkpt>
      <trkpt lat="43.73067" lon="7.04548">
        <ele>863.976</ele>
        <time>2014-03-21T13:29:28Z</time>
      </trkpt>
      <trkpt lat="43.73078" lon="7.04549">
        <ele>865.429</ele>
        <time>2014-03-21T13:29:35Z</time>
      </trkpt>
      <trkpt lat="43.73079" lon="7.04549">
        <ele>865.519</ele>
        <time>2014-03-21T13:29:36Z</time>
      </trkpt>
      <trkpt lat="43.7309" lon="7.04553">
        <ele>866.719</ele>
        <time>2014-03-21T13:29:45Z</time>
      </trkpt>
      <trkpt lat="43.731" lon="7.04554">
        <ele>867.769</ele>
        <time>2014-03-21T13:29:52Z</time>
      </trkpt>
      <trkpt lat="43.73112" lon="7.04559">
        <ele>869.742</ele>
        <time>2014-03-21T13:30:01Z</time>
      </trkpt>
      <trkpt lat="43.73121" lon="7.04563">
        <ele>871.522</ele>
        <time>2014-03-21T13:30:08Z</time>
      </trkpt>
      <trkpt lat="43.73127" lon="7.04566">
        <ele>872.516</ele>
        <time>2014-03-21T13:30:13Z</time>
      </trkpt>
      <trkpt lat="43.73136" lon="7.04564">
        <ele>873.638</ele>
        <time>2014-03-21T13:30:20Z</time>
      </trkpt>
      <trkpt lat="43.73149" lon="7.04569">
        <ele>875.857</ele>
        <time>2014-03-21T13:30:30Z</time>
      </trkpt>
      <trkpt lat="43.73158" lon="7.04575">
        <ele>877.316</ele>
        <time>2014-03-21T13:30:38Z</time>
      </trkpt>
      <trkpt lat="43.73171" lon="7.0458">
        <ele>879.018</ele>
        <time>2014-03-21T13:30:48Z</time>
      </trkpt>
      <trkpt lat="43.73182" lon="7.04588">
        <ele>881.929</ele>
        <time>2014-03-21T13:30:57Z</time>
      </trkpt>
      <trkpt lat="43.73195" lon="7.04601">
        <ele>882.479</ele>
        <time>2014-03-21T13:31:04Z</time>
      </trkpt>
      <trkpt lat="43.73206" lon="7.04607">
        <ele>882.606</ele>
        <time>2014-03-21T13:31:09Z</time>
      </trkpt>
      <trkpt lat="43.73221" lon="7.0461">
        <ele>882.552</ele>
        <time>2014-03-21T13:31:16Z</time>
      </trkpt>
      <trkpt lat="43.73241" lon="7.04615">
        <ele>882.522</ele>
        <time>2014-03-21T13:31:25Z</time>
      </trkpt>
      <trkpt lat="43.73259" lon="7.04617">
        <ele>881.895</ele>
        <time>2014-03-21T13:31:33Z</time>
      </trkpt>
      <trkpt lat="43.7327" lon="7.04617">
        <ele>883.334</ele>
        <time>2014-03-21T13:31:39Z</time>
      </trkpt>
      <trkpt lat="43.73278" lon="7.04612">
        <ele>883.26</ele>
        <time>2014-03-21T13:31:44Z</time>
      </trkpt>
      <trkpt lat="43.73288" lon="7.04607">
        <ele>882.461</ele>
        <time>2014-03-21T13:31:49Z</time>
      </trkpt>
      <trkpt lat="43.73294" lon="7.04599">
        <ele>883.387</ele>
        <time>2014-03-21T13:31:54Z</time>
      </trkpt>
      <trkpt lat="43.73301" lon="7.04594">
        <ele>884.698</ele>
        <time>2014-03-21T13:32:00Z</time>
      </trkpt>
      <trkpt lat="43.73302" lon="7.04593">
        <ele>884.555</ele>
        <time>2014-03-21T13:32:08Z</time>
      </trkpt>
      <trkpt lat="43.73303" lon="7.04592">
        <ele>884.61</ele>
        <time>2014-03-21T13:32:13Z</time>
      </trkpt>
      <trkpt lat="43.73306" lon="7.0459">
        <ele>885.313</ele>
        <time>2014-03-21T13:32:18Z</time>
      </trkpt>
      <trkpt lat="43.73309" lon="7.04587">
        <ele>886.285</ele>
        <time>2014-03-21T13:32:23Z</time>
      </trkpt>
      <trkpt lat="43.73313" lon="7.04587">
        <ele>887.23</ele>
        <time>2014-03-21T13:32:27Z</time>
      </trkpt>
      <trkpt lat="43.73315" lon="7.04582">
        <ele>887.36</ele>
        <time>2014-03-21T13:32:34Z</time>
      </trkpt>
      <trkpt lat="43.73316" lon="7.04582">
        <ele>887.259</ele>
        <time>2014-03-21T13:32:36Z</time>
      </trkpt>
      <trkpt lat="43.73322" lon="7.04579">
        <ele>889.089</ele>
        <time>2014-03-21T13:32:43Z</time>
      </trkpt>
      <trkpt lat="43.73327" lon="7.04575">
        <ele>889.716</ele>
        <time>2014-03-21T13:32:50Z</time>
      </trkpt>
      <trkpt lat="43.73331" lon="7.0457">
        <ele>890.074</ele>
        <time>2014-03-21T13:32:56Z</time>
      </trkpt>
      <trkpt lat="43.7334" lon="7.04568">
        <ele>891.813</ele>
        <time>2014-03-21T13:33:04Z</time>
      </trkpt>
      <trkpt lat="43.73344" lon="7.04576">
        <ele>892.807</ele>
        <time>2014-03-21T13:33:10Z</time>
      </trkpt>
      <trkpt lat="43.73348" lon="7.04583">
        <ele>894.168</ele>
        <time>2014-03-21T13:33:17Z</time>
      </trkpt>
      <trkpt lat="43.7335" lon="7.04588">
        <ele>894.426</ele>
        <time>2014-03-21T13:33:22Z</time>
      </trkpt>
      <trkpt lat="43.73353" lon="7.04591">
        <ele>894.855</ele>
        <time>2014-03-21T13:33:27Z</time>
      </trkpt>
      <trkpt lat="43.73359" lon="7.04602">
        <ele>895.213</ele>
        <time>2014-03-21T13:33:33Z</time>
      </trkpt>
      <trkpt lat="43.73363" lon="7.04618">
        <ele>895.683</ele>
        <time>2014-03-21T13:33:40Z</time>
      </trkpt>
      <trkpt lat="43.73363" lon="7.0462">
        <ele>895.875</ele>
        <time>2014-03-21T13:33:41Z</time>
      </trkpt>
      <trkpt lat="43.73364" lon="7.04625">
        <ele>896.265</ele>
        <time>2014-03-21T13:33:43Z</time>
      </trkpt>
      <trkpt lat="43.7337" lon="7.04645">
        <ele>899.515</ele>
        <time>2014-03-21T13:33:51Z</time>
      </trkpt>
      <trkpt lat="43.73376" lon="7.0466">
        <ele>900.734</ele>
        <time>2014-03-21T13:33:58Z</time>
      </trkpt>
      <trkpt lat="43.73383" lon="7.04673">
        <ele>901.983</ele>
        <time>2014-03-21T13:34:04Z</time>
      </trkpt>
      <trkpt lat="43.73391" lon="7.0469">
        <ele>901.217</ele>
        <time>2014-03-21T13:34:11Z</time>
      </trkpt>
      <trkpt lat="43.73404" lon="7.04709">
        <ele>900.411</ele>
        <time>2014-03-21T13:34:19Z</time>
      </trkpt>
      <trkpt lat="43.73419" lon="7.04723">
        <ele>899.369</ele>
        <time>2014-03-21T13:34:26Z</time>
      </trkpt>
      <trkpt lat="43.73429" lon="7.04733">
        <ele>898.583</ele>
        <time>2014-03-21T13:34:31Z</time>
      </trkpt>
      <trkpt lat="43.73441" lon="7.04742">
        <ele>897.303</ele>
        <time>2014-03-21T13:34:36Z</time>
      </trkpt>
      <trkpt lat="43.73457" lon="7.04753">
        <ele>895.99</ele>
        <time>2014-03-21T13:34:42Z</time>
      </trkpt>
      <trkpt lat="43.73464" lon="7.04762">
        <ele>895.001</ele>
        <time>2014-03-21T13:34:48Z</time>
      </trkpt>
      <trkpt lat="43.73474" lon="7.04778">
        <ele>894.669</ele>
        <time>2014-03-21T13:34:54Z</time>
      </trkpt>
      <trkpt lat="43.73483" lon="7.04791">
        <ele>894.877</ele>
        <time>2014-03-21T13:35:00Z</time>
      </trkpt>
      <trkpt lat="43.73495" lon="7.04799">
        <ele>895.647</ele>
        <time>2014-03-21T13:35:06Z</time>
      </trkpt>
      <trkpt lat="43.73506" lon="7.048">
        <ele>896.988</ele>
        <time>2014-03-21T13:35:13Z</time>
      </trkpt>
      <trkpt lat="43.73518" lon="7.04801">
        <ele>898.657</ele>
        <time>2014-03-21T13:35:20Z</time>
      </trkpt>
      <trkpt lat="43.73522" lon="7.048">
        <ele>899.822</ele>
        <time>2014-03-21T13:35:24Z</time>
      </trkpt>
      <trkpt lat="43.73528" lon="7.04802">
        <ele>901.221</ele>
        <time>2014-03-21T13:35:30Z</time>
      </trkpt>
      <trkpt lat="43.73536" lon="7.04803">
        <ele>903.27</ele>
        <time>2014-03-21T13:35:37Z</time>
      </trkpt>
      <trkpt lat="43.73543" lon="7.04806">
        <ele>904.363</ele>
        <time>2014-03-21T13:35:45Z</time>
      </trkpt>
      <trkpt lat="43.73544" lon="7.04806">
        <ele>903.857</ele>
        <time>2014-03-21T13:35:49Z</time>
      </trkpt>
      <trkpt lat="43.73552" lon="7.04807">
        <ele>903.738</ele>
        <time>2014-03-21T13:35:55Z</time>
      </trkpt>
      <trkpt lat="43.73564" lon="7.0481">
        <ele>904.172</ele>
        <time>2014-03-21T13:36:02Z</time>
      </trkpt>
      <trkpt lat="43.7357" lon="7.0482">
        <ele>906.061</ele>
        <time>2014-03-21T13:36:07Z</time>
      </trkpt>
      <trkpt lat="43.73572" lon="7.0483">
        <ele>908.365</ele>
        <time>2014-03-21T13:36:11Z</time>
      </trkpt>
      <trkpt lat="43.73574" lon="7.04836">
        <ele>909.607</ele>
        <time>2014-03-21T13:36:14Z</time>
      </trkpt>
      <trkpt lat="43.73578" lon="7.04854">
        <ele>912.581</ele>
        <time>2014-03-21T13:36:22Z</time>
      </trkpt>
      <trkpt lat="43.73583" lon="7.04869">
        <ele>914.879</ele>
        <time>2014-03-21T13:36:29Z</time>
      </trkpt>
      <trkpt lat="43.73587" lon="7.0488">
        <ele>916.404</ele>
        <time>2014-03-21T13:36:35Z</time>
      </trkpt>
      <trkpt lat="43.73595" lon="7.04887">
        <ele>917.654</ele>
        <time>2014-03-21T13:36:40Z</time>
      </trkpt>
      <trkpt lat="43.73596" lon="7.04888">
        <ele>918.537</ele>
        <time>2014-03-21T13:36:45Z</time>
      </trkpt>
      <trkpt lat="43.73595" lon="7.04888">
        <ele>918.897</ele>
        <time>2014-03-21T13:36:57Z</time>
      </trkpt>
      <trkpt lat="43.73598" lon="7.04888">
        <ele>918.425</ele>
        <time>2014-03-21T13:37:04Z</time>
      </trkpt>
      <trkpt lat="43.736" lon="7.04889">
        <ele>920.005</ele>
        <time>2014-03-21T13:37:29Z</time>
      </trkpt>
      <trkpt lat="43.73601" lon="7.04889">
        <ele>920.217</ele>
        <time>2014-03-21T13:37:33Z</time>
      </trkpt>
      <trkpt lat="43.73603" lon="7.04886">
        <ele>920.108</ele>
        <time>2014-03-21T13:37:38Z</time>
      </trkpt>
      <trkpt lat="43.73606" lon="7.04889">
        <ele>924.03</ele>
        <time>2014-03-21T13:37:47Z</time>
      </trkpt>
      <trkpt lat="43.73608" lon="7.0489">
        <ele>924.752</ele>
        <time>2014-03-21T13:37:50Z</time>
      </trkpt>
      <trkpt lat="43.73615" lon="7.04896">
        <ele>925.896</ele>
        <time>2014-03-21T13:37:59Z</time>
      </trkpt>
      <trkpt lat="43.73621" lon="7.04897">
        <ele>925.161</ele>
        <time>2014-03-21T13:38:05Z</time>
      </trkpt>
      <trkpt lat="43.73624" lon="7.04899">
        <ele>925.531</ele>
        <time>2014-03-21T13:38:09Z</time>
      </trkpt>
      <trkpt lat="43.73628" lon="7.04907">
        <ele>925.309</ele>
        <time>2014-03-21T13:38:16Z</time>
      </trkpt>
      <trkpt lat="43.73632" lon="7.04908">
        <ele>924.857</ele>
        <time>2014-03-21T13:38:22Z</time>
      </trkpt>
      <trkpt lat="43.73637" lon="7.04908">
        <ele>925.385</ele>
        <time>2014-03-21T13:38:30Z</time>
      </trkpt>
      <trkpt lat="43.73639" lon="7.0491">
        <ele>926.076</ele>
        <time>2014-03-21T13:38:36Z</time>
      </trkpt>
      <trkpt lat="43.73643" lon="7.04919">
        <ele>925.348</ele>
        <time>2014-03-21T13:38:43Z</time>
      </trkpt>
      <trkpt lat="43.73645" lon="7.04928">
        <ele>925.03</ele>
        <time>2014-03-21T13:38:50Z</time>
      </trkpt>
      <trkpt lat="43.73646" lon="7.04928">
        <ele>924.712</ele>
        <time>2014-03-21T13:38:52Z</time>
      </trkpt>
      <trkpt lat="43.73647" lon="7.04929">
        <ele>925.052</ele>
        <time>2014-03-21T13:38:59Z</time>
      </trkpt>
      <trkpt lat="43.73648" lon="7.0493">
        <ele>925.806</ele>
        <time>2014-03-21T13:39:05Z</time>
      </trkpt>
      <trkpt lat="43.73646" lon="7.04928">
        <ele>926.152</ele>
        <time>2014-03-21T13:39:24Z</time>
      </trkpt>
      <trkpt lat="43.73644" lon="7.04924">
        <ele>926.756</ele>
        <time>2014-03-21T13:39:30Z</time>
      </trkpt>
      <trkpt lat="43.73643" lon="7.04923">
        <ele>926.096</ele>
        <time>2014-03-21T13:39:35Z</time>
      </trkpt>
      <trkpt lat="43.73643" lon="7.04922">
        <ele>926.004</ele>
        <time>2014-03-21T13:39:37Z</time>
      </trkpt>
      <trkpt lat="43.73642" lon="7.04914">
        <ele>926.415</ele>
        <time>2014-03-21T13:39:44Z</time>
      </trkpt>
      <trkpt lat="43.73639" lon="7.04912">
        <ele>926.472</ele>
        <time>2014-03-21T13:39:50Z</time>
      </trkpt>
      <trkpt lat="43.73638" lon="7.04909">
        <ele>925.419</ele>
        <time>2014-03-21T13:39:56Z</time>
      </trkpt>
      <trkpt lat="43.73634" lon="7.04908">
        <ele>924.198</ele>
        <time>2014-03-21T13:40:04Z</time>
      </trkpt>
      <trkpt lat="43.73633" lon="7.04908">
        <ele>924.443</ele>
        <time>2014-03-21T13:40:05Z</time>
      </trkpt>
      <trkpt lat="43.73632" lon="7.04907">
        <ele>923.796</ele>
        <time>2014-03-21T13:40:09Z</time>
      </trkpt>
      <trkpt lat="43.73627" lon="7.04906">
        <ele>922.387</ele>
        <time>2014-03-21T13:40:14Z</time>
      </trkpt>
      <trkpt lat="43.73624" lon="7.04903">
        <ele>921.35</ele>
        <time>2014-03-21T13:40:17Z</time>
      </trkpt>
      <trkpt lat="43.73616" lon="7.04896">
        <ele>917.862</ele>
        <time>2014-03-21T13:40:26Z</time>
      </trkpt>
      <trkpt lat="43.73607" lon="7.04891">
        <ele>914.931</ele>
        <time>2014-03-21T13:40:34Z</time>
      </trkpt>
      <trkpt lat="43.73602" lon="7.0489">
        <ele>914.018</ele>
        <time>2014-03-21T13:40:40Z</time>
      </trkpt>
      <trkpt lat="43.73601" lon="7.0489">
        <ele>913.685</ele>
        <time>2014-03-21T13:40:42Z</time>
      </trkpt>
      <trkpt lat="43.73599" lon="7.04891">
        <ele>913.401</ele>
        <time>2014-03-21T13:40:47Z</time>
      </trkpt>
      <trkpt lat="43.73595" lon="7.04889">
        <ele>911.971</ele>
        <time>2014-03-21T13:40:51Z</time>
      </trkpt>
      <trkpt lat="43.7359" lon="7.04894">
        <ele>909.773</ele>
        <time>2014-03-21T13:40:56Z</time>
      </trkpt>
      <trkpt lat="43.7359" lon="7.04897">
        <ele>909.843</ele>
        <time>2014-03-21T13:40:58Z</time>
      </trkpt>
      <trkpt lat="43.73596" lon="7.04908">
        <ele>910.052</ele>
        <time>2014-03-21T13:41:05Z</time>
      </trkpt>
      <trkpt lat="43.73598" lon="7.04909">
        <ele>909.974</ele>
        <time>2014-03-21T13:41:06Z</time>
      </trkpt>
      <trkpt lat="43.73599" lon="7.0491">
        <ele>909.659</ele>
        <time>2014-03-21T13:41:09Z</time>
      </trkpt>
      <trkpt lat="43.73602" lon="7.0492">
        <ele>910.042</ele>
        <time>2014-03-21T13:41:15Z</time>
      </trkpt>
      <trkpt lat="43.73608" lon="7.04932">
        <ele>910.365</ele>
        <time>2014-03-21T13:41:21Z</time>
      </trkpt>
      <trkpt lat="43.73612" lon="7.0494">
        <ele>910.745</ele>
        <time>2014-03-21T13:41:25Z</time>
      </trkpt>
      <trkpt lat="43.73613" lon="7.0495">
        <ele>911.634</ele>
        <time>2014-03-21T13:41:30Z</time>
      </trkpt>
      <trkpt lat="43.73617" lon="7.04955">
        <ele>912.211</ele>
        <time>2014-03-21T13:41:34Z</time>
      </trkpt>
      <trkpt lat="43.73617" lon="7.04956">
        <ele>912.362</ele>
        <time>2014-03-21T13:41:35Z</time>
      </trkpt>
      <trkpt lat="43.73618" lon="7.04962">
        <ele>913.39</ele>
        <time>2014-03-21T13:41:42Z</time>
      </trkpt>
      <trkpt lat="43.7362" lon="7.04966">
        <ele>913.632</ele>
        <time>2014-03-21T13:41:45Z</time>
      </trkpt>
      <trkpt lat="43.73623" lon="7.04974">
        <ele>914.056</ele>
        <time>2014-03-21T13:41:53Z</time>
      </trkpt>
      <trkpt lat="43.73623" lon="7.04975">
        <ele>914.344</ele>
        <time>2014-03-21T13:41:57Z</time>
      </trkpt>
      <trkpt lat="43.73627" lon="7.04985">
        <ele>914.562</ele>
        <time>2014-03-21T13:42:05Z</time>
      </trkpt>
      <trkpt lat="43.73627" lon="7.04986">
        <ele>915.158</ele>
        <time>2014-03-21T13:42:10Z</time>
      </trkpt>
      <trkpt lat="43.73627" lon="7.0498">
        <ele>913.224</ele>
        <time>2014-03-21T13:42:17Z</time>
      </trkpt>
      <trkpt lat="43.73627" lon="7.0498">
        <ele>913.026</ele>
        <time>2014-03-21T13:42:19Z</time>
      </trkpt>
      <trkpt lat="43.73625" lon="7.04978">
        <ele>912.976</ele>
        <time>2014-03-21T13:42:21Z</time>
      </trkpt>
      <trkpt lat="43.73627" lon="7.04973">
        <ele>913.639</ele>
        <time>2014-03-21T13:42:27Z</time>
      </trkpt>
      <trkpt lat="43.7363" lon="7.04972">
        <ele>915.493</ele>
        <time>2014-03-21T13:42:33Z</time>
      </trkpt>
      <trkpt lat="43.73631" lon="7.04974">
        <ele>916.528</ele>
        <time>2014-03-21T13:42:37Z</time>
      </trkpt>
      <trkpt lat="43.73635" lon="7.04978">
        <ele>917.31</ele>
        <time>2014-03-21T13:42:42Z</time>
      </trkpt>
      <trkpt lat="43.73638" lon="7.04983">
        <ele>918.238</ele>
        <time>2014-03-21T13:42:46Z</time>
      </trkpt>
      <trkpt lat="43.73642" lon="7.04988">
        <ele>918.537</ele>
        <time>2014-03-21T13:42:51Z</time>
      </trkpt>
      <trkpt lat="43.73649" lon="7.0499">
        <ele>920.098</ele>
        <time>2014-03-21T13:42:59Z</time>
      </trkpt>
      <trkpt lat="43.73655" lon="7.04991">
        <ele>920.637</ele>
        <time>2014-03-21T13:43:06Z</time>
      </trkpt>
      <trkpt lat="43.73661" lon="7.04994">
        <ele>921.146</ele>
        <time>2014-03-21T13:43:15Z</time>
      </trkpt>
      <trkpt lat="43.73661" lon="7.04992">
        <ele>919.206</ele>
        <time>2014-03-21T13:43:37Z</time>
      </trkpt>
      <trkpt lat="43.7366" lon="7.04992">
        <ele>917.594</ele>
        <time>2014-03-21T13:43:57Z</time>
      </trkpt>
      <trkpt lat="43.73663" lon="7.04994">
        <ele>918.362</ele>
        <time>2014-03-21T13:44:02Z</time>
      </trkpt>
      <trkpt lat="43.73667" lon="7.04998">
        <ele>918.819</ele>
        <time>2014-03-21T13:44:07Z</time>
      </trkpt>
      <trkpt lat="43.73673" lon="7.05001">
        <ele>919.298</ele>
        <time>2014-03-21T13:44:15Z</time>
      </trkpt>
      <trkpt lat="43.73676" lon="7.04995">
        <ele>920.049</ele>
        <time>2014-03-21T13:44:22Z</time>
      </trkpt>
      <trkpt lat="43.73676" lon="7.04993">
        <ele>920.336</ele>
        <time>2014-03-21T13:44:24Z</time>
      </trkpt>
      <trkpt lat="43.73673" lon="7.04985">
        <ele>920.894</ele>
        <time>2014-03-21T13:44:31Z</time>
      </trkpt>
      <trkpt lat="43.73674" lon="7.04984">
        <ele>921.624</ele>
        <time>2014-03-21T13:44:36Z</time>
      </trkpt>
      <trkpt lat="43.73675" lon="7.04985">
        <ele>921.866</ele>
        <time>2014-03-21T13:44:37Z</time>
      </trkpt>
      <trkpt lat="43.73681" lon="7.04996">
        <ele>924.776</ele>
        <time>2014-03-21T13:44:47Z</time>
      </trkpt>
      <trkpt lat="43.73682" lon="7.05004">
        <ele>927.069</ele>
        <time>2014-03-21T13:44:52Z</time>
      </trkpt>
      <trkpt lat="43.73687" lon="7.05002">
        <ele>928.01</ele>
        <time>2014-03-21T13:44:59Z</time>
      </trkpt>
      <trkpt lat="43.73691" lon="7.04998">
        <ele>929.426</ele>
        <time>2014-03-21T13:45:07Z</time>
      </trkpt>
      <trkpt lat="43.73692" lon="7.04999">
        <ele>929.557</ele>
        <time>2014-03-21T13:45:08Z</time>
      </trkpt>
      <trkpt lat="43.73695" lon="7.05002">
        <ele>930.34</ele>
        <time>2014-03-21T13:45:13Z</time>
      </trkpt>
      <trkpt lat="43.73697" lon="7.05001">
        <ele>930.889</ele>
        <time>2014-03-21T13:45:15Z</time>
      </trkpt>
      <trkpt lat="43.73697" lon="7.04999">
        <ele>931.482</ele>
        <time>2014-03-21T13:45:17Z</time>
      </trkpt>
      <trkpt lat="43.73695" lon="7.04992">
        <ele>933.641</ele>
        <time>2014-03-21T13:45:23Z</time>
      </trkpt>
      <trkpt lat="43.73694" lon="7.04985">
        <ele>935.806</ele>
        <time>2014-03-21T13:45:31Z</time>
      </trkpt>
      <trkpt lat="43.73697" lon="7.04987">
        <ele>936.425</ele>
        <time>2014-03-21T13:45:35Z</time>
      </trkpt>
      <trkpt lat="43.73703" lon="7.04991">
        <ele>937.838</ele>
        <time>2014-03-21T13:45:42Z</time>
      </trkpt>
      <trkpt lat="43.73705" lon="7.04991">
        <ele>938.488</ele>
        <time>2014-03-21T13:45:44Z</time>
      </trkpt>
      <trkpt lat="43.73707" lon="7.04983">
        <ele>940.027</ele>
        <time>2014-03-21T13:45:52Z</time>
      </trkpt>
      <trkpt lat="43.7371" lon="7.0498">
        <ele>941.137</ele>
        <time>2014-03-21T13:45:59Z</time>
      </trkpt>
      <trkpt lat="43.73712" lon="7.04981">
        <ele>941.307</ele>
        <time>2014-03-21T13:46:01Z</time>
      </trkpt>
      <trkpt lat="43.73713" lon="7.04975">
        <ele>942.167</ele>
        <time>2014-03-21T13:46:07Z</time>
      </trkpt>
      <trkpt lat="43.73714" lon="7.04968">
        <ele>943.135</ele>
        <time>2014-03-21T13:46:14Z</time>
      </trkpt>
      <trkpt lat="43.73714" lon="7.04969">
        <ele>943.125</ele>
        <time>2014-03-21T13:46:15Z</time>
      </trkpt>
      <trkpt lat="43.7372" lon="7.04971">
        <ele>945.469</ele>
        <time>2014-03-21T13:46:23Z</time>
      </trkpt>
      <trkpt lat="43.73723" lon="7.04969">
        <ele>946.578</ele>
        <time>2014-03-21T13:46:27Z</time>
      </trkpt>
      <trkpt lat="43.73722" lon="7.04962">
        <ele>947.616</ele>
        <time>2014-03-21T13:46:33Z</time>
      </trkpt>
      <trkpt lat="43.73724" lon="7.04959">
        <ele>947.908</ele>
        <time>2014-03-21T13:46:39Z</time>
      </trkpt>
      <trkpt lat="43.73724" lon="7.04959">
        <ele>947.987</ele>
        <time>2014-03-21T13:46:40Z</time>
      </trkpt>
      <trkpt lat="43.7373" lon="7.04963">
        <ele>949.616</ele>
        <time>2014-03-21T13:46:48Z</time>
      </trkpt>
      <trkpt lat="43.73732" lon="7.04964">
        <ele>949.853</ele>
        <time>2014-03-21T13:46:50Z</time>
      </trkpt>
      <trkpt lat="43.73736" lon="7.04968">
        <ele>950.126</ele>
        <time>2014-03-21T13:46:57Z</time>
      </trkpt>
      <trkpt lat="43.73743" lon="7.04968">
        <ele>950.536</ele>
        <time>2014-03-21T13:47:05Z</time>
      </trkpt>
      <trkpt lat="43.73741" lon="7.04961">
        <ele>951.617</ele>
        <time>2014-03-21T13:47:12Z</time>
      </trkpt>
      <trkpt lat="43.73742" lon="7.04957">
        <ele>952.286</ele>
        <time>2014-03-21T13:47:17Z</time>
      </trkpt>
      <trkpt lat="43.73746" lon="7.04954">
        <ele>952.816</ele>
        <time>2014-03-21T13:47:23Z</time>
      </trkpt>
      <trkpt lat="43.73751" lon="7.04955">
        <ele>953.666</ele>
        <time>2014-03-21T13:47:31Z</time>
      </trkpt>
      <trkpt lat="43.73758" lon="7.0496">
        <ele>954.667</ele>
        <time>2014-03-21T13:47:41Z</time>
      </trkpt>
      <trkpt lat="43.73765" lon="7.04962">
        <ele>955.887</ele>
        <time>2014-03-21T13:47:50Z</time>
      </trkpt>
      <trkpt lat="43.7377" lon="7.04963">
        <ele>956.977</ele>
        <time>2014-03-21T13:47:57Z</time>
      </trkpt>
      <trkpt lat="43.7377" lon="7.04963">
        <ele>957.066</ele>
        <time>2014-03-21T13:47:58Z</time>
      </trkpt>
      <trkpt lat="43.73775" lon="7.04962">
        <ele>958.548</ele>
        <time>2014-03-21T13:48:05Z</time>
      </trkpt>
      <trkpt lat="43.73778" lon="7.04962">
        <ele>959.477</ele>
        <time>2014-03-21T13:48:11Z</time>
      </trkpt>
      <trkpt lat="43.73781" lon="7.04964">
        <ele>960.566</ele>
        <time>2014-03-21T13:48:17Z</time>
      </trkpt>
      <trkpt lat="43.73787" lon="7.04964">
        <ele>961.916</ele>
        <time>2014-03-21T13:48:25Z</time>
      </trkpt>
      <trkpt lat="43.73792" lon="7.04966">
        <ele>963.226</ele>
        <time>2014-03-21T13:48:33Z</time>
      </trkpt>
      <trkpt lat="43.73797" lon="7.04965">
        <ele>964.877</ele>
        <time>2014-03-21T13:48:41Z</time>
      </trkpt>
      <trkpt lat="43.73801" lon="7.04966">
        <ele>966.198</ele>
        <time>2014-03-21T13:48:47Z</time>
      </trkpt>
      <trkpt lat="43.73805" lon="7.04968">
        <ele>967.186</ele>
        <time>2014-03-21T13:48:54Z</time>
      </trkpt>
      <trkpt lat="43.73809" lon="7.04969">
        <ele>968.377</ele>
        <time>2014-03-21T13:49:01Z</time>
      </trkpt>
      <trkpt lat="43.73815" lon="7.04972">
        <ele>970.107</ele>
        <time>2014-03-21T13:49:10Z</time>
      </trkpt>
      <trkpt lat="43.73819" lon="7.04978">
        <ele>970.845</ele>
        <time>2014-03-21T13:49:17Z</time>
      </trkpt>
      <trkpt lat="43.73824" lon="7.04981">
        <ele>971.887</ele>
        <time>2014-03-21T13:49:24Z</time>
      </trkpt>
      <trkpt lat="43.7383" lon="7.04985">
        <ele>973.006</ele>
        <time>2014-03-21T13:49:32Z</time>
      </trkpt>
      <trkpt lat="43.73835" lon="7.04989">
        <ele>973.795</ele>
        <time>2014-03-21T13:49:40Z</time>
      </trkpt>
      <trkpt lat="43.73838" lon="7.0499">
        <ele>974.518</ele>
        <time>2014-03-21T13:49:44Z</time>
      </trkpt>
      <trkpt lat="43.73842" lon="7.04991">
        <ele>975.497</ele>
        <time>2014-03-21T13:49:50Z</time>
      </trkpt>
      <trkpt lat="43.73845" lon="7.04995">
        <ele>976.096</ele>
        <time>2014-03-21T13:49:55Z</time>
      </trkpt>
      <trkpt lat="43.7385" lon="7.05003">
        <ele>976.594</ele>
        <time>2014-03-21T13:50:04Z</time>
      </trkpt>
      <trkpt lat="43.73856" lon="7.0501">
        <ele>976.833</ele>
        <time>2014-03-21T13:50:13Z</time>
      </trkpt>
      <trkpt lat="43.73861" lon="7.05015">
        <ele>976.804</ele>
        <time>2014-03-21T13:50:21Z</time>
      </trkpt>
      <trkpt lat="43.73865" lon="7.05022">
        <ele>978.166</ele>
        <time>2014-03-21T13:50:29Z</time>
      </trkpt>
      <trkpt lat="43.73869" lon="7.05028">
        <ele>980.137</ele>
        <time>2014-03-21T13:50:36Z</time>
      </trkpt>
      <trkpt lat="43.73871" lon="7.05038">
        <ele>984.455</ele>
        <time>2014-03-21T13:50:43Z</time>
      </trkpt>
      <trkpt lat="43.73876" lon="7.05041">
        <ele>985.109</ele>
        <time>2014-03-21T13:50:50Z</time>
      </trkpt>
      <trkpt lat="43.73879" lon="7.05043">
        <ele>985.858</ele>
        <time>2014-03-21T13:50:55Z</time>
      </trkpt>
      <trkpt lat="43.73884" lon="7.05056">
        <ele>990.395</ele>
        <time>2014-03-21T13:51:06Z</time>
      </trkpt>
      <trkpt lat="43.7389" lon="7.05059">
        <ele>990.774</ele>
        <time>2014-03-21T13:51:14Z</time>
      </trkpt>
      <trkpt lat="43.73892" lon="7.05059">
        <ele>990.996</ele>
        <time>2014-03-21T13:51:17Z</time>
      </trkpt>
      <trkpt lat="43.73897" lon="7.05059">
        <ele>991.997</ele>
        <time>2014-03-21T13:51:25Z</time>
      </trkpt>
      <trkpt lat="43.73902" lon="7.05058">
        <ele>992.966</ele>
        <time>2014-03-21T13:51:33Z</time>
      </trkpt>
      <trkpt lat="43.73908" lon="7.05058">
        <ele>993.996</ele>
        <time>2014-03-21T13:51:41Z</time>
      </trkpt>
      <trkpt lat="43.73914" lon="7.05058">
        <ele>995.47</ele>
        <time>2014-03-21T13:51:50Z</time>
      </trkpt>
      <trkpt lat="43.7392" lon="7.05059">
        <ele>996.707</ele>
        <time>2014-03-21T13:51:58Z</time>
      </trkpt>
      <trkpt lat="43.73926" lon="7.0506">
        <ele>997.889</ele>
        <time>2014-03-21T13:52:06Z</time>
      </trkpt>
      <trkpt lat="43.73932" lon="7.05062">
        <ele>999.245</ele>
        <time>2014-03-21T13:52:14Z</time>
      </trkpt>
      <trkpt lat="43.73939" lon="7.05064">
        <ele>1000.936</ele>
        <time>2014-03-21T13:52:24Z</time>
      </trkpt>
      <trkpt lat="43.73945" lon="7.05067">
        <ele>1002.186</ele>
        <time>2014-03-21T13:52:32Z</time>
      </trkpt>
      <trkpt lat="43.73949" lon="7.0507">
        <ele>1003.527</ele>
        <time>2014-03-21T13:52:39Z</time>
      </trkpt>
      <trkpt lat="43.73954" lon="7.05073">
        <ele>1004.736</ele>
        <time>2014-03-21T13:52:46Z</time>
      </trkpt>
      <trkpt lat="43.73959" lon="7.05078">
        <ele>1005.866</ele>
        <time>2014-03-21T13:52:54Z</time>
      </trkpt>
      <trkpt lat="43.73964" lon="7.05081">
        <ele>1007.442</ele>
        <time>2014-03-21T13:53:02Z</time>
      </trkpt>
      <trkpt lat="43.73971" lon="7.05086">
        <ele>1009.448</ele>
        <time>2014-03-21T13:53:11Z</time>
      </trkpt>
      <trkpt lat="43.73974" lon="7.05088">
        <ele>1010.307</ele>
        <time>2014-03-21T13:53:16Z</time>
      </trkpt>
      <trkpt lat="43.73975" lon="7.05081">
        <ele>1014.308</ele>
        <time>2014-03-21T13:53:23Z</time>
      </trkpt>
      <trkpt lat="43.73976" lon="7.05078">
        <ele>1015.758</ele>
        <time>2014-03-21T13:53:28Z</time>
      </trkpt>
      <trkpt lat="43.73979" lon="7.05079">
        <ele>1015.886</ele>
        <time>2014-03-21T13:53:32Z</time>
      </trkpt>
      <trkpt lat="43.73985" lon="7.05082">
        <ele>1016.948</ele>
        <time>2014-03-21T13:53:40Z</time>
      </trkpt>
      <trkpt lat="43.73988" lon="7.05082">
        <ele>1017.367</ele>
        <time>2014-03-21T13:53:43Z</time>
      </trkpt>
      <trkpt lat="43.73994" lon="7.05078">
        <ele>1018.988</ele>
        <time>2014-03-21T13:53:52Z</time>
      </trkpt>
      <trkpt lat="43.73999" lon="7.0508">
        <ele>1020.288</ele>
        <time>2014-03-21T13:53:59Z</time>
      </trkpt>
      <trkpt lat="43.74004" lon="7.05081">
        <ele>1021.027</ele>
        <time>2014-03-21T13:54:06Z</time>
      </trkpt>
      <trkpt lat="43.74005" lon="7.05082">
        <ele>1022.156</ele>
        <time>2014-03-21T13:54:11Z</time>
      </trkpt>
      <trkpt lat="43.74003" lon="7.05081">
        <ele>1030.593</ele>
        <time>2014-03-21T14:00:37Z</time>
      </trkpt>
      <trkpt lat="43.74001" lon="7.0509">
        <ele>1029.813</ele>
        <time>2014-03-21T14:00:41Z</time>
      </trkpt>
      <trkpt lat="43.73995" lon="7.05107">
        <ele>1028.992</ele>
        <time>2014-03-21T14:00:47Z</time>
      </trkpt>
      <trkpt lat="43.73988" lon="7.05121">
        <ele>1029.911</ele>
        <time>2014-03-21T14:00:52Z</time>
      </trkpt>
      <trkpt lat="43.73983" lon="7.05139">
        <ele>1031.571</ele>
        <time>2014-03-21T14:00:58Z</time>
      </trkpt>
      <trkpt lat="43.73973" lon="7.05161">
        <ele>1032.81</ele>
        <time>2014-03-21T14:01:06Z</time>
      </trkpt>
      <trkpt lat="43.73966" lon="7.05178">
        <ele>1033.903</ele>
        <time>2014-03-21T14:01:14Z</time>
      </trkpt>
      <trkpt lat="43.73957" lon="7.05193">
        <ele>1033.444</ele>
        <time>2014-03-21T14:01:20Z</time>
      </trkpt>
      <trkpt lat="43.73953" lon="7.05206">
        <ele>1033.251</ele>
        <time>2014-03-21T14:01:25Z</time>
      </trkpt>
      <trkpt lat="43.73947" lon="7.0522">
        <ele>1032.501</ele>
        <time>2014-03-21T14:01:30Z</time>
      </trkpt>
      <trkpt lat="43.73943" lon="7.05237">
        <ele>1032.188</ele>
        <time>2014-03-21T14:01:35Z</time>
      </trkpt>
      <trkpt lat="43.73942" lon="7.05256">
        <ele>1031.119</ele>
        <time>2014-03-21T14:01:40Z</time>
      </trkpt>
      <trkpt lat="43.7394" lon="7.05275">
        <ele>1028.693</ele>
        <time>2014-03-21T14:01:46Z</time>
      </trkpt>
      <trkpt lat="43.73939" lon="7.05277">
        <ele>1028.459</ele>
        <time>2014-03-21T14:01:49Z</time>
      </trkpt>
      <trkpt lat="43.73936" lon="7.05285">
        <ele>1026.295</ele>
        <time>2014-03-21T14:01:55Z</time>
      </trkpt>
      <trkpt lat="43.73936" lon="7.05285">
        <ele>1026.219</ele>
        <time>2014-03-21T14:01:57Z</time>
      </trkpt>
      <trkpt lat="43.73933" lon="7.05291">
        <ele>1025.288</ele>
        <time>2014-03-21T14:02:02Z</time>
      </trkpt>
      <trkpt lat="43.73933" lon="7.05294">
        <ele>1024.966</ele>
        <time>2014-03-21T14:02:03Z</time>
      </trkpt>
      <trkpt lat="43.73927" lon="7.05304">
        <ele>1022.981</ele>
        <time>2014-03-21T14:02:07Z</time>
      </trkpt>
      <trkpt lat="43.73918" lon="7.05328">
        <ele>1018.657</ele>
        <time>2014-03-21T14:02:14Z</time>
      </trkpt>
      <trkpt lat="43.73909" lon="7.05348">
        <ele>1015.498</ele>
        <time>2014-03-21T14:02:19Z</time>
      </trkpt>
      <trkpt lat="43.73898" lon="7.05369">
        <ele>1011.483</ele>
        <time>2014-03-21T14:02:24Z</time>
      </trkpt>
      <trkpt lat="43.73885" lon="7.05398">
        <ele>1005.94</ele>
        <time>2014-03-21T14:02:30Z</time>
      </trkpt>
      <trkpt lat="43.73883" lon="7.05403">
        <ele>1005.081</ele>
        <time>2014-03-21T14:02:31Z</time>
      </trkpt>
      <trkpt lat="43.7387" lon="7.05433">
        <ele>999.53</ele>
        <time>2014-03-21T14:02:37Z</time>
      </trkpt>
      <trkpt lat="43.73867" lon="7.05444">
        <ele>998.213</ele>
        <time>2014-03-21T14:02:39Z</time>
      </trkpt>
      <trkpt lat="43.73858" lon="7.05478">
        <ele>993.956</ele>
        <time>2014-03-21T14:02:45Z</time>
      </trkpt>
      <trkpt lat="43.73856" lon="7.05482">
        <ele>993.206</ele>
        <time>2014-03-21T14:02:46Z</time>
      </trkpt>
      <trkpt lat="43.73853" lon="7.0551">
        <ele>991.558</ele>
        <time>2014-03-21T14:02:52Z</time>
      </trkpt>
      <trkpt lat="43.73851" lon="7.05523">
        <ele>991.581</ele>
        <time>2014-03-21T14:02:56Z</time>
      </trkpt>
      <trkpt lat="43.73846" lon="7.05537">
        <ele>991.168</ele>
        <time>2014-03-21T14:03:01Z</time>
      </trkpt>
      <trkpt lat="43.73841" lon="7.05549">
        <ele>990.245</ele>
        <time>2014-03-21T14:03:04Z</time>
      </trkpt>
      <trkpt lat="43.73839" lon="7.05573">
        <ele>989.85</ele>
        <time>2014-03-21T14:03:08Z</time>
      </trkpt>
      <trkpt lat="43.73837" lon="7.05587">
        <ele>990.284</ele>
        <time>2014-03-21T14:03:12Z</time>
      </trkpt>
      <trkpt lat="43.73832" lon="7.05593">
        <ele>990.476</ele>
        <time>2014-03-21T14:03:15Z</time>
      </trkpt>
      <trkpt lat="43.73829" lon="7.05604">
        <ele>991.478</ele>
        <time>2014-03-21T14:03:19Z</time>
      </trkpt>
      <trkpt lat="43.7383" lon="7.05612">
        <ele>993.049</ele>
        <time>2014-03-21T14:03:24Z</time>
      </trkpt>
      <trkpt lat="43.7383" lon="7.05624">
        <ele>994.638</ele>
        <time>2014-03-21T14:03:32Z</time>
      </trkpt>
      <trkpt lat="43.7383" lon="7.05625">
        <ele>994.727</ele>
        <time>2014-03-21T14:03:33Z</time>
      </trkpt>
      <trkpt lat="43.73828" lon="7.05638">
        <ele>995.285</ele>
        <time>2014-03-21T14:03:39Z</time>
      </trkpt>
      <trkpt lat="43.73827" lon="7.05652">
        <ele>995.544</ele>
        <time>2014-03-21T14:03:44Z</time>
      </trkpt>
      <trkpt lat="43.73826" lon="7.0567">
        <ele>995.663</ele>
        <time>2014-03-21T14:03:50Z</time>
      </trkpt>
      <trkpt lat="43.73823" lon="7.0569">
        <ele>995.191</ele>
        <time>2014-03-21T14:03:56Z</time>
      </trkpt>
      <trkpt lat="43.73817" lon="7.05712">
        <ele>995.094</ele>
        <time>2014-03-21T14:04:03Z</time>
      </trkpt>
      <trkpt lat="43.7381" lon="7.05735">
        <ele>994.974</ele>
        <time>2014-03-21T14:04:10Z</time>
      </trkpt>
      <trkpt lat="43.73802" lon="7.05755">
        <ele>993.981</ele>
        <time>2014-03-21T14:04:16Z</time>
      </trkpt>
      <trkpt lat="43.73792" lon="7.0578">
        <ele>992.714</ele>
        <time>2014-03-21T14:04:23Z</time>
      </trkpt>
      <trkpt lat="43.73789" lon="7.05793">
        <ele>992.013</ele>
        <time>2014-03-21T14:04:26Z</time>
      </trkpt>
      <trkpt lat="43.73792" lon="7.05798">
        <ele>991.23</ele>
        <time>2014-03-21T14:04:29Z</time>
      </trkpt>
      <trkpt lat="43.73793" lon="7.05797">
        <ele>991.994</ele>
        <time>2014-03-21T14:04:36Z</time>
      </trkpt>
      <trkpt lat="43.73796" lon="7.05797">
        <ele>997.275</ele>
        <time>2014-03-21T14:05:12Z</time>
      </trkpt>
      <trkpt lat="43.73798" lon="7.05798">
        <ele>996.654</ele>
        <time>2014-03-21T14:05:25Z</time>
      </trkpt>
      <trkpt lat="43.7381" lon="7.05811">
        <ele>993.922</ele>
        <time>2014-03-21T14:05:30Z</time>
      </trkpt>
      <trkpt lat="43.73828" lon="7.05831">
        <ele>990.006</ele>
        <time>2014-03-21T14:05:34Z</time>
      </trkpt>
      <trkpt lat="43.73844" lon="7.05853">
        <ele>987.07</ele>
        <time>2014-03-21T14:05:38Z</time>
      </trkpt>
      <trkpt lat="43.7386" lon="7.05851">
        <ele>983.031</ele>
        <time>2014-03-21T14:05:41Z</time>
      </trkpt>
      <trkpt lat="43.73871" lon="7.05841">
        <ele>979.161</ele>
        <time>2014-03-21T14:05:44Z</time>
      </trkpt>
      <trkpt lat="43.73873" lon="7.05833">
        <ele>976.592</ele>
        <time>2014-03-21T14:05:46Z</time>
      </trkpt>
      <trkpt lat="43.73872" lon="7.05823">
        <ele>972.511</ele>
        <time>2014-03-21T14:05:51Z</time>
      </trkpt>
      <trkpt lat="43.73871" lon="7.05821">
        <ele>971.074</ele>
        <time>2014-03-21T14:06:10Z</time>
      </trkpt>
      <trkpt lat="43.73875" lon="7.0581">
        <ele>968.394</ele>
        <time>2014-03-21T14:06:14Z</time>
      </trkpt>
      <trkpt lat="43.73876" lon="7.05799">
        <ele>966.713</ele>
        <time>2014-03-21T14:06:16Z</time>
      </trkpt>
      <trkpt lat="43.73889" lon="7.05793">
        <ele>961.368</ele>
        <time>2014-03-21T14:06:20Z</time>
      </trkpt>
      <trkpt lat="43.73907" lon="7.0579">
        <ele>955.343</ele>
        <time>2014-03-21T14:06:25Z</time>
      </trkpt>
      <trkpt lat="43.7392" lon="7.05791">
        <ele>950.46</ele>
        <time>2014-03-21T14:06:29Z</time>
      </trkpt>
      <trkpt lat="43.73922" lon="7.05791">
        <ele>949.464</ele>
        <time>2014-03-21T14:06:33Z</time>
      </trkpt>
      <trkpt lat="43.73923" lon="7.05791">
        <ele>950.091</ele>
        <time>2014-03-21T14:06:40Z</time>
      </trkpt>
      <trkpt lat="43.73936" lon="7.05782">
        <ele>944.474</ele>
        <time>2014-03-21T14:06:47Z</time>
      </trkpt>
      <trkpt lat="43.73944" lon="7.05775">
        <ele>939.494</ele>
        <time>2014-03-21T14:06:50Z</time>
      </trkpt>
      <trkpt lat="43.73959" lon="7.05767">
        <ele>933.466</ele>
        <time>2014-03-21T14:06:54Z</time>
      </trkpt>
      <trkpt lat="43.73983" lon="7.0576">
        <ele>929.207</ele>
        <time>2014-03-21T14:06:59Z</time>
      </trkpt>
      <trkpt lat="43.73994" lon="7.05765">
        <ele>926.239</ele>
        <time>2014-03-21T14:07:03Z</time>
      </trkpt>
      <trkpt lat="43.74001" lon="7.05768">
        <ele>924.196</ele>
        <time>2014-03-21T14:07:05Z</time>
      </trkpt>
      <trkpt lat="43.74013" lon="7.05775">
        <ele>920.175</ele>
        <time>2014-03-21T14:07:09Z</time>
      </trkpt>
      <trkpt lat="43.74032" lon="7.05775">
        <ele>915.044</ele>
        <time>2014-03-21T14:07:14Z</time>
      </trkpt>
      <trkpt lat="43.7404" lon="7.05777">
        <ele>912.794</ele>
        <time>2014-03-21T14:07:16Z</time>
      </trkpt>
      <trkpt lat="43.74054" lon="7.05779">
        <ele>909.512</ele>
        <time>2014-03-21T14:07:19Z</time>
      </trkpt>
      <trkpt lat="43.74064" lon="7.0578">
        <ele>907.544</ele>
        <time>2014-03-21T14:07:21Z</time>
      </trkpt>
      <trkpt lat="43.74081" lon="7.05783">
        <ele>904.786</ele>
        <time>2014-03-21T14:07:24Z</time>
      </trkpt>
      <trkpt lat="43.74096" lon="7.05795">
        <ele>900.007</ele>
        <time>2014-03-21T14:07:28Z</time>
      </trkpt>
      <trkpt lat="43.74104" lon="7.058">
        <ele>897.241</ele>
        <time>2014-03-21T14:07:30Z</time>
      </trkpt>
      <trkpt lat="43.74115" lon="7.05809">
        <ele>892.607</ele>
        <time>2014-03-21T14:07:33Z</time>
      </trkpt>
      <trkpt lat="43.74134" lon="7.05818">
        <ele>885.862</ele>
        <time>2014-03-21T14:07:38Z</time>
      </trkpt>
      <trkpt lat="43.74145" lon="7.05816">
        <ele>882.987</ele>
        <time>2014-03-21T14:07:42Z</time>
      </trkpt>
      <trkpt lat="43.74151" lon="7.05818">
        <ele>881.837</ele>
        <time>2014-03-21T14:07:44Z</time>
      </trkpt>
      <trkpt lat="43.7416" lon="7.05825">
        <ele>880.407</ele>
        <time>2014-03-21T14:07:46Z</time>
      </trkpt>
      <trkpt lat="43.74181" lon="7.0583">
        <ele>878.351</ele>
        <time>2014-03-21T14:07:50Z</time>
      </trkpt>
      <trkpt lat="43.74193" lon="7.0584">
        <ele>877.184</ele>
        <time>2014-03-21T14:07:53Z</time>
      </trkpt>
      <trkpt lat="43.74191" lon="7.0585">
        <ele>874.425</ele>
        <time>2014-03-21T14:07:55Z</time>
      </trkpt>
      <trkpt lat="43.74191" lon="7.05877">
        <ele>872.356</ele>
        <time>2014-03-21T14:07:59Z</time>
      </trkpt>
      <trkpt lat="43.74201" lon="7.05901">
        <ele>871.055</ele>
        <time>2014-03-21T14:08:03Z</time>
      </trkpt>
      <trkpt lat="43.74199" lon="7.05923">
        <ele>869.24</ele>
        <time>2014-03-21T14:08:06Z</time>
      </trkpt>
      <trkpt lat="43.74195" lon="7.05937">
        <ele>868.494</ele>
        <time>2014-03-21T14:08:08Z</time>
      </trkpt>
      <trkpt lat="43.7419" lon="7.0597">
        <ele>865.909</ele>
        <time>2014-03-21T14:08:13Z</time>
      </trkpt>
      <trkpt lat="43.74191" lon="7.05975">
        <ele>865.4</ele>
        <time>2014-03-21T14:08:14Z</time>
      </trkpt>
      <trkpt lat="43.74192" lon="7.0599">
        <ele>863.266</ele>
        <time>2014-03-21T14:08:17Z</time>
      </trkpt>
      <trkpt lat="43.74193" lon="7.0601">
        <ele>860.313</ele>
        <time>2014-03-21T14:08:21Z</time>
      </trkpt>
      <trkpt lat="43.74193" lon="7.06039">
        <ele>855.992</ele>
        <time>2014-03-21T14:08:26Z</time>
      </trkpt>
      <trkpt lat="43.74194" lon="7.06066">
        <ele>850.703</ele>
        <time>2014-03-21T14:08:33Z</time>
      </trkpt>
      <trkpt lat="43.74192" lon="7.06084">
        <ele>847.483</ele>
        <time>2014-03-21T14:08:37Z</time>
      </trkpt>
      <trkpt lat="43.74188" lon="7.06101">
        <ele>845.518</ele>
        <time>2014-03-21T14:08:41Z</time>
      </trkpt>
      <trkpt lat="43.74184" lon="7.06116">
        <ele>844.601</ele>
        <time>2014-03-21T14:08:44Z</time>
      </trkpt>
      <trkpt lat="43.7418" lon="7.06143">
        <ele>842.768</ele>
        <time>2014-03-21T14:08:48Z</time>
      </trkpt>
      <trkpt lat="43.7418" lon="7.06169">
        <ele>841.188</ele>
        <time>2014-03-21T14:08:51Z</time>
      </trkpt>
      <trkpt lat="43.74184" lon="7.06213">
        <ele>838.285</ele>
        <time>2014-03-21T14:08:56Z</time>
      </trkpt>
      <trkpt lat="43.74189" lon="7.06246">
        <ele>836.387</ele>
        <time>2014-03-21T14:09:00Z</time>
      </trkpt>
      <trkpt lat="43.74193" lon="7.06298">
        <ele>832.513</ele>
        <time>2014-03-21T14:09:07Z</time>
      </trkpt>
      <trkpt lat="43.74193" lon="7.06312">
        <ele>831.608</ele>
        <time>2014-03-21T14:09:09Z</time>
      </trkpt>
      <trkpt lat="43.74188" lon="7.06327">
        <ele>830.132</ele>
        <time>2014-03-21T14:09:13Z</time>
      </trkpt>
      <trkpt lat="43.74188" lon="7.06328">
        <ele>829.855</ele>
        <time>2014-03-21T14:09:14Z</time>
      </trkpt>
      <trkpt lat="43.74188" lon="7.0634">
        <ele>828.324</ele>
        <time>2014-03-21T14:09:20Z</time>
      </trkpt>
      <trkpt lat="43.74188" lon="7.06348">
        <ele>828.046</ele>
        <time>2014-03-21T14:09:22Z</time>
      </trkpt>
      <trkpt lat="43.74187" lon="7.06352">
        <ele>827.32</ele>
        <time>2014-03-21T14:09:25Z</time>
      </trkpt>
      <trkpt lat="43.74189" lon="7.0636">
        <ele>825.406</ele>
        <time>2014-03-21T14:09:30Z</time>
      </trkpt>
      <trkpt lat="43.74196" lon="7.06379">
        <ele>822.086</ele>
        <time>2014-03-21T14:09:36Z</time>
      </trkpt>
      <trkpt lat="43.74199" lon="7.06394">
        <ele>819.744</ele>
        <time>2014-03-21T14:09:39Z</time>
      </trkpt>
      <trkpt lat="43.74207" lon="7.06429">
        <ele>813.478</ele>
        <time>2014-03-21T14:09:45Z</time>
      </trkpt>
      <trkpt lat="43.74212" lon="7.06458">
        <ele>809.296</ele>
        <time>2014-03-21T14:09:49Z</time>
      </trkpt>
      <trkpt lat="43.74213" lon="7.06485">
        <ele>804.908</ele>
        <time>2014-03-21T14:09:53Z</time>
      </trkpt>
      <trkpt lat="43.74216" lon="7.06503">
        <ele>800.609</ele>
        <time>2014-03-21T14:09:56Z</time>
      </trkpt>
      <trkpt lat="43.74218" lon="7.06522">
        <ele>796.414</ele>
        <time>2014-03-21T14:10:00Z</time>
      </trkpt>
      <trkpt lat="43.74226" lon="7.06538">
        <ele>791.849</ele>
        <time>2014-03-21T14:10:04Z</time>
      </trkpt>
      <trkpt lat="43.74236" lon="7.06564">
        <ele>786.732</ele>
        <time>2014-03-21T14:10:09Z</time>
      </trkpt>
      <trkpt lat="43.74251" lon="7.0658">
        <ele>782.698</ele>
        <time>2014-03-21T14:10:13Z</time>
      </trkpt>
      <trkpt lat="43.74264" lon="7.06605">
        <ele>778.125</ele>
        <time>2014-03-21T14:10:17Z</time>
      </trkpt>
      <trkpt lat="43.74267" lon="7.06614">
        <ele>777.016</ele>
        <time>2014-03-21T14:10:18Z</time>
      </trkpt>
      <trkpt lat="43.74282" lon="7.06663">
        <ele>772.658</ele>
        <time>2014-03-21T14:10:23Z</time>
      </trkpt>
      <trkpt lat="43.7429" lon="7.06681">
        <ele>770.583</ele>
        <time>2014-03-21T14:10:25Z</time>
      </trkpt>
      <trkpt lat="43.74295" lon="7.06696">
        <ele>768.947</ele>
        <time>2014-03-21T14:10:27Z</time>
      </trkpt>
      <trkpt lat="43.74305" lon="7.06714">
        <ele>765.86</ele>
        <time>2014-03-21T14:10:31Z</time>
      </trkpt>
      <trkpt lat="43.74315" lon="7.06721">
        <ele>763.854</ele>
        <time>2014-03-21T14:10:35Z</time>
      </trkpt>
      <trkpt lat="43.74316" lon="7.06721">
        <ele>763.658</ele>
        <time>2014-03-21T14:10:37Z</time>
      </trkpt>
      <trkpt lat="43.74321" lon="7.06734">
        <ele>763.056</ele>
        <time>2014-03-21T14:10:43Z</time>
      </trkpt>
      <trkpt lat="43.74328" lon="7.06747">
        <ele>761.757</ele>
        <time>2014-03-21T14:10:46Z</time>
      </trkpt>
      <trkpt lat="43.74333" lon="7.0675">
        <ele>761.619</ele>
        <time>2014-03-21T14:10:47Z</time>
      </trkpt>
      <trkpt lat="43.74353" lon="7.06769">
        <ele>760.131</ele>
        <time>2014-03-21T14:10:52Z</time>
      </trkpt>
      <trkpt lat="43.74357" lon="7.06772">
        <ele>759.205</ele>
        <time>2014-03-21T14:10:53Z</time>
      </trkpt>
      <trkpt lat="43.74373" lon="7.06779">
        <ele>758.604</ele>
        <time>2014-03-21T14:10:57Z</time>
      </trkpt>
      <trkpt lat="43.74375" lon="7.06778">
        <ele>758.562</ele>
        <time>2014-03-21T14:10:59Z</time>
      </trkpt>
      <trkpt lat="43.74382" lon="7.06779">
        <ele>757.34</ele>
        <time>2014-03-21T14:11:03Z</time>
      </trkpt>
      <trkpt lat="43.74383" lon="7.06785">
        <ele>757.104</ele>
        <time>2014-03-21T14:11:05Z</time>
      </trkpt>
      <trkpt lat="43.74386" lon="7.06807">
        <ele>758.765</ele>
        <time>2014-03-21T14:11:13Z</time>
      </trkpt>
      <trkpt lat="43.74387" lon="7.06813">
        <ele>759.753</ele>
        <time>2014-03-21T14:11:16Z</time>
      </trkpt>
      <trkpt lat="43.74385" lon="7.06826">
        <ele>759.646</ele>
        <time>2014-03-21T14:11:22Z</time>
      </trkpt>
      <trkpt lat="43.74383" lon="7.06835">
        <ele>761.259</ele>
        <time>2014-03-21T14:11:53Z</time>
      </trkpt>
      <trkpt lat="43.74382" lon="7.06839">
        <ele>760.527</ele>
        <time>2014-03-21T14:11:54Z</time>
      </trkpt>
      <trkpt lat="43.7438" lon="7.06868">
        <ele>757.945</ele>
        <time>2014-03-21T14:11:59Z</time>
      </trkpt>
      <trkpt lat="43.74379" lon="7.06878">
        <ele>756.442</ele>
        <time>2014-03-21T14:12:01Z</time>
      </trkpt>
      <trkpt lat="43.74376" lon="7.06908">
        <ele>753.704</ele>
        <time>2014-03-21T14:12:06Z</time>
      </trkpt>
      <trkpt lat="43.74382" lon="7.06947">
        <ele>751.12</ele>
        <time>2014-03-21T14:12:13Z</time>
      </trkpt>
      <trkpt lat="43.74381" lon="7.06968">
        <ele>747.608</ele>
        <time>2014-03-21T14:12:17Z</time>
      </trkpt>
      <trkpt lat="43.74385" lon="7.06994">
        <ele>743.876</ele>
        <time>2014-03-21T14:12:21Z</time>
      </trkpt>
      <trkpt lat="43.74387" lon="7.07006">
        <ele>741.975</ele>
        <time>2014-03-21T14:12:23Z</time>
      </trkpt>
      <trkpt lat="43.7439" lon="7.07041">
        <ele>737.533</ele>
        <time>2014-03-21T14:12:28Z</time>
      </trkpt>
      <trkpt lat="43.74395" lon="7.07067">
        <ele>735.256</ele>
        <time>2014-03-21T14:12:32Z</time>
      </trkpt>
      <trkpt lat="43.744" lon="7.07092">
        <ele>731.325</ele>
        <time>2014-03-21T14:12:37Z</time>
      </trkpt>
      <trkpt lat="43.74398" lon="7.07116">
        <ele>727.857</ele>
        <time>2014-03-21T14:12:42Z</time>
      </trkpt>
      <trkpt lat="43.744" lon="7.07134">
        <ele>725.197</ele>
        <time>2014-03-21T14:12:45Z</time>
      </trkpt>
      <trkpt lat="43.74401" lon="7.07149">
        <ele>723.427</ele>
        <time>2014-03-21T14:12:47Z</time>
      </trkpt>
      <trkpt lat="43.74405" lon="7.0718">
        <ele>718.696</ele>
        <time>2014-03-21T14:12:53Z</time>
      </trkpt>
      <trkpt lat="43.74406" lon="7.07194">
        <ele>717.402</ele>
        <time>2014-03-21T14:12:56Z</time>
      </trkpt>
      <trkpt lat="43.74405" lon="7.0721">
        <ele>717.01</ele>
        <time>2014-03-21T14:12:59Z</time>
      </trkpt>
      <trkpt lat="43.74401" lon="7.07236">
        <ele>715.315</ele>
        <time>2014-03-21T14:13:03Z</time>
      </trkpt>
      <trkpt lat="43.74398" lon="7.07256">
        <ele>714.766</ele>
        <time>2014-03-21T14:13:06Z</time>
      </trkpt>
      <trkpt lat="43.74392" lon="7.07272">
        <ele>712.603</ele>
        <time>2014-03-21T14:13:10Z</time>
      </trkpt>
      <trkpt lat="43.7439" lon="7.07285">
        <ele>710.729</ele>
        <time>2014-03-21T14:13:13Z</time>
      </trkpt>
      <trkpt lat="43.74386" lon="7.07304">
        <ele>707.927</ele>
        <time>2014-03-21T14:13:17Z</time>
      </trkpt>
      <trkpt lat="43.74386" lon="7.07319">
        <ele>705.959</ele>
        <time>2014-03-21T14:13:20Z</time>
      </trkpt>
      <trkpt lat="43.74385" lon="7.07334">
        <ele>706.156</ele>
        <time>2014-03-21T14:13:23Z</time>
      </trkpt>
      <trkpt lat="43.7438" lon="7.07359">
        <ele>707.836</ele>
        <time>2014-03-21T14:13:27Z</time>
      </trkpt>
      <trkpt lat="43.74373" lon="7.07397">
        <ele>708.769</ele>
        <time>2014-03-21T14:13:33Z</time>
      </trkpt>
      <trkpt lat="43.74366" lon="7.07426">
        <ele>707.468</ele>
        <time>2014-03-21T14:13:37Z</time>
      </trkpt>
      <trkpt lat="43.7436" lon="7.07451">
        <ele>706.45</ele>
        <time>2014-03-21T14:13:41Z</time>
      </trkpt>
      <trkpt lat="43.7436" lon="7.07453">
        <ele>705.188</ele>
        <time>2014-03-21T14:13:44Z</time>
      </trkpt>
      <trkpt lat="43.74359" lon="7.07461">
        <ele>703.628</ele>
        <time>2014-03-21T14:13:48Z</time>
      </trkpt>
      <trkpt lat="43.74358" lon="7.0748">
        <ele>699.369</ele>
        <time>2014-03-21T14:13:52Z</time>
      </trkpt>
      <trkpt lat="43.74356" lon="7.07504">
        <ele>695.589</ele>
        <time>2014-03-21T14:13:56Z</time>
      </trkpt>
      <trkpt lat="43.74353" lon="7.07515">
        <ele>693.939</ele>
        <time>2014-03-21T14:13:58Z</time>
      </trkpt>
      <trkpt lat="43.74347" lon="7.07532">
        <ele>690.694</ele>
        <time>2014-03-21T14:14:01Z</time>
      </trkpt>
      <trkpt lat="43.74348" lon="7.07562">
        <ele>686.309</ele>
        <time>2014-03-21T14:14:06Z</time>
      </trkpt>
      <trkpt lat="43.74352" lon="7.07582">
        <ele>685.208</ele>
        <time>2014-03-21T14:14:10Z</time>
      </trkpt>
      <trkpt lat="43.74354" lon="7.07603">
        <ele>683.956</ele>
        <time>2014-03-21T14:14:14Z</time>
      </trkpt>
      <trkpt lat="43.74353" lon="7.07637">
        <ele>682.006</ele>
        <time>2014-03-21T14:14:19Z</time>
      </trkpt>
      <trkpt lat="43.74354" lon="7.07658">
        <ele>680.927</ele>
        <time>2014-03-21T14:14:22Z</time>
      </trkpt>
      <trkpt lat="43.74359" lon="7.07688">
        <ele>678.163</ele>
        <time>2014-03-21T14:14:26Z</time>
      </trkpt>
      <trkpt lat="43.74372" lon="7.07702">
        <ele>678.328</ele>
        <time>2014-03-21T14:14:30Z</time>
      </trkpt>
      <trkpt lat="43.74375" lon="7.07704">
        <ele>678.359</ele>
        <time>2014-03-21T14:14:31Z</time>
      </trkpt>
      <trkpt lat="43.74382" lon="7.07723">
        <ele>677.373</ele>
        <time>2014-03-21T14:14:35Z</time>
      </trkpt>
      <trkpt lat="43.74386" lon="7.07733">
        <ele>677.346</ele>
        <time>2014-03-21T14:14:39Z</time>
      </trkpt>
      <trkpt lat="43.74387" lon="7.07738">
        <ele>681.696</ele>
        <time>2014-03-21T14:15:21Z</time>
      </trkpt>
      <trkpt lat="43.74392" lon="7.07759">
        <ele>680.392</ele>
        <time>2014-03-21T14:15:26Z</time>
      </trkpt>
      <trkpt lat="43.74396" lon="7.07778">
        <ele>678.367</ele>
        <time>2014-03-21T14:15:30Z</time>
      </trkpt>
      <trkpt lat="43.74392" lon="7.07794">
        <ele>673.705</ele>
        <time>2014-03-21T14:15:35Z</time>
      </trkpt>
      <trkpt lat="43.74377" lon="7.07793">
        <ele>667.435</ele>
        <time>2014-03-21T14:15:41Z</time>
      </trkpt>
      <trkpt lat="43.74362" lon="7.07797">
        <ele>662.83</ele>
        <time>2014-03-21T14:15:47Z</time>
      </trkpt>
      <trkpt lat="43.74351" lon="7.0779">
        <ele>659.905</ele>
        <time>2014-03-21T14:15:51Z</time>
      </trkpt>
      <trkpt lat="43.74349" lon="7.07787">
        <ele>659.024</ele>
        <time>2014-03-21T14:15:52Z</time>
      </trkpt>
      <trkpt lat="43.74337" lon="7.07775">
        <ele>655.664</ele>
        <time>2014-03-21T14:15:56Z</time>
      </trkpt>
      <trkpt lat="43.74331" lon="7.07771">
        <ele>653.658</ele>
        <time>2014-03-21T14:15:58Z</time>
      </trkpt>
      <trkpt lat="43.74316" lon="7.07756">
        <ele>649.163</ele>
        <time>2014-03-21T14:16:03Z</time>
      </trkpt>
      <trkpt lat="43.74304" lon="7.07755">
        <ele>644.927</ele>
        <time>2014-03-21T14:16:07Z</time>
      </trkpt>
      <trkpt lat="43.74297" lon="7.07753">
        <ele>642.908</ele>
        <time>2014-03-21T14:16:09Z</time>
      </trkpt>
      <trkpt lat="43.74294" lon="7.07764">
        <ele>639.37</ele>
        <time>2014-03-21T14:16:13Z</time>
      </trkpt>
      <trkpt lat="43.743" lon="7.07781">
        <ele>636.348</ele>
        <time>2014-03-21T14:16:17Z</time>
      </trkpt>
      <trkpt lat="43.74296" lon="7.07791">
        <ele>634.013</ele>
        <time>2014-03-21T14:16:20Z</time>
      </trkpt>
      <trkpt lat="43.7429" lon="7.07785">
        <ele>633.035</ele>
        <time>2014-03-21T14:16:23Z</time>
      </trkpt>
      <trkpt lat="43.74289" lon="7.07792">
        <ele>632.718</ele>
        <time>2014-03-21T14:16:26Z</time>
      </trkpt>
      <trkpt lat="43.74291" lon="7.07798">
        <ele>631.976</ele>
        <time>2014-03-21T14:16:28Z</time>
      </trkpt>
      <trkpt lat="43.74287" lon="7.07799">
        <ele>629.949</ele>
        <time>2014-03-21T14:16:32Z</time>
      </trkpt>
      <trkpt lat="43.74286" lon="7.07797">
        <ele>629.54</ele>
        <time>2014-03-21T14:16:33Z</time>
      </trkpt>
      <trkpt lat="43.74281" lon="7.07791">
        <ele>628.34</ele>
        <time>2014-03-21T14:16:36Z</time>
      </trkpt>
      <trkpt lat="43.74278" lon="7.07789">
        <ele>627.146</ele>
        <time>2014-03-21T14:16:40Z</time>
      </trkpt>
      <trkpt lat="43.74274" lon="7.07794">
        <ele>627.191</ele>
        <time>2014-03-21T14:16:47Z</time>
      </trkpt>
      <trkpt lat="43.74271" lon="7.07795">
        <ele>630.11</ele>
        <time>2014-03-21T14:16:58Z</time>
      </trkpt>
      <trkpt lat="43.74269" lon="7.07795">
        <ele>630.992</ele>
        <time>2014-03-21T14:17:05Z</time>
      </trkpt>
      <trkpt lat="43.74268" lon="7.07794">
        <ele>629.707</ele>
        <time>2014-03-21T14:17:08Z</time>
      </trkpt>
      <trkpt lat="43.74259" lon="7.07799">
        <ele>630.029</ele>
        <time>2014-03-21T14:17:13Z</time>
      </trkpt>
      <trkpt lat="43.74252" lon="7.07805">
        <ele>630.3</ele>
        <time>2014-03-21T14:17:17Z</time>
      </trkpt>
      <trkpt lat="43.74241" lon="7.0782">
        <ele>632.097</ele>
        <time>2014-03-21T14:17:25Z</time>
      </trkpt>
      <trkpt lat="43.74236" lon="7.07834">
        <ele>635.37</ele>
        <time>2014-03-21T14:17:30Z</time>
      </trkpt>
      <trkpt lat="43.7423" lon="7.07848">
        <ele>637.31</ele>
        <time>2014-03-21T14:17:36Z</time>
      </trkpt>
      <trkpt lat="43.74226" lon="7.07863">
        <ele>638.701</ele>
        <time>2014-03-21T14:17:42Z</time>
      </trkpt>
      <trkpt lat="43.74225" lon="7.07877">
        <ele>638.542</ele>
        <time>2014-03-21T14:17:47Z</time>
      </trkpt>
      <trkpt lat="43.74224" lon="7.07885">
        <ele>636.565</ele>
        <time>2014-03-21T14:17:49Z</time>
      </trkpt>
      <trkpt lat="43.74228" lon="7.07905">
        <ele>629.651</ele>
        <time>2014-03-21T14:17:53Z</time>
      </trkpt>
      <trkpt lat="43.7423" lon="7.07911">
        <ele>629.215</ele>
        <time>2014-03-21T14:17:54Z</time>
      </trkpt>
      <trkpt lat="43.74233" lon="7.07924">
        <ele>627.245</ele>
        <time>2014-03-21T14:17:56Z</time>
      </trkpt>
      <trkpt lat="43.74235" lon="7.07946">
        <ele>626.271</ele>
        <time>2014-03-21T14:18:00Z</time>
      </trkpt>
      <trkpt lat="43.74237" lon="7.07953">
        <ele>627.099</ele>
        <time>2014-03-21T14:18:05Z</time>
      </trkpt>
      <trkpt lat="43.74237" lon="7.07955">
        <ele>627.782</ele>
        <time>2014-03-21T14:18:10Z</time>
      </trkpt>
      <trkpt lat="43.74238" lon="7.07959">
        <ele>629.834</ele>
        <time>2014-03-21T14:18:17Z</time>
      </trkpt>
      <trkpt lat="43.74239" lon="7.07962">
        <ele>630.736</ele>
        <time>2014-03-21T14:18:20Z</time>
      </trkpt>
      <trkpt lat="43.74237" lon="7.07967">
        <ele>633.349</ele>
        <time>2014-03-21T14:18:24Z</time>
      </trkpt>
      <trkpt lat="43.74237" lon="7.07971">
        <ele>632.332</ele>
        <time>2014-03-21T14:18:30Z</time>
      </trkpt>
      <trkpt lat="43.74233" lon="7.07983">
        <ele>634.206</ele>
        <time>2014-03-21T14:18:37Z</time>
      </trkpt>
      <trkpt lat="43.74229" lon="7.07991">
        <ele>636.179</ele>
        <time>2014-03-21T14:18:41Z</time>
      </trkpt>
      <trkpt lat="43.74221" lon="7.08006">
        <ele>637.844</ele>
        <time>2014-03-21T14:18:49Z</time>
      </trkpt>
      <trkpt lat="43.74215" lon="7.08017">
        <ele>639.878</ele>
        <time>2014-03-21T14:18:53Z</time>
      </trkpt>
      <trkpt lat="43.7421" lon="7.08034">
        <ele>640.114</ele>
        <time>2014-03-21T14:19:00Z</time>
      </trkpt>
      <trkpt lat="43.74207" lon="7.08054">
        <ele>636.776</ele>
        <time>2014-03-21T14:19:07Z</time>
      </trkpt>
      <trkpt lat="43.74206" lon="7.08059">
        <ele>636.184</ele>
        <time>2014-03-21T14:19:08Z</time>
      </trkpt>
      <trkpt lat="43.74196" lon="7.08077">
        <ele>637.254</ele>
        <time>2014-03-21T14:19:13Z</time>
      </trkpt>
      <trkpt lat="43.7419" lon="7.0809">
        <ele>636</ele>
        <time>2014-03-21T14:19:19Z</time>
      </trkpt>
      <trkpt lat="43.74193" lon="7.08092">
        <ele>635.812</ele>
        <time>2014-03-21T14:19:23Z</time>
      </trkpt>
      <trkpt lat="43.74203" lon="7.08084">
        <ele>637.066</ele>
        <time>2014-03-21T14:19:30Z</time>
      </trkpt>
      <trkpt lat="43.7421" lon="7.0808">
        <ele>638.777</ele>
        <time>2014-03-21T14:19:35Z</time>
      </trkpt>
      <trkpt lat="43.74215" lon="7.08074">
        <ele>640.016</ele>
        <time>2014-03-21T14:19:41Z</time>
      </trkpt>
      <trkpt lat="43.74218" lon="7.08073">
        <ele>640.183</ele>
        <time>2014-03-21T14:19:47Z</time>
      </trkpt>
      <trkpt lat="43.74225" lon="7.08068">
        <ele>643.955</ele>
        <time>2014-03-21T14:19:58Z</time>
      </trkpt>
      <trkpt lat="43.74233" lon="7.08065">
        <ele>645.824</ele>
        <time>2014-03-21T14:20:07Z</time>
      </trkpt>
      <trkpt lat="43.74243" lon="7.08061">
        <ele>647.723</ele>
        <time>2014-03-21T14:20:16Z</time>
      </trkpt>
      <trkpt lat="43.74253" lon="7.08059">
        <ele>649.347</ele>
        <time>2014-03-21T14:20:24Z</time>
      </trkpt>
      <trkpt lat="43.74261" lon="7.08056">
        <ele>649.299</ele>
        <time>2014-03-21T14:20:32Z</time>
      </trkpt>
      <trkpt lat="43.74267" lon="7.08052">
        <ele>651.501</ele>
        <time>2014-03-21T14:20:40Z</time>
      </trkpt>
      <trkpt lat="43.74271" lon="7.08049">
        <ele>652.872</ele>
        <time>2014-03-21T14:20:46Z</time>
      </trkpt>
      <trkpt lat="43.74277" lon="7.08045">
        <ele>654.983</ele>
        <time>2014-03-21T14:20:53Z</time>
      </trkpt>
      <trkpt lat="43.74288" lon="7.08036">
        <ele>655.931</ele>
        <time>2014-03-21T14:21:00Z</time>
      </trkpt>
      <trkpt lat="43.74297" lon="7.08029">
        <ele>656.963</ele>
        <time>2014-03-21T14:21:06Z</time>
      </trkpt>
      <trkpt lat="43.74306" lon="7.08018">
        <ele>658.556</ele>
        <time>2014-03-21T14:21:14Z</time>
      </trkpt>
      <trkpt lat="43.74309" lon="7.08015">
        <ele>659.246</ele>
        <time>2014-03-21T14:21:19Z</time>
      </trkpt>
      <trkpt lat="43.74312" lon="7.08011">
        <ele>660.546</ele>
        <time>2014-03-21T14:21:26Z</time>
      </trkpt>
      <trkpt lat="43.74315" lon="7.08007">
        <ele>663.207</ele>
        <time>2014-03-21T14:21:34Z</time>
      </trkpt>
      <trkpt lat="43.74318" lon="7.08004">
        <ele>663.867</ele>
        <time>2014-03-21T14:21:40Z</time>
      </trkpt>
      <trkpt lat="43.74322" lon="7.08001">
        <ele>663.855</ele>
        <time>2014-03-21T14:21:45Z</time>
      </trkpt>
      <trkpt lat="43.74326" lon="7.07998">
        <ele>663.645</ele>
        <time>2014-03-21T14:21:52Z</time>
      </trkpt>
      <trkpt lat="43.7433" lon="7.07996">
        <ele>663.174</ele>
        <time>2014-03-21T14:21:57Z</time>
      </trkpt>
      <trkpt lat="43.74335" lon="7.07995">
        <ele>663.624</ele>
        <time>2014-03-21T14:22:06Z</time>
      </trkpt>
      <trkpt lat="43.74336" lon="7.07994">
        <ele>663.914</ele>
        <time>2014-03-21T14:22:10Z</time>
      </trkpt>
      <trkpt lat="43.74339" lon="7.07992">
        <ele>664.716</ele>
        <time>2014-03-21T14:22:17Z</time>
      </trkpt>
      <trkpt lat="43.74343" lon="7.07992">
        <ele>665.804</ele>
        <time>2014-03-21T14:22:25Z</time>
      </trkpt>
      <trkpt lat="43.7435" lon="7.07992">
        <ele>668.411</ele>
        <time>2014-03-21T14:22:34Z</time>
      </trkpt>
      <trkpt lat="43.74352" lon="7.0799">
        <ele>670.514</ele>
        <time>2014-03-21T14:22:42Z</time>
      </trkpt>
      <trkpt lat="43.74353" lon="7.07991">
        <ele>671.925</ele>
        <time>2014-03-21T14:22:47Z</time>
      </trkpt>
      <trkpt lat="43.74354" lon="7.07986">
        <ele>674.104</ele>
        <time>2014-03-21T14:22:53Z</time>
      </trkpt>
      <trkpt lat="43.74359" lon="7.07983">
        <ele>674.813</ele>
        <time>2014-03-21T14:23:00Z</time>
      </trkpt>
      <trkpt lat="43.74362" lon="7.07982">
        <ele>675.763</ele>
        <time>2014-03-21T14:23:07Z</time>
      </trkpt>
      <trkpt lat="43.74368" lon="7.07982">
        <ele>676.681</ele>
        <time>2014-03-21T14:23:15Z</time>
      </trkpt>
      <trkpt lat="43.74371" lon="7.07983">
        <ele>676.393</ele>
        <time>2014-03-21T14:23:20Z</time>
      </trkpt>
      <trkpt lat="43.74375" lon="7.07983">
        <ele>678.466</ele>
        <time>2014-03-21T14:23:27Z</time>
      </trkpt>
      <trkpt lat="43.74381" lon="7.07983">
        <ele>682.479</ele>
        <time>2014-03-21T14:23:37Z</time>
      </trkpt>
      <trkpt lat="43.74386" lon="7.07982">
        <ele>684.556</ele>
        <time>2014-03-21T14:23:45Z</time>
      </trkpt>
      <trkpt lat="43.74388" lon="7.07983">
        <ele>685.045</ele>
        <time>2014-03-21T14:23:48Z</time>
      </trkpt>
      <trkpt lat="43.74389" lon="7.07989">
        <ele>686.546</ele>
        <time>2014-03-21T14:23:58Z</time>
      </trkpt>
      <trkpt lat="43.74395" lon="7.07994">
        <ele>687.567</ele>
        <time>2014-03-21T14:24:09Z</time>
      </trkpt>
      <trkpt lat="43.74397" lon="7.08001">
        <ele>690.317</ele>
        <time>2014-03-21T14:24:18Z</time>
      </trkpt>
      <trkpt lat="43.74401" lon="7.08007">
        <ele>693.998</ele>
        <time>2014-03-21T14:24:28Z</time>
      </trkpt>
      <trkpt lat="43.74405" lon="7.08005">
        <ele>697.179</ele>
        <time>2014-03-21T14:24:36Z</time>
      </trkpt>
      <trkpt lat="43.7441" lon="7.08003">
        <ele>697.756</ele>
        <time>2014-03-21T14:24:42Z</time>
      </trkpt>
      <trkpt lat="43.74417" lon="7.07996">
        <ele>698.404</ele>
        <time>2014-03-21T14:24:50Z</time>
      </trkpt>
      <trkpt lat="43.74425" lon="7.07991">
        <ele>698.354</ele>
        <time>2014-03-21T14:24:58Z</time>
      </trkpt>
      <trkpt lat="43.74433" lon="7.0799">
        <ele>699.876</ele>
        <time>2014-03-21T14:25:07Z</time>
      </trkpt>
      <trkpt lat="43.74437" lon="7.07986">
        <ele>700.853</ele>
        <time>2014-03-21T14:25:15Z</time>
      </trkpt>
      <trkpt lat="43.74443" lon="7.07985">
        <ele>701.115</ele>
        <time>2014-03-21T14:25:25Z</time>
      </trkpt>
      <trkpt lat="43.74454" lon="7.0798">
        <ele>703.067</ele>
        <time>2014-03-21T14:25:31Z</time>
      </trkpt>
      <trkpt lat="43.74466" lon="7.0797">
        <ele>704.313</ele>
        <time>2014-03-21T14:25:39Z</time>
      </trkpt>
      <trkpt lat="43.74483" lon="7.07956">
        <ele>705.773</ele>
        <time>2014-03-21T14:25:50Z</time>
      </trkpt>
      <trkpt lat="43.74499" lon="7.07944">
        <ele>705.742</ele>
        <time>2014-03-21T14:25:59Z</time>
      </trkpt>
      <trkpt lat="43.74516" lon="7.07929">
        <ele>704.421</ele>
        <time>2014-03-21T14:26:08Z</time>
      </trkpt>
      <trkpt lat="43.74527" lon="7.07918">
        <ele>702.748</ele>
        <time>2014-03-21T14:26:14Z</time>
      </trkpt>
      <trkpt lat="43.7454" lon="7.07902">
        <ele>701.067</ele>
        <time>2014-03-21T14:26:20Z</time>
      </trkpt>
      <trkpt lat="43.74543" lon="7.07897">
        <ele>701.141</ele>
        <time>2014-03-21T14:26:22Z</time>
      </trkpt>
      <trkpt lat="43.74557" lon="7.07892">
        <ele>700.982</ele>
        <time>2014-03-21T14:26:28Z</time>
      </trkpt>
      <trkpt lat="43.74562" lon="7.07886">
        <ele>701.203</ele>
        <time>2014-03-21T14:26:31Z</time>
      </trkpt>
      <trkpt lat="43.74577" lon="7.07875">
        <ele>701.643</ele>
        <time>2014-03-21T14:26:39Z</time>
      </trkpt>
      <trkpt lat="43.74587" lon="7.07867">
        <ele>702.885</ele>
        <time>2014-03-21T14:26:45Z</time>
      </trkpt>
      <trkpt lat="43.74595" lon="7.07869">
        <ele>703.934</ele>
        <time>2014-03-21T14:26:49Z</time>
      </trkpt>
      <trkpt lat="43.74609" lon="7.0787">
        <ele>706.165</ele>
        <time>2014-03-21T14:26:56Z</time>
      </trkpt>
      <trkpt lat="43.74624" lon="7.07866">
        <ele>708.295</ele>
        <time>2014-03-21T14:27:04Z</time>
      </trkpt>
      <trkpt lat="43.74635" lon="7.07859">
        <ele>709.714</ele>
        <time>2014-03-21T14:27:10Z</time>
      </trkpt>
      <trkpt lat="43.74646" lon="7.07852">
        <ele>710.234</ele>
        <time>2014-03-21T14:27:16Z</time>
      </trkpt>
      <trkpt lat="43.74658" lon="7.07843">
        <ele>711.004</ele>
        <time>2014-03-21T14:27:23Z</time>
      </trkpt>
      <trkpt lat="43.74669" lon="7.07842">
        <ele>712.266</ele>
        <time>2014-03-21T14:27:29Z</time>
      </trkpt>
      <trkpt lat="43.74682" lon="7.0784">
        <ele>713.966</ele>
        <time>2014-03-21T14:27:37Z</time>
      </trkpt>
      <trkpt lat="43.74694" lon="7.07838">
        <ele>715.976</ele>
        <time>2014-03-21T14:27:45Z</time>
      </trkpt>
      <trkpt lat="43.74705" lon="7.07839">
        <ele>717.795</ele>
        <time>2014-03-21T14:27:52Z</time>
      </trkpt>
      <trkpt lat="43.74716" lon="7.0784">
        <ele>719.263</ele>
        <time>2014-03-21T14:27:58Z</time>
      </trkpt>
      <trkpt lat="43.74729" lon="7.0784">
        <ele>720.673</ele>
        <time>2014-03-21T14:28:06Z</time>
      </trkpt>
      <trkpt lat="43.74741" lon="7.07841">
        <ele>721.692</ele>
        <time>2014-03-21T14:28:13Z</time>
      </trkpt>
      <trkpt lat="43.74754" lon="7.07843">
        <ele>722.872</ele>
        <time>2014-03-21T14:28:21Z</time>
      </trkpt>
      <trkpt lat="43.74768" lon="7.07845">
        <ele>724.683</ele>
        <time>2014-03-21T14:28:29Z</time>
      </trkpt>
      <trkpt lat="43.74783" lon="7.07846">
        <ele>725.972</ele>
        <time>2014-03-21T14:28:38Z</time>
      </trkpt>
      <trkpt lat="43.74798" lon="7.07848">
        <ele>726.352</ele>
        <time>2014-03-21T14:28:46Z</time>
      </trkpt>
      <trkpt lat="43.74811" lon="7.07851">
        <ele>727.854</ele>
        <time>2014-03-21T14:28:53Z</time>
      </trkpt>
      <trkpt lat="43.74822" lon="7.07852">
        <ele>729.835</ele>
        <time>2014-03-21T14:29:00Z</time>
      </trkpt>
      <trkpt lat="43.74834" lon="7.07847">
        <ele>730.622</ele>
        <time>2014-03-21T14:29:07Z</time>
      </trkpt>
      <trkpt lat="43.74846" lon="7.07836">
        <ele>731.424</ele>
        <time>2014-03-21T14:29:15Z</time>
      </trkpt>
      <trkpt lat="43.74861" lon="7.07823">
        <ele>732.465</ele>
        <time>2014-03-21T14:29:25Z</time>
      </trkpt>
      <trkpt lat="43.74875" lon="7.07816">
        <ele>732.603</ele>
        <time>2014-03-21T14:29:33Z</time>
      </trkpt>
      <trkpt lat="43.7489" lon="7.07807">
        <ele>732.282</ele>
        <time>2014-03-21T14:29:41Z</time>
      </trkpt>
      <trkpt lat="43.74909" lon="7.07797">
        <ele>732.483</ele>
        <time>2014-03-21T14:29:51Z</time>
      </trkpt>
      <trkpt lat="43.74928" lon="7.07788">
        <ele>733.423</ele>
        <time>2014-03-21T14:30:01Z</time>
      </trkpt>
      <trkpt lat="43.74946" lon="7.0778">
        <ele>734.905</ele>
        <time>2014-03-21T14:30:11Z</time>
      </trkpt>
      <trkpt lat="43.74958" lon="7.07776">
        <ele>735.373</ele>
        <time>2014-03-21T14:30:18Z</time>
      </trkpt>
      <trkpt lat="43.74973" lon="7.07772">
        <ele>737.285</ele>
        <time>2014-03-21T14:30:27Z</time>
      </trkpt>
      <trkpt lat="43.74984" lon="7.07775">
        <ele>739.276</ele>
        <time>2014-03-21T14:30:34Z</time>
      </trkpt>
      <trkpt lat="43.74997" lon="7.07779">
        <ele>741.818</ele>
        <time>2014-03-21T14:30:42Z</time>
      </trkpt>
      <trkpt lat="43.75009" lon="7.07782">
        <ele>744.845</ele>
        <time>2014-03-21T14:30:51Z</time>
      </trkpt>
      <trkpt lat="43.7502" lon="7.07786">
        <ele>746.563</ele>
        <time>2014-03-21T14:30:59Z</time>
      </trkpt>
      <trkpt lat="43.75032" lon="7.0779">
        <ele>747.924</ele>
        <time>2014-03-21T14:31:07Z</time>
      </trkpt>
      <trkpt lat="43.75044" lon="7.07793">
        <ele>748.801</ele>
        <time>2014-03-21T14:31:15Z</time>
      </trkpt>
      <trkpt lat="43.75055" lon="7.07794">
        <ele>749.844</ele>
        <time>2014-03-21T14:31:22Z</time>
      </trkpt>
      <trkpt lat="43.75067" lon="7.07789">
        <ele>750.663</ele>
        <time>2014-03-21T14:31:30Z</time>
      </trkpt>
      <trkpt lat="43.75084" lon="7.0778">
        <ele>750.683</ele>
        <time>2014-03-21T14:31:41Z</time>
      </trkpt>
      <trkpt lat="43.75098" lon="7.07781">
        <ele>752.134</ele>
        <time>2014-03-21T14:31:51Z</time>
      </trkpt>
      <trkpt lat="43.75109" lon="7.07787">
        <ele>754.738</ele>
        <time>2014-03-21T14:32:01Z</time>
      </trkpt>
      <trkpt lat="43.75118" lon="7.07794">
        <ele>758</ele>
        <time>2014-03-21T14:32:09Z</time>
      </trkpt>
      <trkpt lat="43.75126" lon="7.07799">
        <ele>760.595</ele>
        <time>2014-03-21T14:32:17Z</time>
      </trkpt>
      <trkpt lat="43.75137" lon="7.07802">
        <ele>763.146</ele>
        <time>2014-03-21T14:32:25Z</time>
      </trkpt>
      <trkpt lat="43.75143" lon="7.07804">
        <ele>764.726</ele>
        <time>2014-03-21T14:32:30Z</time>
      </trkpt>
      <trkpt lat="43.75155" lon="7.07807">
        <ele>766.795</ele>
        <time>2014-03-21T14:32:39Z</time>
      </trkpt>
      <trkpt lat="43.75166" lon="7.07811">
        <ele>768.344</ele>
        <time>2014-03-21T14:32:48Z</time>
      </trkpt>
      <trkpt lat="43.75179" lon="7.07815">
        <ele>771.046</ele>
        <time>2014-03-21T14:32:58Z</time>
      </trkpt>
      <trkpt lat="43.75192" lon="7.07819">
        <ele>773.947</ele>
        <time>2014-03-21T14:33:08Z</time>
      </trkpt>
      <trkpt lat="43.75199" lon="7.07821">
        <ele>775.207</ele>
        <time>2014-03-21T14:33:13Z</time>
      </trkpt>
      <trkpt lat="43.75208" lon="7.07827">
        <ele>776.765</ele>
        <time>2014-03-21T14:33:21Z</time>
      </trkpt>
      <trkpt lat="43.75217" lon="7.07831">
        <ele>778.576</ele>
        <time>2014-03-21T14:33:29Z</time>
      </trkpt>
      <trkpt lat="43.75224" lon="7.07836">
        <ele>780.207</ele>
        <time>2014-03-21T14:33:36Z</time>
      </trkpt>
      <trkpt lat="43.7523" lon="7.07839">
        <ele>781.675</ele>
        <time>2014-03-21T14:33:43Z</time>
      </trkpt>
      <trkpt lat="43.75237" lon="7.07844">
        <ele>783.338</ele>
        <time>2014-03-21T14:33:51Z</time>
      </trkpt>
      <trkpt lat="43.75244" lon="7.07849">
        <ele>784.728</ele>
        <time>2014-03-21T14:33:58Z</time>
      </trkpt>
      <trkpt lat="43.7524" lon="7.07856">
        <ele>785.856</ele>
        <time>2014-03-21T14:34:03Z</time>
      </trkpt>
      <trkpt lat="43.75234" lon="7.07862">
        <ele>786.958</ele>
        <time>2014-03-21T14:34:08Z</time>
      </trkpt>
      <trkpt lat="43.75228" lon="7.07871">
        <ele>787.925</ele>
        <time>2014-03-21T14:34:16Z</time>
      </trkpt>
      <trkpt lat="43.75224" lon="7.0788">
        <ele>789.084</ele>
        <time>2014-03-21T14:34:23Z</time>
      </trkpt>
      <trkpt lat="43.7522" lon="7.07888">
        <ele>790.145</ele>
        <time>2014-03-21T14:34:29Z</time>
      </trkpt>
      <trkpt lat="43.75215" lon="7.07898">
        <ele>791.894</ele>
        <time>2014-03-21T14:34:36Z</time>
      </trkpt>
      <trkpt lat="43.75209" lon="7.07911">
        <ele>793.143</ele>
        <time>2014-03-21T14:34:44Z</time>
      </trkpt>
      <trkpt lat="43.752" lon="7.07924">
        <ele>794.345</ele>
        <time>2014-03-21T14:34:53Z</time>
      </trkpt>
      <trkpt lat="43.75188" lon="7.07938">
        <ele>795.184</ele>
        <time>2014-03-21T14:35:04Z</time>
      </trkpt>
      <trkpt lat="43.75184" lon="7.07949">
        <ele>797.32</ele>
        <time>2014-03-21T14:35:11Z</time>
      </trkpt>
      <trkpt lat="43.75187" lon="7.07955">
        <ele>798.897</ele>
        <time>2014-03-21T14:35:15Z</time>
      </trkpt>
      <trkpt lat="43.75198" lon="7.07954">
        <ele>800.696</ele>
        <time>2014-03-21T14:35:22Z</time>
      </trkpt>
      <trkpt lat="43.75207" lon="7.07954">
        <ele>802.186</ele>
        <time>2014-03-21T14:35:29Z</time>
      </trkpt>
      <trkpt lat="43.75212" lon="7.07954">
        <ele>802.65</ele>
        <time>2014-03-21T14:35:37Z</time>
      </trkpt>
      <trkpt lat="43.75212" lon="7.07953">
        <ele>802.261</ele>
        <time>2014-03-21T14:35:43Z</time>
      </trkpt>
      <trkpt lat="43.7522" lon="7.0795">
        <ele>789.522</ele>
        <time>2014-03-21T14:36:24Z</time>
      </trkpt>
      <trkpt lat="43.75227" lon="7.07954">
        <ele>792.717</ele>
        <time>2014-03-21T14:36:33Z</time>
      </trkpt>
      <trkpt lat="43.75228" lon="7.07954">
        <ele>793.136</ele>
        <time>2014-03-21T14:36:34Z</time>
      </trkpt>
      <trkpt lat="43.75235" lon="7.0796">
        <ele>797.424</ele>
        <time>2014-03-21T14:36:43Z</time>
      </trkpt>
      <trkpt lat="43.75241" lon="7.07964">
        <ele>799.915</ele>
        <time>2014-03-21T14:36:51Z</time>
      </trkpt>
      <trkpt lat="43.75244" lon="7.07971">
        <ele>802.713</ele>
        <time>2014-03-21T14:37:00Z</time>
      </trkpt>
      <trkpt lat="43.75244" lon="7.07974">
        <ele>808.745</ele>
        <time>2014-03-21T14:37:32Z</time>
      </trkpt>
      <trkpt lat="43.75253" lon="7.07986">
        <ele>810.845</ele>
        <time>2014-03-21T14:37:39Z</time>
      </trkpt>
      <trkpt lat="43.75267" lon="7.07995">
        <ele>811.855</ele>
        <time>2014-03-21T14:37:47Z</time>
      </trkpt>
      <trkpt lat="43.75274" lon="7.08005">
        <ele>813.528</ele>
        <time>2014-03-21T14:37:53Z</time>
      </trkpt>
      <trkpt lat="43.75276" lon="7.08022">
        <ele>815.749</ele>
        <time>2014-03-21T14:38:01Z</time>
      </trkpt>
      <trkpt lat="43.75275" lon="7.08026">
        <ele>816.208</ele>
        <time>2014-03-21T14:38:03Z</time>
      </trkpt>
      <trkpt lat="43.75272" lon="7.08046">
        <ele>817.875</ele>
        <time>2014-03-21T14:38:13Z</time>
      </trkpt>
      <trkpt lat="43.75271" lon="7.08063">
        <ele>818.824</ele>
        <time>2014-03-21T14:38:20Z</time>
      </trkpt>
      <trkpt lat="43.75272" lon="7.08077">
        <ele>819.092</ele>
        <time>2014-03-21T14:38:27Z</time>
      </trkpt>
      <trkpt lat="43.75271" lon="7.08083">
        <ele>819.044</ele>
        <time>2014-03-21T14:38:30Z</time>
      </trkpt>
      <trkpt lat="43.75268" lon="7.08093">
        <ele>818.724</ele>
        <time>2014-03-21T14:38:36Z</time>
      </trkpt>
      <trkpt lat="43.75271" lon="7.08091">
        <ele>818.321</ele>
        <time>2014-03-21T14:38:39Z</time>
      </trkpt>
      <trkpt lat="43.75273" lon="7.08087">
        <ele>817.89</ele>
        <time>2014-03-21T14:38:41Z</time>
      </trkpt>
      <trkpt lat="43.75274" lon="7.08075">
        <ele>817.299</ele>
        <time>2014-03-21T14:38:46Z</time>
      </trkpt>
      <trkpt lat="43.75282" lon="7.08066">
        <ele>816.822</ele>
        <time>2014-03-21T14:38:52Z</time>
      </trkpt>
      <trkpt lat="43.75293" lon="7.08068">
        <ele>818.345</ele>
        <time>2014-03-21T14:38:59Z</time>
      </trkpt>
      <trkpt lat="43.75305" lon="7.08073">
        <ele>820.646</ele>
        <time>2014-03-21T14:39:07Z</time>
      </trkpt>
      <trkpt lat="43.75316" lon="7.08079">
        <ele>822.606</ele>
        <time>2014-03-21T14:39:15Z</time>
      </trkpt>
      <trkpt lat="43.75331" lon="7.08082">
        <ele>825.296</ele>
        <time>2014-03-21T14:39:26Z</time>
      </trkpt>
      <trkpt lat="43.75341" lon="7.08086">
        <ele>827.328</ele>
        <time>2014-03-21T14:39:34Z</time>
      </trkpt>
      <trkpt lat="43.75347" lon="7.08097">
        <ele>828.978</ele>
        <time>2014-03-21T14:39:42Z</time>
      </trkpt>
      <trkpt lat="43.75356" lon="7.08104">
        <ele>830.997</ele>
        <time>2014-03-21T14:39:50Z</time>
      </trkpt>
      <trkpt lat="43.75364" lon="7.08111">
        <ele>833.478</ele>
        <time>2014-03-21T14:39:58Z</time>
      </trkpt>
      <trkpt lat="43.75375" lon="7.0812">
        <ele>834.557</ele>
        <time>2014-03-21T14:40:07Z</time>
      </trkpt>
      <trkpt lat="43.75385" lon="7.08133">
        <ele>835.947</ele>
        <time>2014-03-21T14:40:16Z</time>
      </trkpt>
      <trkpt lat="43.75399" lon="7.08138">
        <ele>837.677</ele>
        <time>2014-03-21T14:40:26Z</time>
      </trkpt>
      <trkpt lat="43.75409" lon="7.08142">
        <ele>839.277</ele>
        <time>2014-03-21T14:40:34Z</time>
      </trkpt>
      <trkpt lat="43.7542" lon="7.08152">
        <ele>841.607</ele>
        <time>2014-03-21T14:40:44Z</time>
      </trkpt>
      <trkpt lat="43.75431" lon="7.08161">
        <ele>842.688</ele>
        <time>2014-03-21T14:40:52Z</time>
      </trkpt>
      <trkpt lat="43.75437" lon="7.08166">
        <ele>843.936</ele>
        <time>2014-03-21T14:40:57Z</time>
      </trkpt>
      <trkpt lat="43.75447" lon="7.08173">
        <ele>845.057</ele>
        <time>2014-03-21T14:41:05Z</time>
      </trkpt>
      <trkpt lat="43.75458" lon="7.0818">
        <ele>846.417</ele>
        <time>2014-03-21T14:41:13Z</time>
      </trkpt>
      <trkpt lat="43.75469" lon="7.08182">
        <ele>847.005</ele>
        <time>2014-03-21T14:41:21Z</time>
      </trkpt>
      <trkpt lat="43.75481" lon="7.08175">
        <ele>847.045</ele>
        <time>2014-03-21T14:41:30Z</time>
      </trkpt>
      <trkpt lat="43.7549" lon="7.08171">
        <ele>846.865</ele>
        <time>2014-03-21T14:41:37Z</time>
      </trkpt>
      <trkpt lat="43.75501" lon="7.0817">
        <ele>847.926</ele>
        <time>2014-03-21T14:41:45Z</time>
      </trkpt>
      <trkpt lat="43.75512" lon="7.08171">
        <ele>849.334</ele>
        <time>2014-03-21T14:41:53Z</time>
      </trkpt>
      <trkpt lat="43.75523" lon="7.08173">
        <ele>850.745</ele>
        <time>2014-03-21T14:42:01Z</time>
      </trkpt>
      <trkpt lat="43.75534" lon="7.08173">
        <ele>851.704</ele>
        <time>2014-03-21T14:42:08Z</time>
      </trkpt>
      <trkpt lat="43.75542" lon="7.08171">
        <ele>852.735</ele>
        <time>2014-03-21T14:42:14Z</time>
      </trkpt>
      <trkpt lat="43.75552" lon="7.0817">
        <ele>853.645</ele>
        <time>2014-03-21T14:42:21Z</time>
      </trkpt>
      <trkpt lat="43.75564" lon="7.0817">
        <ele>855.485</ele>
        <time>2014-03-21T14:42:29Z</time>
      </trkpt>
      <trkpt lat="43.75575" lon="7.0817">
        <ele>856.864</ele>
        <time>2014-03-21T14:42:37Z</time>
      </trkpt>
      <trkpt lat="43.75586" lon="7.0817">
        <ele>858.034</ele>
        <time>2014-03-21T14:42:45Z</time>
      </trkpt>
      <trkpt lat="43.75594" lon="7.0817">
        <ele>858.945</ele>
        <time>2014-03-21T14:42:51Z</time>
      </trkpt>
      <trkpt lat="43.75597" lon="7.08168">
        <ele>858.946</ele>
        <time>2014-03-21T14:42:53Z</time>
      </trkpt>
      <trkpt lat="43.75608" lon="7.08168">
        <ele>859.767</ele>
        <time>2014-03-21T14:43:00Z</time>
      </trkpt>
      <trkpt lat="43.75619" lon="7.08168">
        <ele>860.985</ele>
        <time>2014-03-21T14:43:07Z</time>
      </trkpt>
      <trkpt lat="43.75621" lon="7.08168">
        <ele>861.536</ele>
        <time>2014-03-21T14:43:09Z</time>
      </trkpt>
      <trkpt lat="43.75634" lon="7.08167">
        <ele>863.497</ele>
        <time>2014-03-21T14:43:17Z</time>
      </trkpt>
      <trkpt lat="43.75645" lon="7.08169">
        <ele>864.845</ele>
        <time>2014-03-21T14:43:24Z</time>
      </trkpt>
      <trkpt lat="43.75656" lon="7.0817">
        <ele>866.055</ele>
        <time>2014-03-21T14:43:31Z</time>
      </trkpt>
      <trkpt lat="43.75667" lon="7.0817">
        <ele>867.174</ele>
        <time>2014-03-21T14:43:39Z</time>
      </trkpt>
      <trkpt lat="43.75677" lon="7.08172">
        <ele>868.375</ele>
        <time>2014-03-21T14:43:46Z</time>
      </trkpt>
      <trkpt lat="43.75686" lon="7.0817">
        <ele>869.275</ele>
        <time>2014-03-21T14:43:53Z</time>
      </trkpt>
      <trkpt lat="43.75697" lon="7.08168">
        <ele>870.806</ele>
        <time>2014-03-21T14:44:01Z</time>
      </trkpt>
      <trkpt lat="43.75707" lon="7.08165">
        <ele>872.075</ele>
        <time>2014-03-21T14:44:08Z</time>
      </trkpt>
      <trkpt lat="43.7571" lon="7.08166">
        <ele>872.386</ele>
        <time>2014-03-21T14:44:10Z</time>
      </trkpt>
      <trkpt lat="43.75717" lon="7.08164">
        <ele>872.855</ele>
        <time>2014-03-21T14:44:15Z</time>
      </trkpt>
      <trkpt lat="43.75729" lon="7.08159">
        <ele>873.765</ele>
        <time>2014-03-21T14:44:24Z</time>
      </trkpt>
      <trkpt lat="43.75729" lon="7.08153">
        <ele>874.287</ele>
        <time>2014-03-21T14:44:28Z</time>
      </trkpt>
      <trkpt lat="43.75723" lon="7.08142">
        <ele>876.757</ele>
        <time>2014-03-21T14:44:36Z</time>
      </trkpt>
      <trkpt lat="43.75718" lon="7.08131">
        <ele>878.555</ele>
        <time>2014-03-21T14:44:43Z</time>
      </trkpt>
      <trkpt lat="43.75714" lon="7.0812">
        <ele>880.617</ele>
        <time>2014-03-21T14:44:50Z</time>
      </trkpt>
      <trkpt lat="43.75712" lon="7.08116">
        <ele>881.648</ele>
        <time>2014-03-21T14:44:53Z</time>
      </trkpt>
      <trkpt lat="43.75712" lon="7.08107">
        <ele>881.884</ele>
        <time>2014-03-21T14:44:59Z</time>
      </trkpt>
      <trkpt lat="43.75712" lon="7.08107">
        <ele>882.194</ele>
        <time>2014-03-21T14:45:01Z</time>
      </trkpt>
      <trkpt lat="43.75716" lon="7.08105">
        <ele>882.213</ele>
        <time>2014-03-21T14:45:09Z</time>
      </trkpt>
      <trkpt lat="43.75721" lon="7.08105">
        <ele>883.186</ele>
        <time>2014-03-21T14:45:15Z</time>
      </trkpt>
      <trkpt lat="43.75731" lon="7.08105">
        <ele>884.386</ele>
        <time>2014-03-21T14:45:22Z</time>
      </trkpt>
      <trkpt lat="43.75732" lon="7.08105">
        <ele>884.525</ele>
        <time>2014-03-21T14:45:23Z</time>
      </trkpt>
      <trkpt lat="43.75738" lon="7.08103">
        <ele>885.046</ele>
        <time>2014-03-21T14:45:27Z</time>
      </trkpt>
      <trkpt lat="43.75747" lon="7.08099">
        <ele>886.398</ele>
        <time>2014-03-21T14:45:34Z</time>
      </trkpt>
      <trkpt lat="43.75752" lon="7.08089">
        <ele>888.008</ele>
        <time>2014-03-21T14:45:41Z</time>
      </trkpt>
      <trkpt lat="43.75754" lon="7.08086">
        <ele>888.986</ele>
        <time>2014-03-21T14:45:45Z</time>
      </trkpt>
      <trkpt lat="43.75753" lon="7.08083">
        <ele>890.875</ele>
        <time>2014-03-21T14:45:51Z</time>
      </trkpt>
      <trkpt lat="43.75753" lon="7.08082">
        <ele>891.065</ele>
        <time>2014-03-21T14:45:52Z</time>
      </trkpt>
      <trkpt lat="43.75752" lon="7.08081">
        <ele>892.242</ele>
        <time>2014-03-21T14:45:59Z</time>
      </trkpt>
      <trkpt lat="43.75753" lon="7.0808">
        <ele>893.763</ele>
        <time>2014-03-21T14:47:08Z</time>
      </trkpt>
      <trkpt lat="43.7575" lon="7.08067">
        <ele>894.224</ele>
        <time>2014-03-21T14:47:14Z</time>
      </trkpt>
      <trkpt lat="43.75742" lon="7.0806">
        <ele>895.305</ele>
        <time>2014-03-21T14:47:19Z</time>
      </trkpt>
      <trkpt lat="43.75729" lon="7.08049">
        <ele>896.556</ele>
        <time>2014-03-21T14:47:27Z</time>
      </trkpt>
      <trkpt lat="43.7572" lon="7.08041">
        <ele>896.736</ele>
        <time>2014-03-21T14:47:33Z</time>
      </trkpt>
      <trkpt lat="43.75704" lon="7.0803">
        <ele>897.175</ele>
        <time>2014-03-21T14:47:42Z</time>
      </trkpt>
      <trkpt lat="43.75692" lon="7.08016">
        <ele>897.885</ele>
        <time>2014-03-21T14:47:50Z</time>
      </trkpt>
      <trkpt lat="43.75687" lon="7.08002">
        <ele>898.305</ele>
        <time>2014-03-21T14:47:56Z</time>
      </trkpt>
      <trkpt lat="43.75685" lon="7.07987">
        <ele>898.764</ele>
        <time>2014-03-21T14:48:02Z</time>
      </trkpt>
      <trkpt lat="43.75684" lon="7.07966">
        <ele>899.414</ele>
        <time>2014-03-21T14:48:10Z</time>
      </trkpt>
      <trkpt lat="43.75681" lon="7.07939">
        <ele>900.705</ele>
        <time>2014-03-21T14:48:21Z</time>
      </trkpt>
      <trkpt lat="43.75679" lon="7.07914">
        <ele>902.314</ele>
        <time>2014-03-21T14:48:31Z</time>
      </trkpt>
      <trkpt lat="43.75678" lon="7.07894">
        <ele>903.433</ele>
        <time>2014-03-21T14:48:39Z</time>
      </trkpt>
      <trkpt lat="43.75676" lon="7.07875">
        <ele>904.333</ele>
        <time>2014-03-21T14:48:46Z</time>
      </trkpt>
      <trkpt lat="43.75674" lon="7.0785">
        <ele>905.303</ele>
        <time>2014-03-21T14:48:55Z</time>
      </trkpt>
      <trkpt lat="43.75673" lon="7.07822">
        <ele>906.654</ele>
        <time>2014-03-21T14:49:05Z</time>
      </trkpt>
      <trkpt lat="43.75672" lon="7.07794">
        <ele>908.325</ele>
        <time>2014-03-21T14:49:15Z</time>
      </trkpt>
      <trkpt lat="43.75673" lon="7.07771">
        <ele>909.474</ele>
        <time>2014-03-21T14:49:23Z</time>
      </trkpt>
      <trkpt lat="43.75678" lon="7.0774">
        <ele>910.784</ele>
        <time>2014-03-21T14:49:34Z</time>
      </trkpt>
      <trkpt lat="43.75682" lon="7.07721">
        <ele>911.454</ele>
        <time>2014-03-21T14:49:41Z</time>
      </trkpt>
      <trkpt lat="43.75689" lon="7.07701">
        <ele>912.595</ele>
        <time>2014-03-21T14:49:49Z</time>
      </trkpt>
      <trkpt lat="43.75695" lon="7.07682">
        <ele>914.526</ele>
        <time>2014-03-21T14:49:56Z</time>
      </trkpt>
      <trkpt lat="43.75702" lon="7.07666">
        <ele>915.495</ele>
        <time>2014-03-21T14:50:02Z</time>
      </trkpt>
      <trkpt lat="43.75709" lon="7.07641">
        <ele>916.395</ele>
        <time>2014-03-21T14:50:11Z</time>
      </trkpt>
      <trkpt lat="43.75717" lon="7.0762">
        <ele>917.895</ele>
        <time>2014-03-21T14:50:19Z</time>
      </trkpt>
      <trkpt lat="43.75722" lon="7.07601">
        <ele>918.745</ele>
        <time>2014-03-21T14:50:26Z</time>
      </trkpt>
      <trkpt lat="43.75725" lon="7.07574">
        <ele>918.203</ele>
        <time>2014-03-21T14:50:35Z</time>
      </trkpt>
      <trkpt lat="43.75726" lon="7.07551">
        <ele>919.294</ele>
        <time>2014-03-21T14:50:43Z</time>
      </trkpt>
      <trkpt lat="43.75726" lon="7.07528">
        <ele>922.224</ele>
        <time>2014-03-21T14:50:52Z</time>
      </trkpt>
      <trkpt lat="43.75724" lon="7.07506">
        <ele>924.674</ele>
        <time>2014-03-21T14:51:00Z</time>
      </trkpt>
      <trkpt lat="43.7572" lon="7.07488">
        <ele>927.255</ele>
        <time>2014-03-21T14:51:07Z</time>
      </trkpt>
      <trkpt lat="43.75718" lon="7.07463">
        <ele>928.783</ele>
        <time>2014-03-21T14:51:16Z</time>
      </trkpt>
      <trkpt lat="43.75726" lon="7.07452">
        <ele>928.622</ele>
        <time>2014-03-21T14:51:21Z</time>
      </trkpt>
      <trkpt lat="43.75732" lon="7.07452">
        <ele>928.753</ele>
        <time>2014-03-21T14:51:24Z</time>
      </trkpt>
      <trkpt lat="43.75743" lon="7.07468">
        <ele>930.444</ele>
        <time>2014-03-21T14:51:32Z</time>
      </trkpt>
      <trkpt lat="43.7575" lon="7.07487">
        <ele>931.854</ele>
        <time>2014-03-21T14:51:40Z</time>
      </trkpt>
      <trkpt lat="43.75755" lon="7.07507">
        <ele>933.365</ele>
        <time>2014-03-21T14:51:48Z</time>
      </trkpt>
      <trkpt lat="43.75761" lon="7.07536">
        <ele>934.906</ele>
        <time>2014-03-21T14:51:59Z</time>
      </trkpt>
      <trkpt lat="43.75766" lon="7.07558">
        <ele>936.335</ele>
        <time>2014-03-21T14:52:08Z</time>
      </trkpt>
      <trkpt lat="43.75772" lon="7.07582">
        <ele>936.735</ele>
        <time>2014-03-21T14:52:17Z</time>
      </trkpt>
      <trkpt lat="43.75778" lon="7.0761">
        <ele>938.947</ele>
        <time>2014-03-21T14:52:28Z</time>
      </trkpt>
      <trkpt lat="43.75782" lon="7.07634">
        <ele>940.706</ele>
        <time>2014-03-21T14:52:37Z</time>
      </trkpt>
      <trkpt lat="43.75787" lon="7.07652">
        <ele>941.555</ele>
        <time>2014-03-21T14:52:44Z</time>
      </trkpt>
      <trkpt lat="43.75798" lon="7.0767">
        <ele>942.714</ele>
        <time>2014-03-21T14:52:53Z</time>
      </trkpt>
      <trkpt lat="43.75812" lon="7.07683">
        <ele>943.123</ele>
        <time>2014-03-21T14:53:01Z</time>
      </trkpt>
      <trkpt lat="43.75826" lon="7.07692">
        <ele>943.304</ele>
        <time>2014-03-21T14:53:08Z</time>
      </trkpt>
      <trkpt lat="43.75846" lon="7.07697">
        <ele>944.514</ele>
        <time>2014-03-21T14:53:17Z</time>
      </trkpt>
      <trkpt lat="43.75862" lon="7.07699">
        <ele>946.184</ele>
        <time>2014-03-21T14:53:25Z</time>
      </trkpt>
      <trkpt lat="43.75877" lon="7.07694">
        <ele>949.135</ele>
        <time>2014-03-21T14:53:33Z</time>
      </trkpt>
      <trkpt lat="43.7589" lon="7.07683">
        <ele>950.674</ele>
        <time>2014-03-21T14:53:40Z</time>
      </trkpt>
      <trkpt lat="43.75905" lon="7.07662">
        <ele>951.694</ele>
        <time>2014-03-21T14:53:50Z</time>
      </trkpt>
      <trkpt lat="43.75914" lon="7.07647">
        <ele>952.596</ele>
        <time>2014-03-21T14:53:57Z</time>
      </trkpt>
      <trkpt lat="43.75925" lon="7.07632">
        <ele>955.197</ele>
        <time>2014-03-21T14:54:05Z</time>
      </trkpt>
      <trkpt lat="43.75935" lon="7.07619">
        <ele>956.336</ele>
        <time>2014-03-21T14:54:12Z</time>
      </trkpt>
      <trkpt lat="43.75946" lon="7.07602">
        <ele>956.914</ele>
        <time>2014-03-21T14:54:20Z</time>
      </trkpt>
      <trkpt lat="43.75955" lon="7.0759">
        <ele>957.165</ele>
        <time>2014-03-21T14:54:26Z</time>
      </trkpt>
      <trkpt lat="43.75966" lon="7.07574">
        <ele>957.505</ele>
        <time>2014-03-21T14:54:34Z</time>
      </trkpt>
      <trkpt lat="43.75977" lon="7.07563">
        <ele>960.108</ele>
        <time>2014-03-21T14:54:41Z</time>
      </trkpt>
      <trkpt lat="43.75992" lon="7.07556">
        <ele>962.747</ele>
        <time>2014-03-21T14:54:49Z</time>
      </trkpt>
      <trkpt lat="43.76006" lon="7.07551">
        <ele>963.315</ele>
        <time>2014-03-21T14:54:56Z</time>
      </trkpt>
      <trkpt lat="43.76023" lon="7.07542">
        <ele>965.554</ele>
        <time>2014-03-21T14:55:05Z</time>
      </trkpt>
      <trkpt lat="43.76038" lon="7.07533">
        <ele>966.244</ele>
        <time>2014-03-21T14:55:12Z</time>
      </trkpt>
      <trkpt lat="43.76051" lon="7.07522">
        <ele>967.174</ele>
        <time>2014-03-21T14:55:19Z</time>
      </trkpt>
      <trkpt lat="43.76067" lon="7.07507">
        <ele>968.283</ele>
        <time>2014-03-21T14:55:27Z</time>
      </trkpt>
      <trkpt lat="43.76068" lon="7.07495">
        <ele>967.641</ele>
        <time>2014-03-21T14:55:31Z</time>
      </trkpt>
      <trkpt lat="43.76063" lon="7.07481">
        <ele>966.674</ele>
        <time>2014-03-21T14:55:38Z</time>
      </trkpt>
      <trkpt lat="43.7606" lon="7.07471">
        <ele>966.922</ele>
        <time>2014-03-21T14:55:43Z</time>
      </trkpt>
      <trkpt lat="43.7606" lon="7.07464">
        <ele>966.821</ele>
        <time>2014-03-21T14:55:46Z</time>
      </trkpt>
      <trkpt lat="43.76071" lon="7.07462">
        <ele>966.686</ele>
        <time>2014-03-21T14:55:50Z</time>
      </trkpt>
      <trkpt lat="43.76083" lon="7.07454">
        <ele>965.475</ele>
        <time>2014-03-21T14:55:53Z</time>
      </trkpt>
      <trkpt lat="43.76091" lon="7.07434">
        <ele>964.936</ele>
        <time>2014-03-21T14:55:57Z</time>
      </trkpt>
      <trkpt lat="43.76093" lon="7.07427">
        <ele>964.896</ele>
        <time>2014-03-21T14:56:00Z</time>
      </trkpt>
      <trkpt lat="43.76093" lon="7.07425">
        <ele>966.373</ele>
        <time>2014-03-21T14:56:04Z</time>
      </trkpt>
      <trkpt lat="43.76092" lon="7.07419">
        <ele>966.922</ele>
        <time>2014-03-21T14:56:11Z</time>
      </trkpt>
      <trkpt lat="43.76092" lon="7.07417">
        <ele>966.382</ele>
        <time>2014-03-21T14:56:13Z</time>
      </trkpt>
      <trkpt lat="43.76088" lon="7.07413">
        <ele>966.534</ele>
        <time>2014-03-21T14:56:17Z</time>
      </trkpt>
      <trkpt lat="43.76081" lon="7.07406">
        <ele>966.034</ele>
        <time>2014-03-21T14:56:23Z</time>
      </trkpt>
      <trkpt lat="43.76079" lon="7.07406">
        <ele>965.973</ele>
        <time>2014-03-21T14:56:24Z</time>
      </trkpt>
      <trkpt lat="43.76071" lon="7.07406">
        <ele>965.564</ele>
        <time>2014-03-21T14:56:28Z</time>
      </trkpt>
      <trkpt lat="43.76064" lon="7.07406">
        <ele>965.51</ele>
        <time>2014-03-21T14:56:33Z</time>
      </trkpt>
      <trkpt lat="43.76056" lon="7.07406">
        <ele>965.82</ele>
        <time>2014-03-21T14:56:38Z</time>
      </trkpt>
      <trkpt lat="43.76055" lon="7.07399">
        <ele>965.468</ele>
        <time>2014-03-21T14:56:41Z</time>
      </trkpt>
      <trkpt lat="43.76057" lon="7.07396">
        <ele>965.397</ele>
        <time>2014-03-21T14:56:42Z</time>
      </trkpt>
      <trkpt lat="43.76058" lon="7.07394">
        <ele>965.56</ele>
        <time>2014-03-21T14:56:47Z</time>
      </trkpt>
      <trkpt lat="43.7606" lon="7.07391">
        <ele>965.45</ele>
        <time>2014-03-21T14:56:56Z</time>
      </trkpt>
      <trkpt lat="43.76063" lon="7.07383">
        <ele>964.92</ele>
        <time>2014-03-21T14:56:59Z</time>
      </trkpt>
      <trkpt lat="43.7607" lon="7.07384">
        <ele>964.511</ele>
        <time>2014-03-21T14:57:03Z</time>
      </trkpt>
      <trkpt lat="43.76083" lon="7.07394">
        <ele>963.858</ele>
        <time>2014-03-21T14:57:11Z</time>
      </trkpt>
      <trkpt lat="43.76085" lon="7.07395">
        <ele>963.748</ele>
        <time>2014-03-21T14:57:12Z</time>
      </trkpt>
      <trkpt lat="43.76089" lon="7.07398">
        <ele>964.471</ele>
        <time>2014-03-21T14:57:16Z</time>
      </trkpt>
      <trkpt lat="43.76093" lon="7.07405">
        <ele>964.841</ele>
        <time>2014-03-21T14:57:20Z</time>
      </trkpt>
      <trkpt lat="43.76106" lon="7.07406">
        <ele>964.809</ele>
        <time>2014-03-21T14:57:26Z</time>
      </trkpt>
      <trkpt lat="43.76111" lon="7.07395">
        <ele>964.408</ele>
        <time>2014-03-21T14:57:29Z</time>
      </trkpt>
      <trkpt lat="43.7612" lon="7.07378">
        <ele>963.847</ele>
        <time>2014-03-21T14:57:33Z</time>
      </trkpt>
      <trkpt lat="43.76129" lon="7.07363">
        <ele>963.818</ele>
        <time>2014-03-21T14:57:36Z</time>
      </trkpt>
      <trkpt lat="43.7613" lon="7.07356">
        <ele>963.648</ele>
        <time>2014-03-21T14:57:37Z</time>
      </trkpt>
      <trkpt lat="43.76133" lon="7.07323">
        <ele>960.865</ele>
        <time>2014-03-21T14:57:42Z</time>
      </trkpt>
      <trkpt lat="43.76135" lon="7.07302">
        <ele>959.662</ele>
        <time>2014-03-21T14:57:45Z</time>
      </trkpt>
      <trkpt lat="43.76131" lon="7.07261">
        <ele>956.741</ele>
        <time>2014-03-21T14:57:50Z</time>
      </trkpt>
      <trkpt lat="43.76127" lon="7.07256">
        <ele>956.873</ele>
        <time>2014-03-21T14:57:51Z</time>
      </trkpt>
      <trkpt lat="43.76114" lon="7.07247">
        <ele>958.494</ele>
        <time>2014-03-21T14:57:56Z</time>
      </trkpt>
      <trkpt lat="43.76098" lon="7.07243">
        <ele>960.309</ele>
        <time>2014-03-21T14:58:03Z</time>
      </trkpt>
      <trkpt lat="43.76087" lon="7.07234">
        <ele>964.162</ele>
        <time>2014-03-21T14:58:09Z</time>
      </trkpt>
      <trkpt lat="43.76071" lon="7.07231">
        <ele>965.009</ele>
        <time>2014-03-21T14:58:15Z</time>
      </trkpt>
      <trkpt lat="43.76059" lon="7.07229">
        <ele>966.467</ele>
        <time>2014-03-21T14:58:21Z</time>
      </trkpt>
      <trkpt lat="43.76047" lon="7.07235">
        <ele>968.009</ele>
        <time>2014-03-21T14:58:28Z</time>
      </trkpt>
      <trkpt lat="43.76036" lon="7.07237">
        <ele>968.734</ele>
        <time>2014-03-21T14:58:35Z</time>
      </trkpt>
      <trkpt lat="43.76022" lon="7.07238">
        <ele>969.344</ele>
        <time>2014-03-21T14:58:43Z</time>
      </trkpt>
      <trkpt lat="43.76014" lon="7.07231">
        <ele>969.411</ele>
        <time>2014-03-21T14:58:49Z</time>
      </trkpt>
      <trkpt lat="43.76013" lon="7.07216">
        <ele>969.03</ele>
        <time>2014-03-21T14:58:54Z</time>
      </trkpt>
      <trkpt lat="43.76014" lon="7.072">
        <ele>968.901</ele>
        <time>2014-03-21T14:59:00Z</time>
      </trkpt>
      <trkpt lat="43.76008" lon="7.07188">
        <ele>969.544</ele>
        <time>2014-03-21T14:59:06Z</time>
      </trkpt>
      <trkpt lat="43.75995" lon="7.07177">
        <ele>970.513</ele>
        <time>2014-03-21T14:59:14Z</time>
      </trkpt>
      <trkpt lat="43.7598" lon="7.07169">
        <ele>971.624</ele>
        <time>2014-03-21T14:59:22Z</time>
      </trkpt>
      <trkpt lat="43.75968" lon="7.07164">
        <ele>972.074</ele>
        <time>2014-03-21T14:59:28Z</time>
      </trkpt>
      <trkpt lat="43.75961" lon="7.0715">
        <ele>972.211</ele>
        <time>2014-03-21T14:59:33Z</time>
      </trkpt>
      <trkpt lat="43.75953" lon="7.07131">
        <ele>972.083</ele>
        <time>2014-03-21T14:59:38Z</time>
      </trkpt>
      <trkpt lat="43.75941" lon="7.07098">
        <ele>972.312</ele>
        <time>2014-03-21T14:59:46Z</time>
      </trkpt>
      <trkpt lat="43.75932" lon="7.07074">
        <ele>972.729</ele>
        <time>2014-03-21T14:59:53Z</time>
      </trkpt>
      <trkpt lat="43.75931" lon="7.07061">
        <ele>971.37</ele>
        <time>2014-03-21T14:59:56Z</time>
      </trkpt>
      <trkpt lat="43.75934" lon="7.07049">
        <ele>970.091</ele>
        <time>2014-03-21T14:59:58Z</time>
      </trkpt>
      <trkpt lat="43.75944" lon="7.07035">
        <ele>968.978</ele>
        <time>2014-03-21T15:00:02Z</time>
      </trkpt>
      <trkpt lat="43.75942" lon="7.07025">
        <ele>969.583</ele>
        <time>2014-03-21T15:00:07Z</time>
      </trkpt>
      <trkpt lat="43.75936" lon="7.07022">
        <ele>971.065</ele>
        <time>2014-03-21T15:00:14Z</time>
      </trkpt>
      <trkpt lat="43.7593" lon="7.07017">
        <ele>973.318</ele>
        <time>2014-03-21T15:00:21Z</time>
      </trkpt>
      <trkpt lat="43.75928" lon="7.07017">
        <ele>974.072</ele>
        <time>2014-03-21T15:00:26Z</time>
      </trkpt>
      <trkpt lat="43.75925" lon="7.07016">
        <ele>974.563</ele>
        <time>2014-03-21T15:00:31Z</time>
      </trkpt>
      <trkpt lat="43.75922" lon="7.07011">
        <ele>974.731</ele>
        <time>2014-03-21T15:00:36Z</time>
      </trkpt>
      <trkpt lat="43.75919" lon="7.07011">
        <ele>975.391</ele>
        <time>2014-03-21T15:00:41Z</time>
      </trkpt>
      <trkpt lat="43.75919" lon="7.07011">
        <ele>975.811</ele>
        <time>2014-03-21T15:00:43Z</time>
      </trkpt>
      <trkpt lat="43.75925" lon="7.06998">
        <ele>975.383</ele>
        <time>2014-03-21T15:00:50Z</time>
      </trkpt>
      <trkpt lat="43.75928" lon="7.06979">
        <ele>974.566</ele>
        <time>2014-03-21T15:00:55Z</time>
      </trkpt>
      <trkpt lat="43.7593" lon="7.06969">
        <ele>974.145</ele>
        <time>2014-03-21T15:00:57Z</time>
      </trkpt>
      <trkpt lat="43.75925" lon="7.06944">
        <ele>972.207</ele>
        <time>2014-03-21T15:01:02Z</time>
      </trkpt>
      <trkpt lat="43.75919" lon="7.06935">
        <ele>971.75</ele>
        <time>2014-03-21T15:01:05Z</time>
      </trkpt>
      <trkpt lat="43.75917" lon="7.06934">
        <ele>971.611</ele>
        <time>2014-03-21T15:01:06Z</time>
      </trkpt>
      <trkpt lat="43.759" lon="7.06931">
        <ele>971.153</ele>
        <time>2014-03-21T15:01:14Z</time>
      </trkpt>
      <trkpt lat="43.75888" lon="7.06928">
        <ele>971.595</ele>
        <time>2014-03-21T15:01:20Z</time>
      </trkpt>
      <trkpt lat="43.75878" lon="7.06922">
        <ele>971.773</ele>
        <time>2014-03-21T15:01:25Z</time>
      </trkpt>
      <trkpt lat="43.75865" lon="7.06921">
        <ele>971.601</ele>
        <time>2014-03-21T15:01:31Z</time>
      </trkpt>
      <trkpt lat="43.75851" lon="7.06924">
        <ele>971.842</ele>
        <time>2014-03-21T15:01:37Z</time>
      </trkpt>
      <trkpt lat="43.75841" lon="7.06914">
        <ele>971.72</ele>
        <time>2014-03-21T15:01:41Z</time>
      </trkpt>
      <trkpt lat="43.75832" lon="7.06894">
        <ele>971.571</ele>
        <time>2014-03-21T15:01:46Z</time>
      </trkpt>
      <trkpt lat="43.75829" lon="7.06892">
        <ele>971.682</ele>
        <time>2014-03-21T15:01:47Z</time>
      </trkpt>
      <trkpt lat="43.75811" lon="7.06872">
        <ele>971.23</ele>
        <time>2014-03-21T15:01:52Z</time>
      </trkpt>
      <trkpt lat="43.758" lon="7.06867">
        <ele>969.867</ele>
        <time>2014-03-21T15:01:56Z</time>
      </trkpt>
      <trkpt lat="43.75797" lon="7.06866">
        <ele>969.566</ele>
        <time>2014-03-21T15:01:57Z</time>
      </trkpt>
      <trkpt lat="43.75779" lon="7.06862">
        <ele>970.773</ele>
        <time>2014-03-21T15:02:02Z</time>
      </trkpt>
      <trkpt lat="43.75771" lon="7.06858">
        <ele>971.323</ele>
        <time>2014-03-21T15:02:04Z</time>
      </trkpt>
      <trkpt lat="43.75753" lon="7.06852">
        <ele>972.635</ele>
        <time>2014-03-21T15:02:09Z</time>
      </trkpt>
      <trkpt lat="43.75739" lon="7.06846">
        <ele>972.699</ele>
        <time>2014-03-21T15:02:14Z</time>
      </trkpt>
      <trkpt lat="43.7573" lon="7.0683">
        <ele>970.276</ele>
        <time>2014-03-21T15:02:20Z</time>
      </trkpt>
      <trkpt lat="43.75729" lon="7.0683">
        <ele>969.946</ele>
        <time>2014-03-21T15:02:21Z</time>
      </trkpt>
      <trkpt lat="43.75723" lon="7.06817">
        <ele>968.305</ele>
        <time>2014-03-21T15:02:26Z</time>
      </trkpt>
      <trkpt lat="43.75706" lon="7.06793">
        <ele>965.772</ele>
        <time>2014-03-21T15:02:31Z</time>
      </trkpt>
      <trkpt lat="43.75697" lon="7.06783">
        <ele>965.044</ele>
        <time>2014-03-21T15:02:33Z</time>
      </trkpt>
      <trkpt lat="43.75686" lon="7.0676">
        <ele>963.445</ele>
        <time>2014-03-21T15:02:37Z</time>
      </trkpt>
      <trkpt lat="43.75672" lon="7.06741">
        <ele>962.105</ele>
        <time>2014-03-21T15:02:41Z</time>
      </trkpt>
      <trkpt lat="43.75664" lon="7.06714">
        <ele>961.104</ele>
        <time>2014-03-21T15:02:45Z</time>
      </trkpt>
      <trkpt lat="43.75659" lon="7.06704">
        <ele>960.838</ele>
        <time>2014-03-21T15:02:47Z</time>
      </trkpt>
      <trkpt lat="43.75652" lon="7.06695">
        <ele>960.468</ele>
        <time>2014-03-21T15:02:49Z</time>
      </trkpt>
      <trkpt lat="43.75643" lon="7.06673">
        <ele>960.202</ele>
        <time>2014-03-21T15:02:54Z</time>
      </trkpt>
      <trkpt lat="43.75631" lon="7.06652">
        <ele>961.885</ele>
        <time>2014-03-21T15:03:00Z</time>
      </trkpt>
      <trkpt lat="43.75617" lon="7.06636">
        <ele>963.213</ele>
        <time>2014-03-21T15:03:06Z</time>
      </trkpt>
      <trkpt lat="43.75605" lon="7.0662">
        <ele>964.804</ele>
        <time>2014-03-21T15:03:13Z</time>
      </trkpt>
      <trkpt lat="43.75594" lon="7.06606">
        <ele>966.385</ele>
        <time>2014-03-21T15:03:20Z</time>
      </trkpt>
      <trkpt lat="43.75589" lon="7.06603">
        <ele>966.745</ele>
        <time>2014-03-21T15:03:22Z</time>
      </trkpt>
      <trkpt lat="43.75578" lon="7.06588">
        <ele>968.454</ele>
        <time>2014-03-21T15:03:30Z</time>
      </trkpt>
      <trkpt lat="43.75568" lon="7.06573">
        <ele>969.803</ele>
        <time>2014-03-21T15:03:37Z</time>
      </trkpt>
      <trkpt lat="43.75556" lon="7.0655">
        <ele>970.999</ele>
        <time>2014-03-21T15:03:46Z</time>
      </trkpt>
      <trkpt lat="43.75551" lon="7.06536">
        <ele>970.627</ele>
        <time>2014-03-21T15:03:50Z</time>
      </trkpt>
      <trkpt lat="43.75537" lon="7.06503">
        <ele>969.248</ele>
        <time>2014-03-21T15:03:56Z</time>
      </trkpt>
      <trkpt lat="43.75527" lon="7.06493">
        <ele>969.791</ele>
        <time>2014-03-21T15:03:59Z</time>
      </trkpt>
      <trkpt lat="43.75516" lon="7.06478">
        <ele>970.801</ele>
        <time>2014-03-21T15:04:04Z</time>
      </trkpt>
      <trkpt lat="43.75511" lon="7.06473">
        <ele>970.921</ele>
        <time>2014-03-21T15:04:06Z</time>
      </trkpt>
      <trkpt lat="43.75499" lon="7.06458">
        <ele>971.543</ele>
        <time>2014-03-21T15:04:13Z</time>
      </trkpt>
      <trkpt lat="43.75488" lon="7.06449">
        <ele>972.722</ele>
        <time>2014-03-21T15:04:19Z</time>
      </trkpt>
      <trkpt lat="43.75467" lon="7.06439">
        <ele>972.443</ele>
        <time>2014-03-21T15:04:28Z</time>
      </trkpt>
      <trkpt lat="43.75446" lon="7.06436">
        <ele>970.721</ele>
        <time>2014-03-21T15:04:36Z</time>
      </trkpt>
      <trkpt lat="43.75431" lon="7.06442">
        <ele>969.705</ele>
        <time>2014-03-21T15:04:42Z</time>
      </trkpt>
      <trkpt lat="43.75419" lon="7.06444">
        <ele>969.067</ele>
        <time>2014-03-21T15:04:48Z</time>
      </trkpt>
      <trkpt lat="43.75416" lon="7.06446">
        <ele>969.279</ele>
        <time>2014-03-21T15:04:50Z</time>
      </trkpt>
      <trkpt lat="43.75407" lon="7.06442">
        <ele>969.308</ele>
        <time>2014-03-21T15:04:55Z</time>
      </trkpt>
      <trkpt lat="43.7539" lon="7.06434">
        <ele>969.692</ele>
        <time>2014-03-21T15:05:04Z</time>
      </trkpt>
      <trkpt lat="43.75377" lon="7.06435">
        <ele>970.875</ele>
        <time>2014-03-21T15:05:11Z</time>
      </trkpt>
      <trkpt lat="43.75369" lon="7.06426">
        <ele>972.885</ele>
        <time>2014-03-21T15:05:17Z</time>
      </trkpt>
      <trkpt lat="43.75364" lon="7.0641">
        <ele>974.312</ele>
        <time>2014-03-21T15:05:24Z</time>
      </trkpt>
      <trkpt lat="43.75357" lon="7.064">
        <ele>975.602</ele>
        <time>2014-03-21T15:05:30Z</time>
      </trkpt>
      <trkpt lat="43.75347" lon="7.06398">
        <ele>975.662</ele>
        <time>2014-03-21T15:05:35Z</time>
      </trkpt>
      <trkpt lat="43.75329" lon="7.06399">
        <ele>975.558</ele>
        <time>2014-03-21T15:05:43Z</time>
      </trkpt>
      <trkpt lat="43.75316" lon="7.06397">
        <ele>975.621</ele>
        <time>2014-03-21T15:05:49Z</time>
      </trkpt>
      <trkpt lat="43.75298" lon="7.06392">
        <ele>976.521</ele>
        <time>2014-03-21T15:05:57Z</time>
      </trkpt>
      <trkpt lat="43.75285" lon="7.06383">
        <ele>978.153</ele>
        <time>2014-03-21T15:06:03Z</time>
      </trkpt>
      <trkpt lat="43.75271" lon="7.06373">
        <ele>978.164</ele>
        <time>2014-03-21T15:06:09Z</time>
      </trkpt>
      <trkpt lat="43.75252" lon="7.06352">
        <ele>976.343</ele>
        <time>2014-03-21T15:06:15Z</time>
      </trkpt>
      <trkpt lat="43.7525" lon="7.06348">
        <ele>976.014</ele>
        <time>2014-03-21T15:06:16Z</time>
      </trkpt>
      <trkpt lat="43.75238" lon="7.06323">
        <ele>974.142</ele>
        <time>2014-03-21T15:06:21Z</time>
      </trkpt>
      <trkpt lat="43.75227" lon="7.06295">
        <ele>973.077</ele>
        <time>2014-03-21T15:06:26Z</time>
      </trkpt>
      <trkpt lat="43.75225" lon="7.06292">
        <ele>973.34</ele>
        <time>2014-03-21T15:06:27Z</time>
      </trkpt>
      <trkpt lat="43.75229" lon="7.06277">
        <ele>975.474</ele>
        <time>2014-03-21T15:06:32Z</time>
      </trkpt>
      <trkpt lat="43.75228" lon="7.06249">
        <ele>977.15</ele>
        <time>2014-03-21T15:06:40Z</time>
      </trkpt>
      <trkpt lat="43.75228" lon="7.06239">
        <ele>977.609</ele>
        <time>2014-03-21T15:06:43Z</time>
      </trkpt>
      <trkpt lat="43.75225" lon="7.06223">
        <ele>977.364</ele>
        <time>2014-03-21T15:06:48Z</time>
      </trkpt>
      <trkpt lat="43.75217" lon="7.0621">
        <ele>976.703</ele>
        <time>2014-03-21T15:06:52Z</time>
      </trkpt>
      <trkpt lat="43.75212" lon="7.06204">
        <ele>976.482</ele>
        <time>2014-03-21T15:06:54Z</time>
      </trkpt>
      <trkpt lat="43.75199" lon="7.06182">
        <ele>974.096</ele>
        <time>2014-03-21T15:06:58Z</time>
      </trkpt>
      <trkpt lat="43.7519" lon="7.06172">
        <ele>973.319</ele>
        <time>2014-03-21T15:07:00Z</time>
      </trkpt>
      <trkpt lat="43.75167" lon="7.0614">
        <ele>970.019</ele>
        <time>2014-03-21T15:07:06Z</time>
      </trkpt>
      <trkpt lat="43.75164" lon="7.06135">
        <ele>969.841</ele>
        <time>2014-03-21T15:07:07Z</time>
      </trkpt>
      <trkpt lat="43.75147" lon="7.0611">
        <ele>969.607</ele>
        <time>2014-03-21T15:07:13Z</time>
      </trkpt>
      <trkpt lat="43.75131" lon="7.06097">
        <ele>970.108</ele>
        <time>2014-03-21T15:07:19Z</time>
      </trkpt>
      <trkpt lat="43.75119" lon="7.06083">
        <ele>969.906</ele>
        <time>2014-03-21T15:07:24Z</time>
      </trkpt>
      <trkpt lat="43.75107" lon="7.06073">
        <ele>968.409</ele>
        <time>2014-03-21T15:07:28Z</time>
      </trkpt>
      <trkpt lat="43.75098" lon="7.06068">
        <ele>966.358</ele>
        <time>2014-03-21T15:07:32Z</time>
      </trkpt>
      <trkpt lat="43.75089" lon="7.06063">
        <ele>965.342</ele>
        <time>2014-03-21T15:07:35Z</time>
      </trkpt>
      <trkpt lat="43.7508" lon="7.06051">
        <ele>965.847</ele>
        <time>2014-03-21T15:07:39Z</time>
      </trkpt>
      <trkpt lat="43.75074" lon="7.06048">
        <ele>965.978</ele>
        <time>2014-03-21T15:07:41Z</time>
      </trkpt>
      <trkpt lat="43.75058" lon="7.06038">
        <ele>966.199</ele>
        <time>2014-03-21T15:07:47Z</time>
      </trkpt>
      <trkpt lat="43.75056" lon="7.06035">
        <ele>966.37</ele>
        <time>2014-03-21T15:07:48Z</time>
      </trkpt>
      <trkpt lat="43.75045" lon="7.06027">
        <ele>966.388</ele>
        <time>2014-03-21T15:07:52Z</time>
      </trkpt>
      <trkpt lat="43.75033" lon="7.06011">
        <ele>966.639</ele>
        <time>2014-03-21T15:07:57Z</time>
      </trkpt>
      <trkpt lat="43.75031" lon="7.05982">
        <ele>967.297</ele>
        <time>2014-03-21T15:08:03Z</time>
      </trkpt>
      <trkpt lat="43.75028" lon="7.05956">
        <ele>966.174</ele>
        <time>2014-03-21T15:08:08Z</time>
      </trkpt>
      <trkpt lat="43.7502" lon="7.05932">
        <ele>966.297</ele>
        <time>2014-03-21T15:08:13Z</time>
      </trkpt>
      <trkpt lat="43.75016" lon="7.05917">
        <ele>967.813</ele>
        <time>2014-03-21T15:08:18Z</time>
      </trkpt>
      <trkpt lat="43.75012" lon="7.05904">
        <ele>969.953</ele>
        <time>2014-03-21T15:08:23Z</time>
      </trkpt>
      <trkpt lat="43.75009" lon="7.05881">
        <ele>972.421</ele>
        <time>2014-03-21T15:08:31Z</time>
      </trkpt>
      <trkpt lat="43.75008" lon="7.05863">
        <ele>973.527</ele>
        <time>2014-03-21T15:08:37Z</time>
      </trkpt>
      <trkpt lat="43.75001" lon="7.05848">
        <ele>972.725</ele>
        <time>2014-03-21T15:08:42Z</time>
      </trkpt>
      <trkpt lat="43.74997" lon="7.05828">
        <ele>972.396</ele>
        <time>2014-03-21T15:08:48Z</time>
      </trkpt>
      <trkpt lat="43.74993" lon="7.0581">
        <ele>972.536</ele>
        <time>2014-03-21T15:08:54Z</time>
      </trkpt>
      <trkpt lat="43.7498" lon="7.05795">
        <ele>973.688</ele>
        <time>2014-03-21T15:09:01Z</time>
      </trkpt>
      <trkpt lat="43.7497" lon="7.05782">
        <ele>973.436</ele>
        <time>2014-03-21T15:09:06Z</time>
      </trkpt>
      <trkpt lat="43.74962" lon="7.05764">
        <ele>972.515</ele>
        <time>2014-03-21T15:09:12Z</time>
      </trkpt>
      <trkpt lat="43.74964" lon="7.05747">
        <ele>972.827</ele>
        <time>2014-03-21T15:09:17Z</time>
      </trkpt>
      <trkpt lat="43.74971" lon="7.05729">
        <ele>974.42</ele>
        <time>2014-03-21T15:09:24Z</time>
      </trkpt>
      <trkpt lat="43.74978" lon="7.05713">
        <ele>975.818</ele>
        <time>2014-03-21T15:09:31Z</time>
      </trkpt>
      <trkpt lat="43.74987" lon="7.05697">
        <ele>976.707</ele>
        <time>2014-03-21T15:09:40Z</time>
      </trkpt>
      <trkpt lat="43.74996" lon="7.05683">
        <ele>977.907</ele>
        <time>2014-03-21T15:09:49Z</time>
      </trkpt>
      <trkpt lat="43.74998" lon="7.05681">
        <ele>978.027</ele>
        <time>2014-03-21T15:09:51Z</time>
      </trkpt>
      <trkpt lat="43.75009" lon="7.05682">
        <ele>977.956</ele>
        <time>2014-03-21T15:09:59Z</time>
      </trkpt>
      <trkpt lat="43.7501" lon="7.05683">
        <ele>978.006</ele>
        <time>2014-03-21T15:10:00Z</time>
      </trkpt>
      <trkpt lat="43.75012" lon="7.05683">
        <ele>978.107</ele>
        <time>2014-03-21T15:10:02Z</time>
      </trkpt>
      <trkpt lat="43.75022" lon="7.05677">
        <ele>979.158</ele>
        <time>2014-03-21T15:10:13Z</time>
      </trkpt>
      <trkpt lat="43.75029" lon="7.0567">
        <ele>980.228</ele>
        <time>2014-03-21T15:10:21Z</time>
      </trkpt>
      <trkpt lat="43.75036" lon="7.05662">
        <ele>980.838</ele>
        <time>2014-03-21T15:10:28Z</time>
      </trkpt>
      <trkpt lat="43.75043" lon="7.05652">
        <ele>980.986</ele>
        <time>2014-03-21T15:10:35Z</time>
      </trkpt>
      <trkpt lat="43.75046" lon="7.05637">
        <ele>982.398</ele>
        <time>2014-03-21T15:10:41Z</time>
      </trkpt>
      <trkpt lat="43.75057" lon="7.05622">
        <ele>982.254</ele>
        <time>2014-03-21T15:10:47Z</time>
      </trkpt>
      <trkpt lat="43.75078" lon="7.056">
        <ele>980.743</ele>
        <time>2014-03-21T15:10:56Z</time>
      </trkpt>
      <trkpt lat="43.75096" lon="7.05582">
        <ele>980.271</ele>
        <time>2014-03-21T15:11:02Z</time>
      </trkpt>
      <trkpt lat="43.75104" lon="7.05575">
        <ele>979.9</ele>
        <time>2014-03-21T15:11:04Z</time>
      </trkpt>
      <trkpt lat="43.75123" lon="7.05562">
        <ele>979.192</ele>
        <time>2014-03-21T15:11:08Z</time>
      </trkpt>
      <trkpt lat="43.75137" lon="7.05554">
        <ele>978.401</ele>
        <time>2014-03-21T15:11:11Z</time>
      </trkpt>
      <trkpt lat="43.75156" lon="7.05529">
        <ele>977.482</ele>
        <time>2014-03-21T15:11:16Z</time>
      </trkpt>
      <trkpt lat="43.75164" lon="7.05519">
        <ele>977.182</ele>
        <time>2014-03-21T15:11:18Z</time>
      </trkpt>
      <trkpt lat="43.75186" lon="7.05487">
        <ele>976.046</ele>
        <time>2014-03-21T15:11:24Z</time>
      </trkpt>
      <trkpt lat="43.75203" lon="7.05473">
        <ele>974.392</ele>
        <time>2014-03-21T15:11:29Z</time>
      </trkpt>
      <trkpt lat="43.7522" lon="7.05458">
        <ele>972.524</ele>
        <time>2014-03-21T15:11:35Z</time>
      </trkpt>
      <trkpt lat="43.75241" lon="7.05436">
        <ele>972.929</ele>
        <time>2014-03-21T15:11:42Z</time>
      </trkpt>
      <trkpt lat="43.75255" lon="7.05419">
        <ele>973.959</ele>
        <time>2014-03-21T15:11:48Z</time>
      </trkpt>
      <trkpt lat="43.75267" lon="7.05401">
        <ele>974.498</ele>
        <time>2014-03-21T15:11:53Z</time>
      </trkpt>
      <trkpt lat="43.75272" lon="7.05382">
        <ele>975.389</ele>
        <time>2014-03-21T15:11:58Z</time>
      </trkpt>
      <trkpt lat="43.75282" lon="7.05359">
        <ele>976.41</ele>
        <time>2014-03-21T15:12:04Z</time>
      </trkpt>
      <trkpt lat="43.75291" lon="7.05334">
        <ele>978.2</ele>
        <time>2014-03-21T15:12:11Z</time>
      </trkpt>
      <trkpt lat="43.75296" lon="7.05308">
        <ele>979.927</ele>
        <time>2014-03-21T15:12:18Z</time>
      </trkpt>
      <trkpt lat="43.75306" lon="7.05291">
        <ele>979.748</ele>
        <time>2014-03-21T15:12:23Z</time>
      </trkpt>
      <trkpt lat="43.75322" lon="7.05267">
        <ele>979.328</ele>
        <time>2014-03-21T15:12:30Z</time>
      </trkpt>
      <trkpt lat="43.7534" lon="7.05241">
        <ele>978.907</ele>
        <time>2014-03-21T15:12:38Z</time>
      </trkpt>
      <trkpt lat="43.75359" lon="7.05212">
        <ele>979.607</ele>
        <time>2014-03-21T15:12:47Z</time>
      </trkpt>
      <trkpt lat="43.75375" lon="7.05182">
        <ele>980.927</ele>
        <time>2014-03-21T15:12:56Z</time>
      </trkpt>
      <trkpt lat="43.75384" lon="7.05164">
        <ele>980.239</ele>
        <time>2014-03-21T15:13:00Z</time>
      </trkpt>
      <trkpt lat="43.75395" lon="7.05147">
        <ele>979.991</ele>
        <time>2014-03-21T15:13:03Z</time>
      </trkpt>
      <trkpt lat="43.75412" lon="7.05139">
        <ele>979.896</ele>
        <time>2014-03-21T15:13:07Z</time>
      </trkpt>
      <trkpt lat="43.75425" lon="7.05133">
        <ele>980.638</ele>
        <time>2014-03-21T15:13:11Z</time>
      </trkpt>
      <trkpt lat="43.75437" lon="7.05119">
        <ele>981.348</ele>
        <time>2014-03-21T15:13:16Z</time>
      </trkpt>
      <trkpt lat="43.75446" lon="7.05097">
        <ele>980.816</ele>
        <time>2014-03-21T15:13:22Z</time>
      </trkpt>
      <trkpt lat="43.75454" lon="7.05072">
        <ele>980.095</ele>
        <time>2014-03-21T15:13:27Z</time>
      </trkpt>
      <trkpt lat="43.75457" lon="7.05046">
        <ele>981.177</ele>
        <time>2014-03-21T15:13:33Z</time>
      </trkpt>
      <trkpt lat="43.75464" lon="7.05013">
        <ele>982.357</ele>
        <time>2014-03-21T15:13:40Z</time>
      </trkpt>
      <trkpt lat="43.75465" lon="7.04994">
        <ele>984.33</ele>
        <time>2014-03-21T15:13:45Z</time>
      </trkpt>
      <trkpt lat="43.75476" lon="7.04981">
        <ele>985.101</ele>
        <time>2014-03-21T15:13:50Z</time>
      </trkpt>
      <trkpt lat="43.75485" lon="7.0497">
        <ele>986.3</ele>
        <time>2014-03-21T15:13:55Z</time>
      </trkpt>
      <trkpt lat="43.75496" lon="7.04957">
        <ele>986.245</ele>
        <time>2014-03-21T15:14:00Z</time>
      </trkpt>
      <trkpt lat="43.75501" lon="7.0494">
        <ele>986.294</ele>
        <time>2014-03-21T15:14:04Z</time>
      </trkpt>
      <trkpt lat="43.75508" lon="7.04897">
        <ele>983.836</ele>
        <time>2014-03-21T15:14:10Z</time>
      </trkpt>
      <trkpt lat="43.75517" lon="7.04855">
        <ele>977.281</ele>
        <time>2014-03-21T15:14:15Z</time>
      </trkpt>
      <trkpt lat="43.75528" lon="7.04824">
        <ele>973.901</ele>
        <time>2014-03-21T15:14:19Z</time>
      </trkpt>
      <trkpt lat="43.75547" lon="7.04773">
        <ele>971.025</ele>
        <time>2014-03-21T15:14:26Z</time>
      </trkpt>
      <trkpt lat="43.75564" lon="7.04743">
        <ele>972.305</ele>
        <time>2014-03-21T15:14:32Z</time>
      </trkpt>
      <trkpt lat="43.75581" lon="7.04721">
        <ele>973.348</ele>
        <time>2014-03-21T15:14:39Z</time>
      </trkpt>
      <trkpt lat="43.75598" lon="7.04696">
        <ele>974.568</ele>
        <time>2014-03-21T15:14:47Z</time>
      </trkpt>
      <trkpt lat="43.75612" lon="7.04678">
        <ele>975.358</ele>
        <time>2014-03-21T15:14:53Z</time>
      </trkpt>
      <trkpt lat="43.75628" lon="7.04662">
        <ele>975.757</ele>
        <time>2014-03-21T15:14:59Z</time>
      </trkpt>
      <trkpt lat="43.75652" lon="7.04639">
        <ele>977.18</ele>
        <time>2014-03-21T15:15:08Z</time>
      </trkpt>
      <trkpt lat="43.75667" lon="7.04623">
        <ele>979.431</ele>
        <time>2014-03-21T15:15:15Z</time>
      </trkpt>
      <trkpt lat="43.75686" lon="7.04603">
        <ele>980.526</ele>
        <time>2014-03-21T15:15:24Z</time>
      </trkpt>
      <trkpt lat="43.75699" lon="7.0459">
        <ele>981.164</ele>
        <time>2014-03-21T15:15:30Z</time>
      </trkpt>
      <trkpt lat="43.75711" lon="7.04576">
        <ele>980.144</ele>
        <time>2014-03-21T15:15:36Z</time>
      </trkpt>
      <trkpt lat="43.75722" lon="7.04566">
        <ele>980.938</ele>
        <time>2014-03-21T15:15:42Z</time>
      </trkpt>
      <trkpt lat="43.75735" lon="7.04549">
        <ele>980.845</ele>
        <time>2014-03-21T15:15:48Z</time>
      </trkpt>
      <trkpt lat="43.75749" lon="7.04533">
        <ele>981.531</ele>
        <time>2014-03-21T15:15:54Z</time>
      </trkpt>
      <trkpt lat="43.7575" lon="7.04516">
        <ele>981.398</ele>
        <time>2014-03-21T15:15:58Z</time>
      </trkpt>
      <trkpt lat="43.75748" lon="7.0449">
        <ele>982.807</ele>
        <time>2014-03-21T15:16:05Z</time>
      </trkpt>
      <trkpt lat="43.75757" lon="7.0447">
        <ele>983.897</ele>
        <time>2014-03-21T15:16:11Z</time>
      </trkpt>
      <trkpt lat="43.7576" lon="7.04458">
        <ele>985.519</ele>
        <time>2014-03-21T15:16:15Z</time>
      </trkpt>
      <trkpt lat="43.75758" lon="7.04439">
        <ele>985.166</ele>
        <time>2014-03-21T15:16:20Z</time>
      </trkpt>
      <trkpt lat="43.75756" lon="7.04417">
        <ele>984.212</ele>
        <time>2014-03-21T15:16:25Z</time>
      </trkpt>
      <trkpt lat="43.75756" lon="7.04393">
        <ele>982.421</ele>
        <time>2014-03-21T15:16:29Z</time>
      </trkpt>
      <trkpt lat="43.75761" lon="7.04362">
        <ele>981.403</ele>
        <time>2014-03-21T15:16:35Z</time>
      </trkpt>
      <trkpt lat="43.75772" lon="7.04341">
        <ele>980.812</ele>
        <time>2014-03-21T15:16:40Z</time>
      </trkpt>
      <trkpt lat="43.75793" lon="7.04326">
        <ele>981.136</ele>
        <time>2014-03-21T15:16:47Z</time>
      </trkpt>
      <trkpt lat="43.75806" lon="7.04313">
        <ele>980.492</ele>
        <time>2014-03-21T15:16:52Z</time>
      </trkpt>
      <trkpt lat="43.7581" lon="7.04289">
        <ele>979.202</ele>
        <time>2014-03-21T15:16:57Z</time>
      </trkpt>
      <trkpt lat="43.7581" lon="7.04256">
        <ele>978.142</ele>
        <time>2014-03-21T15:17:04Z</time>
      </trkpt>
      <trkpt lat="43.75816" lon="7.04234">
        <ele>978.265</ele>
        <time>2014-03-21T15:17:09Z</time>
      </trkpt>
      <trkpt lat="43.75827" lon="7.04211">
        <ele>978.204</ele>
        <time>2014-03-21T15:17:15Z</time>
      </trkpt>
      <trkpt lat="43.75839" lon="7.04193">
        <ele>978.394</ele>
        <time>2014-03-21T15:17:21Z</time>
      </trkpt>
      <trkpt lat="43.75846" lon="7.04185">
        <ele>978.676</ele>
        <time>2014-03-21T15:17:25Z</time>
      </trkpt>
      <trkpt lat="43.75849" lon="7.0416">
        <ele>978.852</ele>
        <time>2014-03-21T15:17:32Z</time>
      </trkpt>
      <trkpt lat="43.75851" lon="7.04141">
        <ele>978.04</ele>
        <time>2014-03-21T15:17:37Z</time>
      </trkpt>
      <trkpt lat="43.75855" lon="7.04121">
        <ele>975.376</ele>
        <time>2014-03-21T15:17:41Z</time>
      </trkpt>
      <trkpt lat="43.75856" lon="7.04114">
        <ele>974.554</ele>
        <time>2014-03-21T15:17:42Z</time>
      </trkpt>
      <trkpt lat="43.7586" lon="7.04101">
        <ele>972.901</ele>
        <time>2014-03-21T15:17:44Z</time>
      </trkpt>
      <trkpt lat="43.75867" lon="7.04076">
        <ele>972.269</ele>
        <time>2014-03-21T15:17:48Z</time>
      </trkpt>
      <trkpt lat="43.75865" lon="7.04064">
        <ele>972.231</ele>
        <time>2014-03-21T15:17:50Z</time>
      </trkpt>
      <trkpt lat="43.75859" lon="7.04036">
        <ele>971.671</ele>
        <time>2014-03-21T15:17:56Z</time>
      </trkpt>
      <trkpt lat="43.75848" lon="7.04008">
        <ele>969.416</ele>
        <time>2014-03-21T15:18:01Z</time>
      </trkpt>
      <trkpt lat="43.75836" lon="7.03985">
        <ele>966.826</ele>
        <time>2014-03-21T15:18:05Z</time>
      </trkpt>
      <trkpt lat="43.75834" lon="7.03958">
        <ele>964.937</ele>
        <time>2014-03-21T15:18:09Z</time>
      </trkpt>
      <trkpt lat="43.7583" lon="7.03928">
        <ele>964.922</ele>
        <time>2014-03-21T15:18:14Z</time>
      </trkpt>
      <trkpt lat="43.75823" lon="7.03898">
        <ele>965.094</ele>
        <time>2014-03-21T15:18:20Z</time>
      </trkpt>
      <trkpt lat="43.75821" lon="7.03889">
        <ele>965.134</ele>
        <time>2014-03-21T15:18:22Z</time>
      </trkpt>
      <trkpt lat="43.75816" lon="7.03868">
        <ele>965.064</ele>
        <time>2014-03-21T15:18:26Z</time>
      </trkpt>
      <trkpt lat="43.75815" lon="7.03848">
        <ele>966.215</ele>
        <time>2014-03-21T15:18:32Z</time>
      </trkpt>
      <trkpt lat="43.75819" lon="7.03842">
        <ele>966.694</ele>
        <time>2014-03-21T15:18:35Z</time>
      </trkpt>
      <trkpt lat="43.75827" lon="7.03839">
        <ele>967.617</ele>
        <time>2014-03-21T15:18:39Z</time>
      </trkpt>
      <trkpt lat="43.75833" lon="7.03828">
        <ele>968.025</ele>
        <time>2014-03-21T15:18:44Z</time>
      </trkpt>
      <trkpt lat="43.75833" lon="7.03819">
        <ele>968.114</ele>
        <time>2014-03-21T15:18:48Z</time>
      </trkpt>
      <trkpt lat="43.7583" lon="7.03808">
        <ele>967.572</ele>
        <time>2014-03-21T15:18:52Z</time>
      </trkpt>
      <trkpt lat="43.7583" lon="7.03786">
        <ele>968.473</ele>
        <time>2014-03-21T15:19:00Z</time>
      </trkpt>
      <trkpt lat="43.75832" lon="7.03769">
        <ele>968.169</ele>
        <time>2014-03-21T15:19:04Z</time>
      </trkpt>
      <trkpt lat="43.75831" lon="7.03749">
        <ele>966.074</ele>
        <time>2014-03-21T15:19:08Z</time>
      </trkpt>
      <trkpt lat="43.75821" lon="7.03717">
        <ele>962.028</ele>
        <time>2014-03-21T15:19:13Z</time>
      </trkpt>
      <trkpt lat="43.75813" lon="7.03675">
        <ele>958.622</ele>
        <time>2014-03-21T15:19:18Z</time>
      </trkpt>
      <trkpt lat="43.75812" lon="7.03658">
        <ele>957.311</ele>
        <time>2014-03-21T15:19:20Z</time>
      </trkpt>
      <trkpt lat="43.75821" lon="7.0361">
        <ele>953.98</ele>
        <time>2014-03-21T15:19:25Z</time>
      </trkpt>
      <trkpt lat="43.75822" lon="7.036">
        <ele>953.631</ele>
        <time>2014-03-21T15:19:26Z</time>
      </trkpt>
      <trkpt lat="43.75832" lon="7.03548">
        <ele>950.583</ele>
        <time>2014-03-21T15:19:32Z</time>
      </trkpt>
      <trkpt lat="43.75828" lon="7.03511">
        <ele>948.425</ele>
        <time>2014-03-21T15:19:38Z</time>
      </trkpt>
      <trkpt lat="43.75819" lon="7.03498">
        <ele>948.202</ele>
        <time>2014-03-21T15:19:42Z</time>
      </trkpt>
      <trkpt lat="43.75803" lon="7.03484">
        <ele>948.285</ele>
        <time>2014-03-21T15:19:49Z</time>
      </trkpt>
      <trkpt lat="43.75789" lon="7.03469">
        <ele>948.111</ele>
        <time>2014-03-21T15:19:55Z</time>
      </trkpt>
      <trkpt lat="43.75774" lon="7.03448">
        <ele>948.142</ele>
        <time>2014-03-21T15:20:03Z</time>
      </trkpt>
      <trkpt lat="43.75763" lon="7.03425">
        <ele>947.3</ele>
        <time>2014-03-21T15:20:09Z</time>
      </trkpt>
      <trkpt lat="43.7575" lon="7.03396">
        <ele>946.252</ele>
        <time>2014-03-21T15:20:15Z</time>
      </trkpt>
      <trkpt lat="43.75734" lon="7.03375">
        <ele>947.487</ele>
        <time>2014-03-21T15:20:22Z</time>
      </trkpt>
      <trkpt lat="43.75717" lon="7.03361">
        <ele>948.014</ele>
        <time>2014-03-21T15:20:28Z</time>
      </trkpt>
      <trkpt lat="43.75705" lon="7.03341">
        <ele>947.831</ele>
        <time>2014-03-21T15:20:34Z</time>
      </trkpt>
      <trkpt lat="43.75693" lon="7.03315">
        <ele>948.654</ele>
        <time>2014-03-21T15:20:42Z</time>
      </trkpt>
      <trkpt lat="43.75691" lon="7.03288">
        <ele>949.263</ele>
        <time>2014-03-21T15:20:49Z</time>
      </trkpt>
      <trkpt lat="43.75685" lon="7.03269">
        <ele>950.558</ele>
        <time>2014-03-21T15:20:55Z</time>
      </trkpt>
      <trkpt lat="43.75672" lon="7.03242">
        <ele>952.805</ele>
        <time>2014-03-21T15:21:05Z</time>
      </trkpt>
      <trkpt lat="43.7566" lon="7.03216">
        <ele>953.884</ele>
        <time>2014-03-21T15:21:14Z</time>
      </trkpt>
      <trkpt lat="43.75656" lon="7.03198">
        <ele>954.955</ele>
        <time>2014-03-21T15:21:20Z</time>
      </trkpt>
      <trkpt lat="43.75649" lon="7.03177">
        <ele>955.014</ele>
        <time>2014-03-21T15:21:26Z</time>
      </trkpt>
      <trkpt lat="43.75645" lon="7.03156">
        <ele>955.032</ele>
        <time>2014-03-21T15:21:32Z</time>
      </trkpt>
      <trkpt lat="43.75642" lon="7.03135">
        <ele>955.693</ele>
        <time>2014-03-21T15:21:38Z</time>
      </trkpt>
      <trkpt lat="43.75641" lon="7.03111">
        <ele>954.259</ele>
        <time>2014-03-21T15:21:44Z</time>
      </trkpt>
      <trkpt lat="43.75643" lon="7.03086">
        <ele>954.141</ele>
        <time>2014-03-21T15:21:50Z</time>
      </trkpt>
      <trkpt lat="43.75639" lon="7.03058">
        <ele>952.909</ele>
        <time>2014-03-21T15:21:56Z</time>
      </trkpt>
      <trkpt lat="43.7563" lon="7.03039">
        <ele>952.531</ele>
        <time>2014-03-21T15:22:01Z</time>
      </trkpt>
      <trkpt lat="43.75619" lon="7.03014">
        <ele>952.762</ele>
        <time>2014-03-21T15:22:07Z</time>
      </trkpt>
      <trkpt lat="43.75609" lon="7.02994">
        <ele>952.39</ele>
        <time>2014-03-21T15:22:12Z</time>
      </trkpt>
      <trkpt lat="43.75606" lon="7.02969">
        <ele>951.549</ele>
        <time>2014-03-21T15:22:17Z</time>
      </trkpt>
      <trkpt lat="43.75612" lon="7.02961">
        <ele>951.409</ele>
        <time>2014-03-21T15:22:19Z</time>
      </trkpt>
      <trkpt lat="43.75622" lon="7.0295">
        <ele>950.818</ele>
        <time>2014-03-21T15:22:22Z</time>
      </trkpt>
      <trkpt lat="43.75651" lon="7.02916">
        <ele>949.146</ele>
        <time>2014-03-21T15:22:30Z</time>
      </trkpt>
      <trkpt lat="43.75677" lon="7.02912">
        <ele>946.781</ele>
        <time>2014-03-21T15:22:35Z</time>
      </trkpt>
      <trkpt lat="43.75701" lon="7.02901">
        <ele>944.711</ele>
        <time>2014-03-21T15:22:39Z</time>
      </trkpt>
      <trkpt lat="43.75711" lon="7.02889">
        <ele>944.042</ele>
        <time>2014-03-21T15:22:41Z</time>
      </trkpt>
      <trkpt lat="43.75713" lon="7.02872">
        <ele>943.273</ele>
        <time>2014-03-21T15:22:43Z</time>
      </trkpt>
      <trkpt lat="43.75718" lon="7.02819">
        <ele>943.131</ele>
        <time>2014-03-21T15:22:50Z</time>
      </trkpt>
      <trkpt lat="43.7572" lon="7.02804">
        <ele>943.342</ele>
        <time>2014-03-21T15:22:53Z</time>
      </trkpt>
      <trkpt lat="43.75719" lon="7.02774">
        <ele>944.714</ele>
        <time>2014-03-21T15:22:58Z</time>
      </trkpt>
      <trkpt lat="43.75729" lon="7.02748">
        <ele>947.188</ele>
        <time>2014-03-21T15:23:03Z</time>
      </trkpt>
      <trkpt lat="43.75741" lon="7.02732">
        <ele>948.266</ele>
        <time>2014-03-21T15:23:08Z</time>
      </trkpt>
      <trkpt lat="43.75756" lon="7.02726">
        <ele>948.903</ele>
        <time>2014-03-21T15:23:13Z</time>
      </trkpt>
      <trkpt lat="43.75761" lon="7.02722">
        <ele>949.023</ele>
        <time>2014-03-21T15:23:15Z</time>
      </trkpt>
      <trkpt lat="43.75762" lon="7.02702">
        <ele>948.922</ele>
        <time>2014-03-21T15:23:20Z</time>
      </trkpt>
      <trkpt lat="43.75762" lon="7.02697">
        <ele>949.292</ele>
        <time>2014-03-21T15:23:22Z</time>
      </trkpt>
      <trkpt lat="43.7576" lon="7.02693">
        <ele>948.44</ele>
        <time>2014-03-21T15:23:27Z</time>
      </trkpt>
      <trkpt lat="43.75755" lon="7.02688">
        <ele>939.681</ele>
        <time>2014-03-21T15:29:07Z</time>
      </trkpt>
      <trkpt lat="43.75752" lon="7.02685">
        <ele>937.338</ele>
        <time>2014-03-21T15:29:16Z</time>
      </trkpt>
      <trkpt lat="43.75762" lon="7.02677">
        <ele>939.654</ele>
        <time>2014-03-21T15:29:22Z</time>
      </trkpt>
      <trkpt lat="43.75765" lon="7.02672">
        <ele>940.593</ele>
        <time>2014-03-21T15:29:24Z</time>
      </trkpt>
      <trkpt lat="43.75772" lon="7.02657">
        <ele>941.489</ele>
        <time>2014-03-21T15:29:29Z</time>
      </trkpt>
      <trkpt lat="43.75778" lon="7.02637">
        <ele>940.635</ele>
        <time>2014-03-21T15:29:33Z</time>
      </trkpt>
      <trkpt lat="43.75779" lon="7.02631">
        <ele>940.526</ele>
        <time>2014-03-21T15:29:34Z</time>
      </trkpt>
      <trkpt lat="43.75783" lon="7.02608">
        <ele>940.729</ele>
        <time>2014-03-21T15:29:38Z</time>
      </trkpt>
      <trkpt lat="43.75787" lon="7.02559">
        <ele>939.428</ele>
        <time>2014-03-21T15:29:47Z</time>
      </trkpt>
      <trkpt lat="43.75785" lon="7.02533">
        <ele>938.817</ele>
        <time>2014-03-21T15:29:52Z</time>
      </trkpt>
      <trkpt lat="43.75783" lon="7.02502">
        <ele>938.45</ele>
        <time>2014-03-21T15:29:57Z</time>
      </trkpt>
      <trkpt lat="43.75784" lon="7.0248">
        <ele>938.751</ele>
        <time>2014-03-21T15:30:01Z</time>
      </trkpt>
      <trkpt lat="43.75784" lon="7.02474">
        <ele>938.76</ele>
        <time>2014-03-21T15:30:02Z</time>
      </trkpt>
      <trkpt lat="43.75773" lon="7.0243">
        <ele>939.761</ele>
        <time>2014-03-21T15:30:10Z</time>
      </trkpt>
      <trkpt lat="43.75774" lon="7.02409">
        <ele>940.19</ele>
        <time>2014-03-21T15:30:14Z</time>
      </trkpt>
      <trkpt lat="43.75777" lon="7.02382">
        <ele>941.463</ele>
        <time>2014-03-21T15:30:19Z</time>
      </trkpt>
      <trkpt lat="43.75784" lon="7.02355">
        <ele>942.301</ele>
        <time>2014-03-21T15:30:25Z</time>
      </trkpt>
      <trkpt lat="43.75789" lon="7.0233">
        <ele>942.893</ele>
        <time>2014-03-21T15:30:30Z</time>
      </trkpt>
      <trkpt lat="43.75791" lon="7.02307">
        <ele>942.801</ele>
        <time>2014-03-21T15:30:36Z</time>
      </trkpt>
      <trkpt lat="43.75789" lon="7.02297">
        <ele>943.505</ele>
        <time>2014-03-21T15:30:39Z</time>
      </trkpt>
      <trkpt lat="43.75789" lon="7.02274">
        <ele>944.316</ele>
        <time>2014-03-21T15:30:45Z</time>
      </trkpt>
      <trkpt lat="43.7578" lon="7.02263">
        <ele>945.706</ele>
        <time>2014-03-21T15:30:51Z</time>
      </trkpt>
      <trkpt lat="43.75776" lon="7.02256">
        <ele>946.486</ele>
        <time>2014-03-21T15:30:54Z</time>
      </trkpt>
      <trkpt lat="43.75775" lon="7.02242">
        <ele>946.172</ele>
        <time>2014-03-21T15:30:59Z</time>
      </trkpt>
      <trkpt lat="43.75777" lon="7.02221">
        <ele>946.121</ele>
        <time>2014-03-21T15:31:06Z</time>
      </trkpt>
      <trkpt lat="43.75777" lon="7.02203">
        <ele>946.22</ele>
        <time>2014-03-21T15:31:11Z</time>
      </trkpt>
      <trkpt lat="43.75773" lon="7.02182">
        <ele>947.102</ele>
        <time>2014-03-21T15:31:17Z</time>
      </trkpt>
      <trkpt lat="43.75773" lon="7.02178">
        <ele>947.322</ele>
        <time>2014-03-21T15:31:18Z</time>
      </trkpt>
      <trkpt lat="43.75779" lon="7.02169">
        <ele>948.093</ele>
        <time>2014-03-21T15:31:22Z</time>
      </trkpt>
      <trkpt lat="43.7579" lon="7.02132">
        <ele>946.967</ele>
        <time>2014-03-21T15:31:31Z</time>
      </trkpt>
      <trkpt lat="43.75795" lon="7.02106">
        <ele>946.81</ele>
        <time>2014-03-21T15:31:37Z</time>
      </trkpt>
      <trkpt lat="43.75798" lon="7.02079">
        <ele>947.543</ele>
        <time>2014-03-21T15:31:44Z</time>
      </trkpt>
      <trkpt lat="43.75806" lon="7.02058">
        <ele>949.356</ele>
        <time>2014-03-21T15:31:51Z</time>
      </trkpt>
      <trkpt lat="43.75807" lon="7.02045">
        <ele>950.856</ele>
        <time>2014-03-21T15:31:56Z</time>
      </trkpt>
      <trkpt lat="43.75808" lon="7.0203">
        <ele>952.336</ele>
        <time>2014-03-21T15:32:02Z</time>
      </trkpt>
      <trkpt lat="43.75809" lon="7.02007">
        <ele>954.714</ele>
        <time>2014-03-21T15:32:11Z</time>
      </trkpt>
      <trkpt lat="43.75806" lon="7.01983">
        <ele>956.553</ele>
        <time>2014-03-21T15:32:20Z</time>
      </trkpt>
      <trkpt lat="43.75807" lon="7.01961">
        <ele>957.951</ele>
        <time>2014-03-21T15:32:29Z</time>
      </trkpt>
      <trkpt lat="43.75808" lon="7.01945">
        <ele>958.39</ele>
        <time>2014-03-21T15:32:35Z</time>
      </trkpt>
      <trkpt lat="43.75808" lon="7.01922">
        <ele>959.41</ele>
        <time>2014-03-21T15:32:43Z</time>
      </trkpt>
      <trkpt lat="43.75804" lon="7.01906">
        <ele>960.051</ele>
        <time>2014-03-21T15:32:49Z</time>
      </trkpt>
      <trkpt lat="43.75803" lon="7.01893">
        <ele>961.565</ele>
        <time>2014-03-21T15:32:54Z</time>
      </trkpt>
      <trkpt lat="43.75807" lon="7.01869">
        <ele>960.43</ele>
        <time>2014-03-21T15:33:02Z</time>
      </trkpt>
      <trkpt lat="43.75808" lon="7.0184">
        <ele>960.62</ele>
        <time>2014-03-21T15:33:11Z</time>
      </trkpt>
      <trkpt lat="43.75806" lon="7.0181">
        <ele>962.049</ele>
        <time>2014-03-21T15:33:20Z</time>
      </trkpt>
      <trkpt lat="43.75807" lon="7.01782">
        <ele>963.044</ele>
        <time>2014-03-21T15:33:28Z</time>
      </trkpt>
      <trkpt lat="43.75807" lon="7.0175">
        <ele>962.698</ele>
        <time>2014-03-21T15:33:36Z</time>
      </trkpt>
      <trkpt lat="43.75813" lon="7.01728">
        <ele>962.842</ele>
        <time>2014-03-21T15:33:42Z</time>
      </trkpt>
      <trkpt lat="43.75817" lon="7.01703">
        <ele>964.682</ele>
        <time>2014-03-21T15:33:49Z</time>
      </trkpt>
      <trkpt lat="43.75813" lon="7.01676">
        <ele>965.53</ele>
        <time>2014-03-21T15:33:56Z</time>
      </trkpt>
      <trkpt lat="43.75805" lon="7.01656">
        <ele>965.82</ele>
        <time>2014-03-21T15:34:02Z</time>
      </trkpt>
      <trkpt lat="43.75799" lon="7.01642">
        <ele>965.778</ele>
        <time>2014-03-21T15:34:06Z</time>
      </trkpt>
      <trkpt lat="43.75799" lon="7.01619">
        <ele>966.38</ele>
        <time>2014-03-21T15:34:12Z</time>
      </trkpt>
      <trkpt lat="43.75797" lon="7.01596">
        <ele>967.17</ele>
        <time>2014-03-21T15:34:18Z</time>
      </trkpt>
      <trkpt lat="43.75797" lon="7.01581">
        <ele>967.45</ele>
        <time>2014-03-21T15:34:23Z</time>
      </trkpt>
      <trkpt lat="43.75793" lon="7.01567">
        <ele>966.747</ele>
        <time>2014-03-21T15:34:27Z</time>
      </trkpt>
      <trkpt lat="43.75799" lon="7.01556">
        <ele>964.91</ele>
        <time>2014-03-21T15:34:32Z</time>
      </trkpt>
      <trkpt lat="43.75799" lon="7.01557">
        <ele>962.78</ele>
        <time>2014-03-21T15:34:38Z</time>
      </trkpt>
      <trkpt lat="43.75798" lon="7.01556">
        <ele>957.251</ele>
        <time>2014-03-21T15:35:05Z</time>
      </trkpt>
      <trkpt lat="43.75797" lon="7.01556">
        <ele>957.76</ele>
        <time>2014-03-21T15:35:10Z</time>
      </trkpt>
      <trkpt lat="43.75802" lon="7.01543">
        <ele>957.228</ele>
        <time>2014-03-21T15:35:15Z</time>
      </trkpt>
      <trkpt lat="43.75815" lon="7.01534">
        <ele>956.063</ele>
        <time>2014-03-21T15:35:19Z</time>
      </trkpt>
      <trkpt lat="43.75828" lon="7.01527">
        <ele>954.717</ele>
        <time>2014-03-21T15:35:22Z</time>
      </trkpt>
      <trkpt lat="43.75845" lon="7.01515">
        <ele>951.881</ele>
        <time>2014-03-21T15:35:26Z</time>
      </trkpt>
      <trkpt lat="43.75861" lon="7.01502">
        <ele>948.448</ele>
        <time>2014-03-21T15:35:30Z</time>
      </trkpt>
      <trkpt lat="43.75889" lon="7.01478">
        <ele>941.759</ele>
        <time>2014-03-21T15:35:36Z</time>
      </trkpt>
      <trkpt lat="43.75894" lon="7.01473">
        <ele>940.575</ele>
        <time>2014-03-21T15:35:37Z</time>
      </trkpt>
      <trkpt lat="43.75908" lon="7.01464">
        <ele>937.444</ele>
        <time>2014-03-21T15:35:40Z</time>
      </trkpt>
      <trkpt lat="43.75923" lon="7.01459">
        <ele>935.495</ele>
        <time>2014-03-21T15:35:44Z</time>
      </trkpt>
      <trkpt lat="43.75934" lon="7.01455">
        <ele>934.649</ele>
        <time>2014-03-21T15:35:47Z</time>
      </trkpt>
      <trkpt lat="43.75954" lon="7.01445">
        <ele>932.666</ele>
        <time>2014-03-21T15:35:52Z</time>
      </trkpt>
      <trkpt lat="43.75974" lon="7.01432">
        <ele>930.664</ele>
        <time>2014-03-21T15:35:56Z</time>
      </trkpt>
      <trkpt lat="43.75988" lon="7.01422">
        <ele>928.881</ele>
        <time>2014-03-21T15:36:00Z</time>
      </trkpt>
      <trkpt lat="43.75999" lon="7.01409">
        <ele>925.772</ele>
        <time>2014-03-21T15:36:03Z</time>
      </trkpt>
      <trkpt lat="43.76015" lon="7.01384">
        <ele>920.687</ele>
        <time>2014-03-21T15:36:07Z</time>
      </trkpt>
      <trkpt lat="43.76026" lon="7.0136">
        <ele>916.994</ele>
        <time>2014-03-21T15:36:11Z</time>
      </trkpt>
      <trkpt lat="43.76032" lon="7.01351">
        <ele>915.704</ele>
        <time>2014-03-21T15:36:13Z</time>
      </trkpt>
      <trkpt lat="43.76038" lon="7.01342">
        <ele>914.126</ele>
        <time>2014-03-21T15:36:15Z</time>
      </trkpt>
      <trkpt lat="43.7605" lon="7.01327">
        <ele>911.767</ele>
        <time>2014-03-21T15:36:19Z</time>
      </trkpt>
      <trkpt lat="43.76051" lon="7.01319">
        <ele>910.263</ele>
        <time>2014-03-21T15:36:21Z</time>
      </trkpt>
      <trkpt lat="43.76057" lon="7.01281">
        <ele>906.286</ele>
        <time>2014-03-21T15:36:27Z</time>
      </trkpt>
      <trkpt lat="43.76063" lon="7.01256">
        <ele>904.464</ele>
        <time>2014-03-21T15:36:32Z</time>
      </trkpt>
      <trkpt lat="43.76056" lon="7.01227">
        <ele>899.601</ele>
        <time>2014-03-21T15:36:36Z</time>
      </trkpt>
      <trkpt lat="43.76055" lon="7.01194">
        <ele>896.547</ele>
        <time>2014-03-21T15:36:40Z</time>
      </trkpt>
      <trkpt lat="43.76055" lon="7.01167">
        <ele>892.828</ele>
        <time>2014-03-21T15:36:44Z</time>
      </trkpt>
      <trkpt lat="43.76056" lon="7.01151">
        <ele>890.516</ele>
        <time>2014-03-21T15:36:46Z</time>
      </trkpt>
      <trkpt lat="43.76056" lon="7.01136">
        <ele>887.632</ele>
        <time>2014-03-21T15:36:48Z</time>
      </trkpt>
      <trkpt lat="43.76057" lon="7.01105">
        <ele>882.09</ele>
        <time>2014-03-21T15:36:53Z</time>
      </trkpt>
      <trkpt lat="43.76057" lon="7.01076">
        <ele>877.415</ele>
        <time>2014-03-21T15:36:57Z</time>
      </trkpt>
      <trkpt lat="43.76057" lon="7.01038">
        <ele>872.707</ele>
        <time>2014-03-21T15:37:02Z</time>
      </trkpt>
      <trkpt lat="43.76057" lon="7.01033">
        <ele>871.832</ele>
        <time>2014-03-21T15:37:03Z</time>
      </trkpt>
      <trkpt lat="43.76055" lon="7.00999">
        <ele>867.241</ele>
        <time>2014-03-21T15:37:08Z</time>
      </trkpt>
      <trkpt lat="43.76052" lon="7.01">
        <ele>865.74</ele>
        <time>2014-03-21T15:37:10Z</time>
      </trkpt>
      <trkpt lat="43.76041" lon="7.01019">
        <ele>861.291</ele>
        <time>2014-03-21T15:37:15Z</time>
      </trkpt>
      <trkpt lat="43.76038" lon="7.01012">
        <ele>858.877</ele>
        <time>2014-03-21T15:37:19Z</time>
      </trkpt>
      <trkpt lat="43.76036" lon="7.01004">
        <ele>857.267</ele>
        <time>2014-03-21T15:37:21Z</time>
      </trkpt>
      <trkpt lat="43.7603" lon="7.01007">
        <ele>855.642</ele>
        <time>2014-03-21T15:37:25Z</time>
      </trkpt>
      <trkpt lat="43.76019" lon="7.0103">
        <ele>851.836</ele>
        <time>2014-03-21T15:37:29Z</time>
      </trkpt>
      <trkpt lat="43.76004" lon="7.01064">
        <ele>847.188</ele>
        <time>2014-03-21T15:37:34Z</time>
      </trkpt>
      <trkpt lat="43.75988" lon="7.01083">
        <ele>842.352</ele>
        <time>2014-03-21T15:37:38Z</time>
      </trkpt>
      <trkpt lat="43.75985" lon="7.01086">
        <ele>840.867</ele>
        <time>2014-03-21T15:37:39Z</time>
      </trkpt>
      <trkpt lat="43.75977" lon="7.01092">
        <ele>838.998</ele>
        <time>2014-03-21T15:37:41Z</time>
      </trkpt>
      <trkpt lat="43.75957" lon="7.01121">
        <ele>834.206</ele>
        <time>2014-03-21T15:37:46Z</time>
      </trkpt>
      <trkpt lat="43.75949" lon="7.01132">
        <ele>832.734</ele>
        <time>2014-03-21T15:37:48Z</time>
      </trkpt>
      <trkpt lat="43.75938" lon="7.0115">
        <ele>830.788</ele>
        <time>2014-03-21T15:37:51Z</time>
      </trkpt>
      <trkpt lat="43.75929" lon="7.01162">
        <ele>828.14</ele>
        <time>2014-03-21T15:37:54Z</time>
      </trkpt>
      <trkpt lat="43.75925" lon="7.01157">
        <ele>825.636</ele>
        <time>2014-03-21T15:37:57Z</time>
      </trkpt>
      <trkpt lat="43.75924" lon="7.01153">
        <ele>824.52</ele>
        <time>2014-03-21T15:38:01Z</time>
      </trkpt>
      <trkpt lat="43.75922" lon="7.01144">
        <ele>824.479</ele>
        <time>2014-03-21T15:38:34Z</time>
      </trkpt>
      <trkpt lat="43.75924" lon="7.0113">
        <ele>822.302</ele>
        <time>2014-03-21T15:38:38Z</time>
      </trkpt>
      <trkpt lat="43.75919" lon="7.01127">
        <ele>819.985</ele>
        <time>2014-03-21T15:38:41Z</time>
      </trkpt>
      <trkpt lat="43.75913" lon="7.01132">
        <ele>818.176</ele>
        <time>2014-03-21T15:38:43Z</time>
      </trkpt>
      <trkpt lat="43.75907" lon="7.01125">
        <ele>815.452</ele>
        <time>2014-03-21T15:38:48Z</time>
      </trkpt>
      <trkpt lat="43.75909" lon="7.01117">
        <ele>814.723</ele>
        <time>2014-03-21T15:38:50Z</time>
      </trkpt>
      <trkpt lat="43.759" lon="7.01121">
        <ele>812.354</ele>
        <time>2014-03-21T15:38:54Z</time>
      </trkpt>
      <trkpt lat="43.75896" lon="7.01122">
        <ele>810.87</ele>
        <time>2014-03-21T15:38:57Z</time>
      </trkpt>
      <trkpt lat="43.75898" lon="7.01107">
        <ele>809.061</ele>
        <time>2014-03-21T15:39:01Z</time>
      </trkpt>
      <trkpt lat="43.75889" lon="7.01114">
        <ele>807.769</ele>
        <time>2014-03-21T15:39:04Z</time>
      </trkpt>
      <trkpt lat="43.75886" lon="7.01112">
        <ele>804.823</ele>
        <time>2014-03-21T15:39:09Z</time>
      </trkpt>
      <trkpt lat="43.75884" lon="7.01104">
        <ele>803.223</ele>
        <time>2014-03-21T15:39:13Z</time>
      </trkpt>
      <trkpt lat="43.75878" lon="7.01103">
        <ele>801.845</ele>
        <time>2014-03-21T15:39:17Z</time>
      </trkpt>
      <trkpt lat="43.75878" lon="7.01094">
        <ele>800.877</ele>
        <time>2014-03-21T15:39:20Z</time>
      </trkpt>
      <trkpt lat="43.75869" lon="7.01097">
        <ele>799.215</ele>
        <time>2014-03-21T15:39:23Z</time>
      </trkpt>
      <trkpt lat="43.75866" lon="7.01099">
        <ele>798.632</ele>
        <time>2014-03-21T15:39:24Z</time>
      </trkpt>
      <trkpt lat="43.7585" lon="7.01106">
        <ele>794.805</ele>
        <time>2014-03-21T15:39:29Z</time>
      </trkpt>
      <trkpt lat="43.75851" lon="7.0109">
        <ele>792.813</ele>
        <time>2014-03-21T15:39:33Z</time>
      </trkpt>
      <trkpt lat="43.75842" lon="7.01074">
        <ele>787.744</ele>
        <time>2014-03-21T15:39:39Z</time>
      </trkpt>
      <trkpt lat="43.75843" lon="7.01073">
        <ele>787.441</ele>
        <time>2014-03-21T15:39:45Z</time>
      </trkpt>
      <trkpt lat="43.75842" lon="7.01072">
        <ele>786.435</ele>
        <time>2014-03-21T15:39:52Z</time>
      </trkpt>
      <trkpt lat="43.75842" lon="7.01061">
        <ele>786.345</ele>
        <time>2014-03-21T15:39:58Z</time>
      </trkpt>
      <trkpt lat="43.75849" lon="7.01053">
        <ele>786.745</ele>
        <time>2014-03-21T15:40:02Z</time>
      </trkpt>
      <trkpt lat="43.75861" lon="7.01039">
        <ele>787.815</ele>
        <time>2014-03-21T15:40:09Z</time>
      </trkpt>
      <trkpt lat="43.75864" lon="7.01031">
        <ele>788.44</ele>
        <time>2014-03-21T15:40:13Z</time>
      </trkpt>
      <trkpt lat="43.7586" lon="7.01021">
        <ele>788.067</ele>
        <time>2014-03-21T15:40:18Z</time>
      </trkpt>
      <trkpt lat="43.7586" lon="7.0102">
        <ele>788.54</ele>
        <time>2014-03-21T15:40:20Z</time>
      </trkpt>
      <trkpt lat="43.75863" lon="7.01005">
        <ele>788.818</ele>
        <time>2014-03-21T15:40:26Z</time>
      </trkpt>
      <trkpt lat="43.75866" lon="7.00995">
        <ele>789.432</ele>
        <time>2014-03-21T15:40:30Z</time>
      </trkpt>
      <trkpt lat="43.75869" lon="7.00984">
        <ele>790.42</ele>
        <time>2014-03-21T15:40:35Z</time>
      </trkpt>
      <trkpt lat="43.75869" lon="7.00974">
        <ele>791.919</ele>
        <time>2014-03-21T15:40:40Z</time>
      </trkpt>
      <trkpt lat="43.75872" lon="7.0096">
        <ele>797.796</ele>
        <time>2014-03-21T15:40:47Z</time>
      </trkpt>
      <trkpt lat="43.75881" lon="7.00947">
        <ele>804.421</ele>
        <time>2014-03-21T15:40:54Z</time>
      </trkpt>
      <trkpt lat="43.75887" lon="7.0093">
        <ele>808.282</ele>
        <time>2014-03-21T15:41:02Z</time>
      </trkpt>
      <trkpt lat="43.75889" lon="7.00913">
        <ele>813.409</ele>
        <time>2014-03-21T15:41:10Z</time>
      </trkpt>
      <trkpt lat="43.75889" lon="7.00892">
        <ele>813.899</ele>
        <time>2014-03-21T15:41:19Z</time>
      </trkpt>
      <trkpt lat="43.75889" lon="7.00876">
        <ele>812.849</ele>
        <time>2014-03-21T15:41:27Z</time>
      </trkpt>
      <trkpt lat="43.75887" lon="7.00859">
        <ele>812.456</ele>
        <time>2014-03-21T15:41:35Z</time>
      </trkpt>
      <trkpt lat="43.7588" lon="7.0085">
        <ele>812.666</ele>
        <time>2014-03-21T15:41:41Z</time>
      </trkpt>
      <trkpt lat="43.75872" lon="7.00846">
        <ele>812.476</ele>
        <time>2014-03-21T15:41:47Z</time>
      </trkpt>
      <trkpt lat="43.75872" lon="7.0084">
        <ele>814.137</ele>
        <time>2014-03-21T15:41:51Z</time>
      </trkpt>
      <trkpt lat="43.75872" lon="7.00834">
        <ele>815.847</ele>
        <time>2014-03-21T15:41:54Z</time>
      </trkpt>
      <trkpt lat="43.7587" lon="7.0083">
        <ele>818.522</ele>
        <time>2014-03-21T15:41:57Z</time>
      </trkpt>
      <trkpt lat="43.75869" lon="7.00821">
        <ele>821.374</ele>
        <time>2014-03-21T15:42:02Z</time>
      </trkpt>
      <trkpt lat="43.75869" lon="7.00816">
        <ele>823.026</ele>
        <time>2014-03-21T15:42:05Z</time>
      </trkpt>
      <trkpt lat="43.7587" lon="7.00796">
        <ele>826.152</ele>
        <time>2014-03-21T15:42:13Z</time>
      </trkpt>
      <trkpt lat="43.7587" lon="7.00782">
        <ele>829.436</ele>
        <time>2014-03-21T15:42:19Z</time>
      </trkpt>
      <trkpt lat="43.7587" lon="7.00776">
        <ele>830.426</ele>
        <time>2014-03-21T15:42:21Z</time>
      </trkpt>
      <trkpt lat="43.75871" lon="7.00754">
        <ele>832.784</ele>
        <time>2014-03-21T15:42:30Z</time>
      </trkpt>
      <trkpt lat="43.75871" lon="7.00737">
        <ele>833.067</ele>
        <time>2014-03-21T15:42:37Z</time>
      </trkpt>
      <trkpt lat="43.75871" lon="7.00734">
        <ele>835.765</ele>
        <time>2014-03-21T15:42:39Z</time>
      </trkpt>
      <trkpt lat="43.75874" lon="7.00715">
        <ele>833.703</ele>
        <time>2014-03-21T15:42:46Z</time>
      </trkpt>
      <trkpt lat="43.75873" lon="7.00699">
        <ele>830.796</ele>
        <time>2014-03-21T15:42:51Z</time>
      </trkpt>
      <trkpt lat="43.75876" lon="7.00692">
        <ele>829.257</ele>
        <time>2014-03-21T15:42:54Z</time>
      </trkpt>
      <trkpt lat="43.75886" lon="7.00683">
        <ele>828.011</ele>
        <time>2014-03-21T15:43:00Z</time>
      </trkpt>
      <trkpt lat="43.75893" lon="7.0068">
        <ele>822.887</ele>
        <time>2014-03-21T15:43:05Z</time>
      </trkpt>
      <trkpt lat="43.75891" lon="7.00666">
        <ele>821.61</ele>
        <time>2014-03-21T15:43:10Z</time>
      </trkpt>
      <trkpt lat="43.75892" lon="7.00654">
        <ele>823.195</ele>
        <time>2014-03-21T15:43:15Z</time>
      </trkpt>
      <trkpt lat="43.7589" lon="7.00639">
        <ele>823.994</ele>
        <time>2014-03-21T15:43:21Z</time>
      </trkpt>
      <trkpt lat="43.75891" lon="7.00633">
        <ele>826.076</ele>
        <time>2014-03-21T15:43:24Z</time>
      </trkpt>
      <trkpt lat="43.75893" lon="7.00615">
        <ele>828.401</ele>
        <time>2014-03-21T15:43:31Z</time>
      </trkpt>
      <trkpt lat="43.75897" lon="7.00604">
        <ele>828.948</ele>
        <time>2014-03-21T15:43:37Z</time>
      </trkpt>
      <trkpt lat="43.75901" lon="7.00591">
        <ele>824.737</ele>
        <time>2014-03-21T15:43:44Z</time>
      </trkpt>
      <trkpt lat="43.75903" lon="7.00572">
        <ele>825.002</ele>
        <time>2014-03-21T15:43:53Z</time>
      </trkpt>
      <trkpt lat="43.75902" lon="7.00556">
        <ele>827.376</ele>
        <time>2014-03-21T15:44:00Z</time>
      </trkpt>
      <trkpt lat="43.75898" lon="7.00547">
        <ele>828.943</ele>
        <time>2014-03-21T15:44:06Z</time>
      </trkpt>
      <trkpt lat="43.75903" lon="7.00541">
        <ele>830.874</ele>
        <time>2014-03-21T15:44:11Z</time>
      </trkpt>
      <trkpt lat="43.75914" lon="7.0053">
        <ele>831.97</ele>
        <time>2014-03-21T15:44:20Z</time>
      </trkpt>
      <trkpt lat="43.75918" lon="7.00523">
        <ele>831.58</ele>
        <time>2014-03-21T15:44:26Z</time>
      </trkpt>
      <trkpt lat="43.75922" lon="7.00515">
        <ele>830.992</ele>
        <time>2014-03-21T15:44:32Z</time>
      </trkpt>
      <trkpt lat="43.75924" lon="7.00501">
        <ele>833.15</ele>
        <time>2014-03-21T15:44:39Z</time>
      </trkpt>
      <trkpt lat="43.75928" lon="7.00489">
        <ele>838.229</ele>
        <time>2014-03-21T15:44:47Z</time>
      </trkpt>
      <trkpt lat="43.75936" lon="7.00484">
        <ele>836.886</ele>
        <time>2014-03-21T15:44:52Z</time>
      </trkpt>
      <trkpt lat="43.75946" lon="7.0048">
        <ele>836.084</ele>
        <time>2014-03-21T15:44:59Z</time>
      </trkpt>
      <trkpt lat="43.75957" lon="7.00477">
        <ele>836.282</ele>
        <time>2014-03-21T15:45:07Z</time>
      </trkpt>
      <trkpt lat="43.75966" lon="7.00475">
        <ele>837.714</ele>
        <time>2014-03-21T15:45:14Z</time>
      </trkpt>
      <trkpt lat="43.75974" lon="7.00467">
        <ele>839.905</ele>
        <time>2014-03-21T15:45:19Z</time>
      </trkpt>
      <trkpt lat="43.7598" lon="7.00462">
        <ele>841.391</ele>
        <time>2014-03-21T15:45:25Z</time>
      </trkpt>
      <trkpt lat="43.75982" lon="7.00461">
        <ele>841.699</ele>
        <time>2014-03-21T15:45:27Z</time>
      </trkpt>
      <trkpt lat="43.75987" lon="7.00452">
        <ele>842.617</ele>
        <time>2014-03-21T15:45:32Z</time>
      </trkpt>
      <trkpt lat="43.75991" lon="7.00449">
        <ele>841.967</ele>
        <time>2014-03-21T15:45:38Z</time>
      </trkpt>
      <trkpt lat="43.75991" lon="7.0045">
        <ele>841.968</ele>
        <time>2014-03-21T15:45:39Z</time>
      </trkpt>
      <trkpt lat="43.75995" lon="7.00451">
        <ele>839.023</ele>
        <time>2014-03-21T15:45:46Z</time>
      </trkpt>
      <trkpt lat="43.75998" lon="7.0045">
        <ele>834.204</ele>
        <time>2014-03-21T15:46:04Z</time>
      </trkpt>
      <trkpt lat="43.76012" lon="7.00445">
        <ele>835.753</ele>
        <time>2014-03-21T15:46:13Z</time>
      </trkpt>
      <trkpt lat="43.76021" lon="7.00441">
        <ele>837.127</ele>
        <time>2014-03-21T15:46:19Z</time>
      </trkpt>
      <trkpt lat="43.76029" lon="7.00434">
        <ele>839.18</ele>
        <time>2014-03-21T15:46:25Z</time>
      </trkpt>
      <trkpt lat="43.76038" lon="7.0043">
        <ele>843.032</ele>
        <time>2014-03-21T15:46:32Z</time>
      </trkpt>
      <trkpt lat="43.76047" lon="7.00425">
        <ele>843.753</ele>
        <time>2014-03-21T15:46:38Z</time>
      </trkpt>
      <trkpt lat="43.76056" lon="7.0042">
        <ele>845.728</ele>
        <time>2014-03-21T15:46:45Z</time>
      </trkpt>
      <trkpt lat="43.76064" lon="7.00415">
        <ele>847.282</ele>
        <time>2014-03-21T15:46:51Z</time>
      </trkpt>
      <trkpt lat="43.76076" lon="7.00405">
        <ele>848.895</ele>
        <time>2014-03-21T15:47:01Z</time>
      </trkpt>
      <trkpt lat="43.76089" lon="7.00398">
        <ele>850.165</ele>
        <time>2014-03-21T15:47:10Z</time>
      </trkpt>
      <trkpt lat="43.76102" lon="7.00389">
        <ele>851.168</ele>
        <time>2014-03-21T15:47:19Z</time>
      </trkpt>
      <trkpt lat="43.76113" lon="7.00379">
        <ele>852.385</ele>
        <time>2014-03-21T15:47:27Z</time>
      </trkpt>
      <trkpt lat="43.76127" lon="7.00371">
        <ele>854.1</ele>
        <time>2014-03-21T15:47:34Z</time>
      </trkpt>
      <trkpt lat="43.7614" lon="7.00365">
        <ele>854.456</ele>
        <time>2014-03-21T15:47:39Z</time>
      </trkpt>
      <trkpt lat="43.7616" lon="7.00356">
        <ele>854.422</ele>
        <time>2014-03-21T15:47:47Z</time>
      </trkpt>
      <trkpt lat="43.76181" lon="7.0035">
        <ele>852.94</ele>
        <time>2014-03-21T15:47:54Z</time>
      </trkpt>
      <trkpt lat="43.76209" lon="7.00341">
        <ele>850.128</ele>
        <time>2014-03-21T15:48:03Z</time>
      </trkpt>
      <trkpt lat="43.76224" lon="7.00332">
        <ele>850.439</ele>
        <time>2014-03-21T15:48:09Z</time>
      </trkpt>
      <trkpt lat="43.76243" lon="7.00315">
        <ele>851.182</ele>
        <time>2014-03-21T15:48:16Z</time>
      </trkpt>
      <trkpt lat="43.76264" lon="7.00303">
        <ele>850.508</ele>
        <time>2014-03-21T15:48:22Z</time>
      </trkpt>
      <trkpt lat="43.7629" lon="7.00293">
        <ele>848.442</ele>
        <time>2014-03-21T15:48:29Z</time>
      </trkpt>
      <trkpt lat="43.76308" lon="7.00284">
        <ele>847.349</ele>
        <time>2014-03-21T15:48:35Z</time>
      </trkpt>
      <trkpt lat="43.76332" lon="7.00273">
        <ele>847.17</ele>
        <time>2014-03-21T15:48:43Z</time>
      </trkpt>
      <trkpt lat="43.76346" lon="7.00262">
        <ele>846.576</ele>
        <time>2014-03-21T15:48:48Z</time>
      </trkpt>
      <trkpt lat="43.76352" lon="7.00235">
        <ele>842.049</ele>
        <time>2014-03-21T15:48:52Z</time>
      </trkpt>
      <trkpt lat="43.76354" lon="7.00201">
        <ele>844.028</ele>
        <time>2014-03-21T15:48:58Z</time>
      </trkpt>
      <trkpt lat="43.76367" lon="7.00189">
        <ele>844.637</ele>
        <time>2014-03-21T15:49:03Z</time>
      </trkpt>
      <trkpt lat="43.76387" lon="7.00183">
        <ele>844.727</ele>
        <time>2014-03-21T15:49:08Z</time>
      </trkpt>
      <trkpt lat="43.76404" lon="7.00168">
        <ele>845.469</ele>
        <time>2014-03-21T15:49:14Z</time>
      </trkpt>
      <trkpt lat="43.76424" lon="7.0015">
        <ele>845.829</ele>
        <time>2014-03-21T15:49:20Z</time>
      </trkpt>
      <trkpt lat="43.76442" lon="7.0013">
        <ele>846.376</ele>
        <time>2014-03-21T15:49:26Z</time>
      </trkpt>
      <trkpt lat="43.76464" lon="7.00108">
        <ele>846.42</ele>
        <time>2014-03-21T15:49:33Z</time>
      </trkpt>
      <trkpt lat="43.76483" lon="7.00102">
        <ele>844.646</ele>
        <time>2014-03-21T15:49:39Z</time>
      </trkpt>
      <trkpt lat="43.76509" lon="7.00109">
        <ele>843.526</ele>
        <time>2014-03-21T15:49:46Z</time>
      </trkpt>
      <trkpt lat="43.76532" lon="7.00124">
        <ele>844.762</ele>
        <time>2014-03-21T15:49:54Z</time>
      </trkpt>
      <trkpt lat="43.76558" lon="7.00141">
        <ele>844.595</ele>
        <time>2014-03-21T15:50:03Z</time>
      </trkpt>
      <trkpt lat="43.76575" lon="7.00153">
        <ele>844.232</ele>
        <time>2014-03-21T15:50:09Z</time>
      </trkpt>
      <trkpt lat="43.766" lon="7.00171">
        <ele>843.496</ele>
        <time>2014-03-21T15:50:18Z</time>
      </trkpt>
      <trkpt lat="43.76628" lon="7.00191">
        <ele>843.692</ele>
        <time>2014-03-21T15:50:28Z</time>
      </trkpt>
      <trkpt lat="43.7665" lon="7.00203">
        <ele>845.015</ele>
        <time>2014-03-21T15:50:37Z</time>
      </trkpt>
      <trkpt lat="43.76666" lon="7.0021">
        <ele>845.945</ele>
        <time>2014-03-21T15:50:44Z</time>
      </trkpt>
      <trkpt lat="43.7667" lon="7.00212">
        <ele>846.871</ele>
        <time>2014-03-21T15:50:46Z</time>
      </trkpt>
      <trkpt lat="43.76681" lon="7.00211">
        <ele>847.129</ele>
        <time>2014-03-21T15:50:51Z</time>
      </trkpt>
      <trkpt lat="43.76696" lon="7.00211">
        <ele>849.288</ele>
        <time>2014-03-21T15:51:00Z</time>
      </trkpt>
      <trkpt lat="43.76704" lon="7.00217">
        <ele>850.633</ele>
        <time>2014-03-21T15:51:07Z</time>
      </trkpt>
      <trkpt lat="43.76713" lon="7.00224">
        <ele>852.004</ele>
        <time>2014-03-21T15:51:14Z</time>
      </trkpt>
      <trkpt lat="43.76725" lon="7.00234">
        <ele>853.636</ele>
        <time>2014-03-21T15:51:23Z</time>
      </trkpt>
      <trkpt lat="43.76732" lon="7.00238">
        <ele>855.978</ele>
        <time>2014-03-21T15:51:29Z</time>
      </trkpt>
      <trkpt lat="43.76745" lon="7.00249">
        <ele>856.715</ele>
        <time>2014-03-21T15:51:38Z</time>
      </trkpt>
      <trkpt lat="43.76755" lon="7.00258">
        <ele>859.011</ele>
        <time>2014-03-21T15:51:46Z</time>
      </trkpt>
      <trkpt lat="43.76766" lon="7.00263">
        <ele>861.523</ele>
        <time>2014-03-21T15:51:54Z</time>
      </trkpt>
      <trkpt lat="43.76781" lon="7.0027">
        <ele>864.133</ele>
        <time>2014-03-21T15:52:05Z</time>
      </trkpt>
      <trkpt lat="43.76791" lon="7.00272">
        <ele>864.784</ele>
        <time>2014-03-21T15:52:12Z</time>
      </trkpt>
      <trkpt lat="43.76802" lon="7.00275">
        <ele>864.956</ele>
        <time>2014-03-21T15:52:20Z</time>
      </trkpt>
      <trkpt lat="43.76811" lon="7.00271">
        <ele>866.03</ele>
        <time>2014-03-21T15:52:27Z</time>
      </trkpt>
      <trkpt lat="43.76822" lon="7.00261">
        <ele>868.605</ele>
        <time>2014-03-21T15:52:35Z</time>
      </trkpt>
      <trkpt lat="43.76831" lon="7.00252">
        <ele>869.676</ele>
        <time>2014-03-21T15:52:41Z</time>
      </trkpt>
      <trkpt lat="43.76843" lon="7.00236">
        <ele>870.997</ele>
        <time>2014-03-21T15:52:50Z</time>
      </trkpt>
      <trkpt lat="43.76855" lon="7.00219">
        <ele>871.047</ele>
        <time>2014-03-21T15:52:59Z</time>
      </trkpt>
      <trkpt lat="43.76868" lon="7.00196">
        <ele>871.965</ele>
        <time>2014-03-21T15:53:09Z</time>
      </trkpt>
      <trkpt lat="43.76871" lon="7.00175">
        <ele>872.891</ele>
        <time>2014-03-21T15:53:16Z</time>
      </trkpt>
      <trkpt lat="43.76873" lon="7.00157">
        <ele>877.946</ele>
        <time>2014-03-21T15:53:23Z</time>
      </trkpt>
      <trkpt lat="43.76873" lon="7.00146">
        <ele>878.586</ele>
        <time>2014-03-21T15:53:28Z</time>
      </trkpt>
      <trkpt lat="43.76872" lon="7.0014">
        <ele>879.567</ele>
        <time>2014-03-21T15:53:31Z</time>
      </trkpt>
      <trkpt lat="43.76869" lon="7.00119">
        <ele>880.712</ele>
        <time>2014-03-21T15:53:40Z</time>
      </trkpt>
      <trkpt lat="43.7686" lon="7.00108">
        <ele>880.45</ele>
        <time>2014-03-21T15:53:46Z</time>
      </trkpt>
      <trkpt lat="43.76848" lon="7.00101">
        <ele>880.245</ele>
        <time>2014-03-21T15:53:52Z</time>
      </trkpt>
      <trkpt lat="43.76844" lon="7.0009">
        <ele>880.837</ele>
        <time>2014-03-21T15:53:57Z</time>
      </trkpt>
      <trkpt lat="43.76845" lon="7.00082">
        <ele>880.517</ele>
        <time>2014-03-21T15:54:02Z</time>
      </trkpt>
      <trkpt lat="43.76853" lon="7.00073">
        <ele>880.365</ele>
        <time>2014-03-21T15:54:07Z</time>
      </trkpt>
      <trkpt lat="43.76863" lon="7.00056">
        <ele>879.821</ele>
        <time>2014-03-21T15:54:11Z</time>
      </trkpt>
      <trkpt lat="43.76874" lon="7.00034">
        <ele>879.087</ele>
        <time>2014-03-21T15:54:17Z</time>
      </trkpt>
      <trkpt lat="43.76874" lon="7.00017">
        <ele>880.016</ele>
        <time>2014-03-21T15:54:23Z</time>
      </trkpt>
      <trkpt lat="43.7687" lon="7.00006">
        <ele>881.809</ele>
        <time>2014-03-21T15:54:28Z</time>
      </trkpt>
      <trkpt lat="43.76869" lon="6.99984">
        <ele>883.167</ele>
        <time>2014-03-21T15:54:37Z</time>
      </trkpt>
      <trkpt lat="43.76866" lon="6.99965">
        <ele>883.497</ele>
        <time>2014-03-21T15:54:44Z</time>
      </trkpt>
      <trkpt lat="43.76864" lon="6.9996">
        <ele>883.711</ele>
        <time>2014-03-21T15:54:47Z</time>
      </trkpt>
      <trkpt lat="43.76855" lon="6.99955">
        <ele>883.881</ele>
        <time>2014-03-21T15:54:52Z</time>
      </trkpt>
      <trkpt lat="43.76844" lon="6.99948">
        <ele>883.874</ele>
        <time>2014-03-21T15:54:58Z</time>
      </trkpt>
      <trkpt lat="43.76829" lon="6.99945">
        <ele>884.783</ele>
        <time>2014-03-21T15:55:05Z</time>
      </trkpt>
      <trkpt lat="43.76814" lon="6.99943">
        <ele>884.652</ele>
        <time>2014-03-21T15:55:12Z</time>
      </trkpt>
      <trkpt lat="43.76795" lon="6.99941">
        <ele>885.222</ele>
        <time>2014-03-21T15:55:20Z</time>
      </trkpt>
      <trkpt lat="43.76779" lon="6.99947">
        <ele>886.377</ele>
        <time>2014-03-21T15:55:28Z</time>
      </trkpt>
      <trkpt lat="43.7677" lon="6.99942">
        <ele>886.821</ele>
        <time>2014-03-21T15:55:32Z</time>
      </trkpt>
      <trkpt lat="43.76764" lon="6.99931">
        <ele>887.317</ele>
        <time>2014-03-21T15:55:37Z</time>
      </trkpt>
      <trkpt lat="43.76758" lon="6.99922">
        <ele>886.191</ele>
        <time>2014-03-21T15:55:42Z</time>
      </trkpt>
      <trkpt lat="43.76757" lon="6.9992">
        <ele>886.003</ele>
        <time>2014-03-21T15:55:43Z</time>
      </trkpt>
      <trkpt lat="43.76757" lon="6.999">
        <ele>884.099</ele>
        <time>2014-03-21T15:55:48Z</time>
      </trkpt>
      <trkpt lat="43.76768" lon="6.99882">
        <ele>881.988</ele>
        <time>2014-03-21T15:55:52Z</time>
      </trkpt>
      <trkpt lat="43.76776" lon="6.99882">
        <ele>881.763</ele>
        <time>2014-03-21T15:55:55Z</time>
      </trkpt>
      <trkpt lat="43.76795" lon="6.99883">
        <ele>881.598</ele>
        <time>2014-03-21T15:56:03Z</time>
      </trkpt>
      <trkpt lat="43.76813" lon="6.99878">
        <ele>880.615</ele>
        <time>2014-03-21T15:56:10Z</time>
      </trkpt>
      <trkpt lat="43.76829" lon="6.99868">
        <ele>879.559</ele>
        <time>2014-03-21T15:56:16Z</time>
      </trkpt>
      <trkpt lat="43.76848" lon="6.99865">
        <ele>878.763</ele>
        <time>2014-03-21T15:56:21Z</time>
      </trkpt>
      <trkpt lat="43.76862" lon="6.99858">
        <ele>878.473</ele>
        <time>2014-03-21T15:56:26Z</time>
      </trkpt>
      <trkpt lat="43.76884" lon="6.99843">
        <ele>877.2</ele>
        <time>2014-03-21T15:56:32Z</time>
      </trkpt>
      <trkpt lat="43.76894" lon="6.9984">
        <ele>877.007</ele>
        <time>2014-03-21T15:56:34Z</time>
      </trkpt>
      <trkpt lat="43.769" lon="6.99822">
        <ele>875.827</ele>
        <time>2014-03-21T15:56:37Z</time>
      </trkpt>
      <trkpt lat="43.76893" lon="6.99821">
        <ele>874.831</ele>
        <time>2014-03-21T15:56:40Z</time>
      </trkpt>
      <trkpt lat="43.76893" lon="6.99822">
        <ele>875.352</ele>
        <time>2014-03-21T15:56:44Z</time>
      </trkpt>
      <trkpt lat="43.76892" lon="6.99823">
        <ele>876.177</ele>
        <time>2014-03-21T15:57:56Z</time>
      </trkpt>
      <trkpt lat="43.76892" lon="6.99823">
        <ele>876.146</ele>
        <time>2014-03-21T15:57:59Z</time>
      </trkpt>
      <trkpt lat="43.76882" lon="6.99813">
        <ele>874.58</ele>
        <time>2014-03-21T15:58:04Z</time>
      </trkpt>
      <trkpt lat="43.76875" lon="6.99806">
        <ele>873.037</ele>
        <time>2014-03-21T15:58:06Z</time>
      </trkpt>
      <trkpt lat="43.76856" lon="6.99796">
        <ele>869.794</ele>
        <time>2014-03-21T15:58:10Z</time>
      </trkpt>
      <trkpt lat="43.76846" lon="6.99791">
        <ele>867.804</ele>
        <time>2014-03-21T15:58:12Z</time>
      </trkpt>
      <trkpt lat="43.76828" lon="6.99783">
        <ele>864.981</ele>
        <time>2014-03-21T15:58:15Z</time>
      </trkpt>
      <trkpt lat="43.76797" lon="6.99767">
        <ele>859.023</ele>
        <time>2014-03-21T15:58:20Z</time>
      </trkpt>
      <trkpt lat="43.7679" lon="6.99765">
        <ele>857.583</ele>
        <time>2014-03-21T15:58:21Z</time>
      </trkpt>
      <trkpt lat="43.7677" lon="6.99749">
        <ele>851.74</ele>
        <time>2014-03-21T15:58:25Z</time>
      </trkpt>
      <trkpt lat="43.76749" lon="6.99742">
        <ele>846.826</ele>
        <time>2014-03-21T15:58:29Z</time>
      </trkpt>
      <trkpt lat="43.76743" lon="6.99743">
        <ele>845.569</ele>
        <time>2014-03-21T15:58:30Z</time>
      </trkpt>
      <trkpt lat="43.76726" lon="6.99738">
        <ele>841.661</ele>
        <time>2014-03-21T15:58:33Z</time>
      </trkpt>
      <trkpt lat="43.76705" lon="6.99728">
        <ele>836.898</ele>
        <time>2014-03-21T15:58:37Z</time>
      </trkpt>
      <trkpt lat="43.76699" lon="6.99724">
        <ele>835.623</ele>
        <time>2014-03-21T15:58:38Z</time>
      </trkpt>
      <trkpt lat="43.76684" lon="6.99718">
        <ele>832.73</ele>
        <time>2014-03-21T15:58:40Z</time>
      </trkpt>
      <trkpt lat="43.76662" lon="6.99712">
        <ele>829.081</ele>
        <time>2014-03-21T15:58:43Z</time>
      </trkpt>
      <trkpt lat="43.76632" lon="6.99693">
        <ele>821.629</ele>
        <time>2014-03-21T15:58:49Z</time>
      </trkpt>
      <trkpt lat="43.76623" lon="6.99687">
        <ele>819.267</ele>
        <time>2014-03-21T15:58:51Z</time>
      </trkpt>
      <trkpt lat="43.76609" lon="6.99678">
        <ele>815.788</ele>
        <time>2014-03-21T15:58:54Z</time>
      </trkpt>
      <trkpt lat="43.766" lon="6.99671">
        <ele>813.625</ele>
        <time>2014-03-21T15:58:56Z</time>
      </trkpt>
      <trkpt lat="43.76578" lon="6.99652">
        <ele>807.502</ele>
        <time>2014-03-21T15:59:01Z</time>
      </trkpt>
      <trkpt lat="43.76558" lon="6.99637">
        <ele>804.136</ele>
        <time>2014-03-21T15:59:05Z</time>
      </trkpt>
      <trkpt lat="43.76549" lon="6.99628">
        <ele>802.357</ele>
        <time>2014-03-21T15:59:07Z</time>
      </trkpt>
      <trkpt lat="43.76531" lon="6.99604">
        <ele>797.312</ele>
        <time>2014-03-21T15:59:12Z</time>
      </trkpt>
      <trkpt lat="43.76517" lon="6.99593">
        <ele>794.669</ele>
        <time>2014-03-21T15:59:15Z</time>
      </trkpt>
      <trkpt lat="43.7651" lon="6.99586">
        <ele>791.87</ele>
        <time>2014-03-21T15:59:18Z</time>
      </trkpt>
      <trkpt lat="43.76513" lon="6.99585">
        <ele>791.016</ele>
        <time>2014-03-21T15:59:20Z</time>
      </trkpt>
      <trkpt lat="43.76527" lon="6.99582">
        <ele>788.688</ele>
        <time>2014-03-21T15:59:24Z</time>
      </trkpt>
      <trkpt lat="43.76528" lon="6.99569">
        <ele>786.376</ele>
        <time>2014-03-21T15:59:28Z</time>
      </trkpt>
      <trkpt lat="43.76532" lon="6.99565">
        <ele>785.025</ele>
        <time>2014-03-21T15:59:30Z</time>
      </trkpt>
      <trkpt lat="43.76545" lon="6.9956">
        <ele>781.671</ele>
        <time>2014-03-21T15:59:34Z</time>
      </trkpt>
      <trkpt lat="43.7656" lon="6.99549">
        <ele>777.977</ele>
        <time>2014-03-21T15:59:39Z</time>
      </trkpt>
      <trkpt lat="43.7656" lon="6.9954">
        <ele>775.85</ele>
        <time>2014-03-21T15:59:43Z</time>
      </trkpt>
      <trkpt lat="43.76556" lon="6.99538">
        <ele>775.198</ele>
        <time>2014-03-21T15:59:44Z</time>
      </trkpt>
      <trkpt lat="43.76543" lon="6.99522">
        <ele>771.532</ele>
        <time>2014-03-21T15:59:49Z</time>
      </trkpt>
      <trkpt lat="43.76537" lon="6.99508">
        <ele>766.851</ele>
        <time>2014-03-21T15:59:53Z</time>
      </trkpt>
      <trkpt lat="43.76527" lon="6.99497">
        <ele>762.129</ele>
        <time>2014-03-21T15:59:57Z</time>
      </trkpt>
      <trkpt lat="43.76515" lon="6.99486">
        <ele>758.787</ele>
        <time>2014-03-21T16:00:01Z</time>
      </trkpt>
      <trkpt lat="43.76511" lon="6.99481">
        <ele>756.834</ele>
        <time>2014-03-21T16:00:03Z</time>
      </trkpt>
      <trkpt lat="43.76504" lon="6.99471">
        <ele>753.578</ele>
        <time>2014-03-21T16:00:06Z</time>
      </trkpt>
      <trkpt lat="43.76506" lon="6.99463">
        <ele>751.897</ele>
        <time>2014-03-21T16:00:10Z</time>
      </trkpt>
      <trkpt lat="43.76521" lon="6.99461">
        <ele>747.489</ele>
        <time>2014-03-21T16:00:14Z</time>
      </trkpt>
      <trkpt lat="43.76538" lon="6.99451">
        <ele>745.168</ele>
        <time>2014-03-21T16:00:18Z</time>
      </trkpt>
      <trkpt lat="43.76555" lon="6.99439">
        <ele>742.435</ele>
        <time>2014-03-21T16:00:22Z</time>
      </trkpt>
      <trkpt lat="43.76572" lon="6.99433">
        <ele>737.905</ele>
        <time>2014-03-21T16:00:26Z</time>
      </trkpt>
      <trkpt lat="43.76579" lon="6.9943">
        <ele>737.424</ele>
        <time>2014-03-21T16:00:29Z</time>
      </trkpt>
      <trkpt lat="43.76572" lon="6.99421">
        <ele>736.368</ele>
        <time>2014-03-21T16:00:32Z</time>
      </trkpt>
      <trkpt lat="43.76558" lon="6.99416">
        <ele>735.254</ele>
        <time>2014-03-21T16:00:35Z</time>
      </trkpt>
      <trkpt lat="43.76535" lon="6.99412">
        <ele>734.892</ele>
        <time>2014-03-21T16:00:40Z</time>
      </trkpt>
      <trkpt lat="43.76524" lon="6.99407">
        <ele>732.783</ele>
        <time>2014-03-21T16:00:43Z</time>
      </trkpt>
      <trkpt lat="43.76506" lon="6.99389">
        <ele>727.414</ele>
        <time>2014-03-21T16:00:49Z</time>
      </trkpt>
      <trkpt lat="43.76504" lon="6.99385">
        <ele>725.772</ele>
        <time>2014-03-21T16:00:53Z</time>
      </trkpt>
      <trkpt lat="43.76514" lon="6.99386">
        <ele>724.833</ele>
        <time>2014-03-21T16:00:58Z</time>
      </trkpt>
      <trkpt lat="43.76525" lon="6.99376">
        <ele>722.533</ele>
        <time>2014-03-21T16:01:02Z</time>
      </trkpt>
      <trkpt lat="43.76534" lon="6.99362">
        <ele>721.667</ele>
        <time>2014-03-21T16:01:05Z</time>
      </trkpt>
      <trkpt lat="43.76551" lon="6.99348">
        <ele>716.576</ele>
        <time>2014-03-21T16:01:10Z</time>
      </trkpt>
      <trkpt lat="43.76547" lon="6.99345">
        <ele>714.049</ele>
        <time>2014-03-21T16:01:14Z</time>
      </trkpt>
      <trkpt lat="43.76549" lon="6.99353">
        <ele>709.141</ele>
        <time>2014-03-21T16:01:18Z</time>
      </trkpt>
      <trkpt lat="43.76549" lon="6.99356">
        <ele>708.544</ele>
        <time>2014-03-21T16:01:55Z</time>
      </trkpt>
      <trkpt lat="43.76549" lon="6.99354">
        <ele>710.355</ele>
        <time>2014-03-21T16:02:01Z</time>
      </trkpt>
      <trkpt lat="43.7654" lon="6.99354">
        <ele>708.767</ele>
        <time>2014-03-21T16:02:07Z</time>
      </trkpt>
      <trkpt lat="43.76541" lon="6.99352">
        <ele>707.929</ele>
        <time>2014-03-21T16:02:08Z</time>
      </trkpt>
      <trkpt lat="43.76556" lon="6.99344">
        <ele>705.746</ele>
        <time>2014-03-21T16:02:13Z</time>
      </trkpt>
      <trkpt lat="43.76567" lon="6.99346">
        <ele>703.871</ele>
        <time>2014-03-21T16:02:17Z</time>
      </trkpt>
      <trkpt lat="43.7657" lon="6.99344">
        <ele>703.987</ele>
        <time>2014-03-21T16:02:19Z</time>
      </trkpt>
      <trkpt lat="43.76563" lon="6.99337">
        <ele>702.299</ele>
        <time>2014-03-21T16:02:23Z</time>
      </trkpt>
      <trkpt lat="43.76555" lon="6.99326">
        <ele>700.342</ele>
        <time>2014-03-21T16:02:26Z</time>
      </trkpt>
      <trkpt lat="43.76541" lon="6.99319">
        <ele>696.838</ele>
        <time>2014-03-21T16:02:30Z</time>
      </trkpt>
      <trkpt lat="43.76519" lon="6.99316">
        <ele>690.594</ele>
        <time>2014-03-21T16:02:36Z</time>
      </trkpt>
      <trkpt lat="43.76515" lon="6.99313">
        <ele>689.783</ele>
        <time>2014-03-21T16:02:37Z</time>
      </trkpt>
      <trkpt lat="43.76499" lon="6.99299">
        <ele>685.386</ele>
        <time>2014-03-21T16:02:41Z</time>
      </trkpt>
      <trkpt lat="43.7647" lon="6.99285">
        <ele>676.335</ele>
        <time>2014-03-21T16:02:49Z</time>
      </trkpt>
      <trkpt lat="43.76469" lon="6.99284">
        <ele>675.384</ele>
        <time>2014-03-21T16:02:50Z</time>
      </trkpt>
      <trkpt lat="43.76478" lon="6.99276">
        <ele>671.443</ele>
        <time>2014-03-21T16:02:54Z</time>
      </trkpt>
      <trkpt lat="43.76481" lon="6.99262">
        <ele>663.39</ele>
        <time>2014-03-21T16:02:59Z</time>
      </trkpt>
      <trkpt lat="43.76473" lon="6.99249">
        <ele>659.365</ele>
        <time>2014-03-21T16:03:02Z</time>
      </trkpt>
      <trkpt lat="43.76459" lon="6.99241">
        <ele>655.834</ele>
        <time>2014-03-21T16:03:06Z</time>
      </trkpt>
      <trkpt lat="43.76465" lon="6.99226">
        <ele>653.098</ele>
        <time>2014-03-21T16:03:11Z</time>
      </trkpt>
      <trkpt lat="43.76471" lon="6.9922">
        <ele>650.656</ele>
        <time>2014-03-21T16:03:14Z</time>
      </trkpt>
      <trkpt lat="43.76471" lon="6.99219">
        <ele>651.06</ele>
        <time>2014-03-21T16:03:15Z</time>
      </trkpt>
      <trkpt lat="43.76472" lon="6.99212">
        <ele>647.935</ele>
        <time>2014-03-21T16:03:19Z</time>
      </trkpt>
      <trkpt lat="43.76479" lon="6.992">
        <ele>645.853</ele>
        <time>2014-03-21T16:03:23Z</time>
      </trkpt>
      <trkpt lat="43.76471" lon="6.99197">
        <ele>642.677</ele>
        <time>2014-03-21T16:03:26Z</time>
      </trkpt>
      <trkpt lat="43.76469" lon="6.99188">
        <ele>640.502</ele>
        <time>2014-03-21T16:03:29Z</time>
      </trkpt>
      <trkpt lat="43.76476" lon="6.99178">
        <ele>638.431</ele>
        <time>2014-03-21T16:03:32Z</time>
      </trkpt>
      <trkpt lat="43.76473" lon="6.99169">
        <ele>636.841</ele>
        <time>2014-03-21T16:03:35Z</time>
      </trkpt>
      <trkpt lat="43.76467" lon="6.99164">
        <ele>634.979</ele>
        <time>2014-03-21T16:03:38Z</time>
      </trkpt>
      <trkpt lat="43.76468" lon="6.99159">
        <ele>633.918</ele>
        <time>2014-03-21T16:03:42Z</time>
      </trkpt>
      <trkpt lat="43.76472" lon="6.99147">
        <ele>631.949</ele>
        <time>2014-03-21T16:03:46Z</time>
      </trkpt>
      <trkpt lat="43.76481" lon="6.99133">
        <ele>629.003</ele>
        <time>2014-03-21T16:03:50Z</time>
      </trkpt>
      <trkpt lat="43.76487" lon="6.99131">
        <ele>627.305</ele>
        <time>2014-03-21T16:03:55Z</time>
      </trkpt>
      <trkpt lat="43.76486" lon="6.99129">
        <ele>627.065</ele>
        <time>2014-03-21T16:03:56Z</time>
      </trkpt>
      <trkpt lat="43.76484" lon="6.99121">
        <ele>625.268</ele>
        <time>2014-03-21T16:03:58Z</time>
      </trkpt>
      <trkpt lat="43.76469" lon="6.99116">
        <ele>620.474</ele>
        <time>2014-03-21T16:04:02Z</time>
      </trkpt>
      <trkpt lat="43.76452" lon="6.99116">
        <ele>616.294</ele>
        <time>2014-03-21T16:04:06Z</time>
      </trkpt>
      <trkpt lat="43.76432" lon="6.99124">
        <ele>610.848</ele>
        <time>2014-03-21T16:04:11Z</time>
      </trkpt>
      <trkpt lat="43.76427" lon="6.99114">
        <ele>608.978</ele>
        <time>2014-03-21T16:04:15Z</time>
      </trkpt>
      <trkpt lat="43.76428" lon="6.99102">
        <ele>608.055</ele>
        <time>2014-03-21T16:04:17Z</time>
      </trkpt>
      <trkpt lat="43.76423" lon="6.9909">
        <ele>605.579</ele>
        <time>2014-03-21T16:04:21Z</time>
      </trkpt>
      <trkpt lat="43.76429" lon="6.99074">
        <ele>604.319</ele>
        <time>2014-03-21T16:04:24Z</time>
      </trkpt>
      <trkpt lat="43.76431" lon="6.99065">
        <ele>601.739</ele>
        <time>2014-03-21T16:04:27Z</time>
      </trkpt>
      <trkpt lat="43.76425" lon="6.99056">
        <ele>599.178</ele>
        <time>2014-03-21T16:04:30Z</time>
      </trkpt>
      <trkpt lat="43.76428" lon="6.99038">
        <ele>594.621</ele>
        <time>2014-03-21T16:04:34Z</time>
      </trkpt>
      <trkpt lat="43.76427" lon="6.99035">
        <ele>592.624</ele>
        <time>2014-03-21T16:04:37Z</time>
      </trkpt>
      <trkpt lat="43.76419" lon="6.99038">
        <ele>589.578</ele>
        <time>2014-03-21T16:04:41Z</time>
      </trkpt>
      <trkpt lat="43.76417" lon="6.99034">
        <ele>587.407</ele>
        <time>2014-03-21T16:04:44Z</time>
      </trkpt>
      <trkpt lat="43.7641" lon="6.99033">
        <ele>585.518</ele>
        <time>2014-03-21T16:04:46Z</time>
      </trkpt>
      <trkpt lat="43.76395" lon="6.99039">
        <ele>580.891</ele>
        <time>2014-03-21T16:04:50Z</time>
      </trkpt>
      <trkpt lat="43.76382" lon="6.99052">
        <ele>574.353</ele>
        <time>2014-03-21T16:04:55Z</time>
      </trkpt>
      <trkpt lat="43.76382" lon="6.99051">
        <ele>573.526</ele>
        <time>2014-03-21T16:04:56Z</time>
      </trkpt>
      <trkpt lat="43.7638" lon="6.99021">
        <ele>568.636</ele>
        <time>2014-03-21T16:05:00Z</time>
      </trkpt>
      <trkpt lat="43.7638" lon="6.9901">
        <ele>567.48</ele>
        <time>2014-03-21T16:05:03Z</time>
      </trkpt>
      <trkpt lat="43.76383" lon="6.98997">
        <ele>565.438</ele>
        <time>2014-03-21T16:05:06Z</time>
      </trkpt>
      <trkpt lat="43.76386" lon="6.98988">
        <ele>564.423</ele>
        <time>2014-03-21T16:05:08Z</time>
      </trkpt>
      <trkpt lat="43.7638" lon="6.98986">
        <ele>563.169</ele>
        <time>2014-03-21T16:05:13Z</time>
      </trkpt>
      <trkpt lat="43.76378" lon="6.98982">
        <ele>561.013</ele>
        <time>2014-03-21T16:05:17Z</time>
      </trkpt>
      <trkpt lat="43.76379" lon="6.98985">
        <ele>561.556</ele>
        <time>2014-03-21T16:05:21Z</time>
      </trkpt>
      <trkpt lat="43.76382" lon="6.98991">
        <ele>569.324</ele>
        <time>2014-03-21T16:08:44Z</time>
      </trkpt>
      <trkpt lat="43.7638" lon="6.98991">
        <ele>565.47</ele>
        <time>2014-03-21T16:08:50Z</time>
      </trkpt>
      <trkpt lat="43.76372" lon="6.98994">
        <ele>563.294</ele>
        <time>2014-03-21T16:08:54Z</time>
      </trkpt>
      <trkpt lat="43.76369" lon="6.98988">
        <ele>561.154</ele>
        <time>2014-03-21T16:08:59Z</time>
      </trkpt>
      <trkpt lat="43.76365" lon="6.98989">
        <ele>559.59</ele>
        <time>2014-03-21T16:09:02Z</time>
      </trkpt>
      <trkpt lat="43.76363" lon="6.98989">
        <ele>558.503</ele>
        <time>2014-03-21T16:09:05Z</time>
      </trkpt>
      <trkpt lat="43.76361" lon="6.98984">
        <ele>556.03</ele>
        <time>2014-03-21T16:09:10Z</time>
      </trkpt>
      <trkpt lat="43.76354" lon="6.9899">
        <ele>553.251</ele>
        <time>2014-03-21T16:09:13Z</time>
      </trkpt>
      <trkpt lat="43.7634" lon="6.99005">
        <ele>547.459</ele>
        <time>2014-03-21T16:09:18Z</time>
      </trkpt>
      <trkpt lat="43.76339" lon="6.99008">
        <ele>546.143</ele>
        <time>2014-03-21T16:09:19Z</time>
      </trkpt>
      <trkpt lat="43.76335" lon="6.99008">
        <ele>541.81</ele>
        <time>2014-03-21T16:09:23Z</time>
      </trkpt>
      <trkpt lat="43.76331" lon="6.99002">
        <ele>538.447</ele>
        <time>2014-03-21T16:09:27Z</time>
      </trkpt>
      <trkpt lat="43.76329" lon="6.99007">
        <ele>536.603</ele>
        <time>2014-03-21T16:09:31Z</time>
      </trkpt>
      <trkpt lat="43.76331" lon="6.99009">
        <ele>535.257</ele>
        <time>2014-03-21T16:09:41Z</time>
      </trkpt>
      <trkpt lat="43.76326" lon="6.99023">
        <ele>530.83</ele>
        <time>2014-03-21T16:09:46Z</time>
      </trkpt>
      <trkpt lat="43.76322" lon="6.9904">
        <ele>527.86</ele>
        <time>2014-03-21T16:09:50Z</time>
      </trkpt>
      <trkpt lat="43.76308" lon="6.99067">
        <ele>524.558</ele>
        <time>2014-03-21T16:09:55Z</time>
      </trkpt>
      <trkpt lat="43.76304" lon="6.99071">
        <ele>524.403</ele>
        <time>2014-03-21T16:09:56Z</time>
      </trkpt>
      <trkpt lat="43.76281" lon="6.99095">
        <ele>522.14</ele>
        <time>2014-03-21T16:10:02Z</time>
      </trkpt>
      <trkpt lat="43.7627" lon="6.99113">
        <ele>523.673</ele>
        <time>2014-03-21T16:10:08Z</time>
      </trkpt>
      <trkpt lat="43.7626" lon="6.9913">
        <ele>523.037</ele>
        <time>2014-03-21T16:10:14Z</time>
      </trkpt>
      <trkpt lat="43.76249" lon="6.99143">
        <ele>524.235</ele>
        <time>2014-03-21T16:10:20Z</time>
      </trkpt>
      <trkpt lat="43.76239" lon="6.99156">
        <ele>528.937</ele>
        <time>2014-03-21T16:10:27Z</time>
      </trkpt>
      <trkpt lat="43.76227" lon="6.99169">
        <ele>532.763</ele>
        <time>2014-03-21T16:10:34Z</time>
      </trkpt>
      <trkpt lat="43.76209" lon="6.99188">
        <ele>531.72</ele>
        <time>2014-03-21T16:10:43Z</time>
      </trkpt>
      <trkpt lat="43.76191" lon="6.99201">
        <ele>532.861</ele>
        <time>2014-03-21T16:10:49Z</time>
      </trkpt>
      <trkpt lat="43.76179" lon="6.99213">
        <ele>533.792</ele>
        <time>2014-03-21T16:10:54Z</time>
      </trkpt>
      <trkpt lat="43.76169" lon="6.99225">
        <ele>537.711</ele>
        <time>2014-03-21T16:11:00Z</time>
      </trkpt>
      <trkpt lat="43.76161" lon="6.99236">
        <ele>543.045</ele>
        <time>2014-03-21T16:11:07Z</time>
      </trkpt>
      <trkpt lat="43.76152" lon="6.99244">
        <ele>550.308</ele>
        <time>2014-03-21T16:11:15Z</time>
      </trkpt>
      <trkpt lat="43.76143" lon="6.99252">
        <ele>554.635</ele>
        <time>2014-03-21T16:11:23Z</time>
      </trkpt>
      <trkpt lat="43.76135" lon="6.9926">
        <ele>553.752</ele>
        <time>2014-03-21T16:11:29Z</time>
      </trkpt>
      <trkpt lat="43.76131" lon="6.99263">
        <ele>554.195</ele>
        <time>2014-03-21T16:11:33Z</time>
      </trkpt>
      <trkpt lat="43.76125" lon="6.99269">
        <ele>556.057</ele>
        <time>2014-03-21T16:11:39Z</time>
      </trkpt>
      <trkpt lat="43.76122" lon="6.9927">
        <ele>556.309</ele>
        <time>2014-03-21T16:11:41Z</time>
      </trkpt>
      <trkpt lat="43.76114" lon="6.99279">
        <ele>554.629</ele>
        <time>2014-03-21T16:11:50Z</time>
      </trkpt>
      <trkpt lat="43.76108" lon="6.99285">
        <ele>553.213</ele>
        <time>2014-03-21T16:11:56Z</time>
      </trkpt>
      <trkpt lat="43.76104" lon="6.99288">
        <ele>550.835</ele>
        <time>2014-03-21T16:12:00Z</time>
      </trkpt>
      <trkpt lat="43.76095" lon="6.99292">
        <ele>548.276</ele>
        <time>2014-03-21T16:12:07Z</time>
      </trkpt>
      <trkpt lat="43.76086" lon="6.99297">
        <ele>548.168</ele>
        <time>2014-03-21T16:12:15Z</time>
      </trkpt>
      <trkpt lat="43.76078" lon="6.99301">
        <ele>550.195</ele>
        <time>2014-03-21T16:12:22Z</time>
      </trkpt>
      <trkpt lat="43.7607" lon="6.99304">
        <ele>552.855</ele>
        <time>2014-03-21T16:12:28Z</time>
      </trkpt>
      <trkpt lat="43.76066" lon="6.99307">
        <ele>553.713</ele>
        <time>2014-03-21T16:12:32Z</time>
      </trkpt>
      <trkpt lat="43.76059" lon="6.99309">
        <ele>555.581</ele>
        <time>2014-03-21T16:12:37Z</time>
      </trkpt>
      <trkpt lat="43.76056" lon="6.9931">
        <ele>556.318</ele>
        <time>2014-03-21T16:12:44Z</time>
      </trkpt>
      <trkpt lat="43.76053" lon="6.99309">
        <ele>558.459</ele>
        <time>2014-03-21T16:12:50Z</time>
      </trkpt>
      <trkpt lat="43.76051" lon="6.99308">
        <ele>561.323</ele>
        <time>2014-03-21T16:12:55Z</time>
      </trkpt>
      <trkpt lat="43.76045" lon="6.99308">
        <ele>566.203</ele>
        <time>2014-03-21T16:13:02Z</time>
      </trkpt>
      <trkpt lat="43.76043" lon="6.9931">
        <ele>568.133</ele>
        <time>2014-03-21T16:13:05Z</time>
      </trkpt>
      <trkpt lat="43.76039" lon="6.99312">
        <ele>571.101</ele>
        <time>2014-03-21T16:13:11Z</time>
      </trkpt>
      <trkpt lat="43.76033" lon="6.99316">
        <ele>572.336</ele>
        <time>2014-03-21T16:13:19Z</time>
      </trkpt>
      <trkpt lat="43.76027" lon="6.9932">
        <ele>573.759</ele>
        <time>2014-03-21T16:13:27Z</time>
      </trkpt>
      <trkpt lat="43.76021" lon="6.99322">
        <ele>578.911</ele>
        <time>2014-03-21T16:13:35Z</time>
      </trkpt>
      <trkpt lat="43.76017" lon="6.99325">
        <ele>580.951</ele>
        <time>2014-03-21T16:13:41Z</time>
      </trkpt>
      <trkpt lat="43.76012" lon="6.99327">
        <ele>579.456</ele>
        <time>2014-03-21T16:13:47Z</time>
      </trkpt>
      <trkpt lat="43.76004" lon="6.99331">
        <ele>577.659</ele>
        <time>2014-03-21T16:13:52Z</time>
      </trkpt>
      <trkpt lat="43.75994" lon="6.99331">
        <ele>574.488</ele>
        <time>2014-03-21T16:13:58Z</time>
      </trkpt>
      <trkpt lat="43.75983" lon="6.99335">
        <ele>573.847</ele>
        <time>2014-03-21T16:14:04Z</time>
      </trkpt>
      <trkpt lat="43.75974" lon="6.99337">
        <ele>574.944</ele>
        <time>2014-03-21T16:14:09Z</time>
      </trkpt>
      <trkpt lat="43.75964" lon="6.99345">
        <ele>574.603</ele>
        <time>2014-03-21T16:14:13Z</time>
      </trkpt>
      <trkpt lat="43.75952" lon="6.99361">
        <ele>573.257</ele>
        <time>2014-03-21T16:14:18Z</time>
      </trkpt>
      <trkpt lat="43.75937" lon="6.9937">
        <ele>573.64</ele>
        <time>2014-03-21T16:14:22Z</time>
      </trkpt>
      <trkpt lat="43.75922" lon="6.99373">
        <ele>573.27</ele>
        <time>2014-03-21T16:14:27Z</time>
      </trkpt>
      <trkpt lat="43.75909" lon="6.9937">
        <ele>574.46</ele>
        <time>2014-03-21T16:14:33Z</time>
      </trkpt>
      <trkpt lat="43.75903" lon="6.99365">
        <ele>575.427</ele>
        <time>2014-03-21T16:14:37Z</time>
      </trkpt>
      <trkpt lat="43.75894" lon="6.99357">
        <ele>576.802</ele>
        <time>2014-03-21T16:14:42Z</time>
      </trkpt>
      <trkpt lat="43.75883" lon="6.99351">
        <ele>577.227</ele>
        <time>2014-03-21T16:14:48Z</time>
      </trkpt>
      <trkpt lat="43.75877" lon="6.99349">
        <ele>577.407</ele>
        <time>2014-03-21T16:14:50Z</time>
      </trkpt>
      <trkpt lat="43.75847" lon="6.99354">
        <ele>574.174</ele>
        <time>2014-03-21T16:14:56Z</time>
      </trkpt>
      <trkpt lat="43.75818" lon="6.99364">
        <ele>572.363</ele>
        <time>2014-03-21T16:15:01Z</time>
      </trkpt>
      <trkpt lat="43.75789" lon="6.9937">
        <ele>571.142</ele>
        <time>2014-03-21T16:15:06Z</time>
      </trkpt>
      <trkpt lat="43.75764" lon="6.99369">
        <ele>570.342</ele>
        <time>2014-03-21T16:15:11Z</time>
      </trkpt>
      <trkpt lat="43.75746" lon="6.99378">
        <ele>570.205</ele>
        <time>2014-03-21T16:15:18Z</time>
      </trkpt>
      <trkpt lat="43.75737" lon="6.99387">
        <ele>572.162</ele>
        <time>2014-03-21T16:15:23Z</time>
      </trkpt>
      <trkpt lat="43.75725" lon="6.99398">
        <ele>575.652</ele>
        <time>2014-03-21T16:15:28Z</time>
      </trkpt>
      <trkpt lat="43.75716" lon="6.99412">
        <ele>577.255</ele>
        <time>2014-03-21T16:15:33Z</time>
      </trkpt>
      <trkpt lat="43.75704" lon="6.99426">
        <ele>578.558</ele>
        <time>2014-03-21T16:15:38Z</time>
      </trkpt>
      <trkpt lat="43.75693" lon="6.99442">
        <ele>576.285</ele>
        <time>2014-03-21T16:15:43Z</time>
      </trkpt>
      <trkpt lat="43.7568" lon="6.99458">
        <ele>575.495</ele>
        <time>2014-03-21T16:15:48Z</time>
      </trkpt>
      <trkpt lat="43.75655" lon="6.99482">
        <ele>570.849</ele>
        <time>2014-03-21T16:15:54Z</time>
      </trkpt>
      <trkpt lat="43.75651" lon="6.99486">
        <ele>569.836</ele>
        <time>2014-03-21T16:15:55Z</time>
      </trkpt>
      <trkpt lat="43.75641" lon="6.99513">
        <ele>564.596</ele>
        <time>2014-03-21T16:15:59Z</time>
      </trkpt>
      <trkpt lat="43.75631" lon="6.99552">
        <ele>559.228</ele>
        <time>2014-03-21T16:16:03Z</time>
      </trkpt>
      <trkpt lat="43.75611" lon="6.9959">
        <ele>556.088</ele>
        <time>2014-03-21T16:16:08Z</time>
      </trkpt>
      <trkpt lat="43.75605" lon="6.99596">
        <ele>557.69</ele>
        <time>2014-03-21T16:16:11Z</time>
      </trkpt>
      <trkpt lat="43.75603" lon="6.99597">
        <ele>556.724</ele>
        <time>2014-03-21T16:16:13Z</time>
      </trkpt>
      <trkpt lat="43.75601" lon="6.99598">
        <ele>557.255</ele>
        <time>2014-03-21T16:16:18Z</time>
      </trkpt>
      <trkpt lat="43.75599" lon="6.99601">
        <ele>558.092</ele>
        <time>2014-03-21T16:16:24Z</time>
      </trkpt>
      <trkpt lat="43.75598" lon="6.996">
        <ele>559.313</ele>
        <time>2014-03-21T16:16:28Z</time>
      </trkpt>
      <trkpt lat="43.75583" lon="6.99608">
        <ele>559.902</ele>
        <time>2014-03-21T16:16:35Z</time>
      </trkpt>
      <trkpt lat="43.75571" lon="6.99615">
        <ele>563.953</ele>
        <time>2014-03-21T16:16:40Z</time>
      </trkpt>
      <trkpt lat="43.75561" lon="6.99626">
        <ele>566.087</ele>
        <time>2014-03-21T16:16:45Z</time>
      </trkpt>
      <trkpt lat="43.75554" lon="6.99631">
        <ele>566.307</ele>
        <time>2014-03-21T16:16:48Z</time>
      </trkpt>
      <trkpt lat="43.75551" lon="6.99644">
        <ele>564.917</ele>
        <time>2014-03-21T16:16:52Z</time>
      </trkpt>
      <trkpt lat="43.75547" lon="6.99668">
        <ele>559.672</ele>
        <time>2014-03-21T16:16:57Z</time>
      </trkpt>
      <trkpt lat="43.75548" lon="6.99687">
        <ele>557.79</ele>
        <time>2014-03-21T16:17:00Z</time>
      </trkpt>
      <trkpt lat="43.75554" lon="6.99712">
        <ele>555.925</ele>
        <time>2014-03-21T16:17:04Z</time>
      </trkpt>
      <trkpt lat="43.75557" lon="6.9976">
        <ele>552.26</ele>
        <time>2014-03-21T16:17:10Z</time>
      </trkpt>
      <trkpt lat="43.75554" lon="6.99802">
        <ele>550.265</ele>
        <time>2014-03-21T16:17:15Z</time>
      </trkpt>
      <trkpt lat="43.75546" lon="6.99831">
        <ele>545.914</ele>
        <time>2014-03-21T16:17:18Z</time>
      </trkpt>
      <trkpt lat="43.75524" lon="6.99863">
        <ele>543.884</ele>
        <time>2014-03-21T16:17:22Z</time>
      </trkpt>
      <trkpt lat="43.75518" lon="6.99867">
        <ele>543.378</ele>
        <time>2014-03-21T16:17:23Z</time>
      </trkpt>
      <trkpt lat="43.75508" lon="6.99873">
        <ele>542.97</ele>
        <time>2014-03-21T16:17:25Z</time>
      </trkpt>
      <trkpt lat="43.75494" lon="6.99884">
        <ele>544.788</ele>
        <time>2014-03-21T16:17:29Z</time>
      </trkpt>
      <trkpt lat="43.75481" lon="6.99899">
        <ele>547.26</ele>
        <time>2014-03-21T16:17:37Z</time>
      </trkpt>
      <trkpt lat="43.75472" lon="6.99905">
        <ele>552.802</ele>
        <time>2014-03-21T16:17:43Z</time>
      </trkpt>
      <trkpt lat="43.75463" lon="6.99911">
        <ele>553.703</ele>
        <time>2014-03-21T16:17:48Z</time>
      </trkpt>
      <trkpt lat="43.75454" lon="6.99915">
        <ele>556.586</ele>
        <time>2014-03-21T16:17:53Z</time>
      </trkpt>
      <trkpt lat="43.75441" lon="6.99928">
        <ele>555.689</ele>
        <time>2014-03-21T16:17:58Z</time>
      </trkpt>
      <trkpt lat="43.75431" lon="6.99945">
        <ele>554.598</ele>
        <time>2014-03-21T16:18:03Z</time>
      </trkpt>
      <trkpt lat="43.75421" lon="6.99971">
        <ele>549.477</ele>
        <time>2014-03-21T16:18:08Z</time>
      </trkpt>
      <trkpt lat="43.75418" lon="6.99978">
        <ele>548.035</ele>
        <time>2014-03-21T16:18:09Z</time>
      </trkpt>
      <trkpt lat="43.75402" lon="6.99994">
        <ele>544.465</ele>
        <time>2014-03-21T16:18:13Z</time>
      </trkpt>
      <trkpt lat="43.75385" lon="6.99995">
        <ele>542.083</ele>
        <time>2014-03-21T16:18:16Z</time>
      </trkpt>
      <trkpt lat="43.75366" lon="6.99991">
        <ele>540.717</ele>
        <time>2014-03-21T16:18:20Z</time>
      </trkpt>
      <trkpt lat="43.75366" lon="6.99998">
        <ele>540.24</ele>
        <time>2014-03-21T16:18:24Z</time>
      </trkpt>
      <trkpt lat="43.75369" lon="7">
        <ele>540.534</ele>
        <time>2014-03-21T16:18:26Z</time>
      </trkpt>
      <trkpt lat="43.75384" lon="7.0001">
        <ele>542.85</ele>
        <time>2014-03-21T16:18:33Z</time>
      </trkpt>
      <trkpt lat="43.75391" lon="7.00022">
        <ele>544.226</ele>
        <time>2014-03-21T16:18:37Z</time>
      </trkpt>
      <trkpt lat="43.75396" lon="7.00043">
        <ele>546.688</ele>
        <time>2014-03-21T16:18:43Z</time>
      </trkpt>
      <trkpt lat="43.75393" lon="7.00066">
        <ele>548.054</ele>
        <time>2014-03-21T16:18:50Z</time>
      </trkpt>
      <trkpt lat="43.7539" lon="7.00081">
        <ele>549.496</ele>
        <time>2014-03-21T16:18:55Z</time>
      </trkpt>
      <trkpt lat="43.75389" lon="7.0011">
        <ele>550.428</ele>
        <time>2014-03-21T16:19:03Z</time>
      </trkpt>
      <trkpt lat="43.75394" lon="7.00147">
        <ele>548.198</ele>
        <time>2014-03-21T16:19:12Z</time>
      </trkpt>
      <trkpt lat="43.754" lon="7.00168">
        <ele>547.83</ele>
        <time>2014-03-21T16:19:18Z</time>
      </trkpt>
      <trkpt lat="43.75414" lon="7.00196">
        <ele>548.145</ele>
        <time>2014-03-21T16:19:27Z</time>
      </trkpt>
      <trkpt lat="43.75427" lon="7.00218">
        <ele>549.461</ele>
        <time>2014-03-21T16:19:35Z</time>
      </trkpt>
      <trkpt lat="43.75436" lon="7.00239">
        <ele>550.93</ele>
        <time>2014-03-21T16:19:42Z</time>
      </trkpt>
      <trkpt lat="43.75439" lon="7.00257">
        <ele>551.885</ele>
        <time>2014-03-21T16:19:48Z</time>
      </trkpt>
      <trkpt lat="43.75436" lon="7.00272">
        <ele>555.506</ele>
        <time>2014-03-21T16:19:53Z</time>
      </trkpt>
      <trkpt lat="43.75432" lon="7.00287">
        <ele>554.188</ele>
        <time>2014-03-21T16:19:58Z</time>
      </trkpt>
      <trkpt lat="43.75421" lon="7.00306">
        <ele>554.94</ele>
        <time>2014-03-21T16:20:05Z</time>
      </trkpt>
      <trkpt lat="43.75404" lon="7.00333">
        <ele>558.812</ele>
        <time>2014-03-21T16:20:15Z</time>
      </trkpt>
      <trkpt lat="43.75394" lon="7.00358">
        <ele>563.064</ele>
        <time>2014-03-21T16:20:23Z</time>
      </trkpt>
      <trkpt lat="43.75383" lon="7.0038">
        <ele>563.743</ele>
        <time>2014-03-21T16:20:30Z</time>
      </trkpt>
      <trkpt lat="43.75372" lon="7.00402">
        <ele>564.354</ele>
        <time>2014-03-21T16:20:37Z</time>
      </trkpt>
      <trkpt lat="43.75358" lon="7.00425">
        <ele>567.903</ele>
        <time>2014-03-21T16:20:45Z</time>
      </trkpt>
      <trkpt lat="43.75346" lon="7.00452">
        <ele>567.808</ele>
        <time>2014-03-21T16:20:54Z</time>
      </trkpt>
      <trkpt lat="43.75333" lon="7.00477">
        <ele>569.635</ele>
        <time>2014-03-21T16:21:03Z</time>
      </trkpt>
      <trkpt lat="43.7532" lon="7.005">
        <ele>569.951</ele>
        <time>2014-03-21T16:21:11Z</time>
      </trkpt>
      <trkpt lat="43.75308" lon="7.00519">
        <ele>570.043</ele>
        <time>2014-03-21T16:21:18Z</time>
      </trkpt>
      <trkpt lat="43.75293" lon="7.00542">
        <ele>570.352</ele>
        <time>2014-03-21T16:21:27Z</time>
      </trkpt>
      <trkpt lat="43.75277" lon="7.00557">
        <ele>571.182</ele>
        <time>2014-03-21T16:21:35Z</time>
      </trkpt>
      <trkpt lat="43.75257" lon="7.00572">
        <ele>572.896</ele>
        <time>2014-03-21T16:21:44Z</time>
      </trkpt>
      <trkpt lat="43.7524" lon="7.00582">
        <ele>573.96</ele>
        <time>2014-03-21T16:21:52Z</time>
      </trkpt>
      <trkpt lat="43.75227" lon="7.0059">
        <ele>575.956</ele>
        <time>2014-03-21T16:21:58Z</time>
      </trkpt>
      <trkpt lat="43.75211" lon="7.00607">
        <ele>574.653</ele>
        <time>2014-03-21T16:22:06Z</time>
      </trkpt>
      <trkpt lat="43.75195" lon="7.00619">
        <ele>573.47</ele>
        <time>2014-03-21T16:22:13Z</time>
      </trkpt>
      <trkpt lat="43.75173" lon="7.00629">
        <ele>576.222</ele>
        <time>2014-03-21T16:22:22Z</time>
      </trkpt>
      <trkpt lat="43.75154" lon="7.00637">
        <ele>578.528</ele>
        <time>2014-03-21T16:22:30Z</time>
      </trkpt>
      <trkpt lat="43.75135" lon="7.00647">
        <ele>579.465</ele>
        <time>2014-03-21T16:22:38Z</time>
      </trkpt>
      <trkpt lat="43.75111" lon="7.00659">
        <ele>580.638</ele>
        <time>2014-03-21T16:22:48Z</time>
      </trkpt>
      <trkpt lat="43.75087" lon="7.00669">
        <ele>581.542</ele>
        <time>2014-03-21T16:22:58Z</time>
      </trkpt>
      <trkpt lat="43.75069" lon="7.00673">
        <ele>585.813</ele>
        <time>2014-03-21T16:23:06Z</time>
      </trkpt>
      <trkpt lat="43.75058" lon="7.0068">
        <ele>584.236</ele>
        <time>2014-03-21T16:23:11Z</time>
      </trkpt>
      <trkpt lat="43.75042" lon="7.00682">
        <ele>584.642</ele>
        <time>2014-03-21T16:23:17Z</time>
      </trkpt>
      <trkpt lat="43.75019" lon="7.0068">
        <ele>590.965</ele>
        <time>2014-03-21T16:23:26Z</time>
      </trkpt>
      <trkpt lat="43.74996" lon="7.00687">
        <ele>591.048</ele>
        <time>2014-03-21T16:23:35Z</time>
      </trkpt>
      <trkpt lat="43.74974" lon="7.00692">
        <ele>588.322</ele>
        <time>2014-03-21T16:23:44Z</time>
      </trkpt>
      <trkpt lat="43.74952" lon="7.00693">
        <ele>584.755</ele>
        <time>2014-03-21T16:23:53Z</time>
      </trkpt>
      <trkpt lat="43.74934" lon="7.00688">
        <ele>588.837</ele>
        <time>2014-03-21T16:24:00Z</time>
      </trkpt>
      <trkpt lat="43.74917" lon="7.00699">
        <ele>589.981</ele>
        <time>2014-03-21T16:24:07Z</time>
      </trkpt>
      <trkpt lat="43.74902" lon="7.00707">
        <ele>590.472</ele>
        <time>2014-03-21T16:24:14Z</time>
      </trkpt>
      <trkpt lat="43.74882" lon="7.00707">
        <ele>593.472</ele>
        <time>2014-03-21T16:24:22Z</time>
      </trkpt>
      <trkpt lat="43.74868" lon="7.00709">
        <ele>596.104</ele>
        <time>2014-03-21T16:24:28Z</time>
      </trkpt>
      <trkpt lat="43.74858" lon="7.0073">
        <ele>594.34</ele>
        <time>2014-03-21T16:24:35Z</time>
      </trkpt>
      <trkpt lat="43.74848" lon="7.00755">
        <ele>592.576</ele>
        <time>2014-03-21T16:24:43Z</time>
      </trkpt>
      <trkpt lat="43.74852" lon="7.00775">
        <ele>592.222</ele>
        <time>2014-03-21T16:24:48Z</time>
      </trkpt>
      <trkpt lat="43.74855" lon="7.00798">
        <ele>592.884</ele>
        <time>2014-03-21T16:24:54Z</time>
      </trkpt>
      <trkpt lat="43.74845" lon="7.0081">
        <ele>595.237</ele>
        <time>2014-03-21T16:24:59Z</time>
      </trkpt>
      <trkpt lat="43.74828" lon="7.00813">
        <ele>598.472</ele>
        <time>2014-03-21T16:25:05Z</time>
      </trkpt>
      <trkpt lat="43.748" lon="7.00819">
        <ele>600.399</ele>
        <time>2014-03-21T16:25:14Z</time>
      </trkpt>
      <trkpt lat="43.74779" lon="7.00811">
        <ele>601.921</ele>
        <time>2014-03-21T16:25:21Z</time>
      </trkpt>
      <trkpt lat="43.7476" lon="7.00814">
        <ele>597.109</ele>
        <time>2014-03-21T16:25:27Z</time>
      </trkpt>
      <trkpt lat="43.74745" lon="7.00821">
        <ele>598.141</ele>
        <time>2014-03-21T16:25:33Z</time>
      </trkpt>
      <trkpt lat="43.74727" lon="7.00837">
        <ele>602.776</ele>
        <time>2014-03-21T16:25:42Z</time>
      </trkpt>
      <trkpt lat="43.74714" lon="7.00847">
        <ele>604.299</ele>
        <time>2014-03-21T16:25:48Z</time>
      </trkpt>
      <trkpt lat="43.74698" lon="7.00861">
        <ele>606.009</ele>
        <time>2014-03-21T16:25:55Z</time>
      </trkpt>
      <trkpt lat="43.74679" lon="7.00877">
        <ele>607.754</ele>
        <time>2014-03-21T16:26:03Z</time>
      </trkpt>
      <trkpt lat="43.74665" lon="7.00893">
        <ele>609.636</ele>
        <time>2014-03-21T16:26:10Z</time>
      </trkpt>
      <trkpt lat="43.74649" lon="7.00911">
        <ele>611.383</ele>
        <time>2014-03-21T16:26:18Z</time>
      </trkpt>
      <trkpt lat="43.7463" lon="7.00925">
        <ele>611.407</ele>
        <time>2014-03-21T16:26:26Z</time>
      </trkpt>
      <trkpt lat="43.74607" lon="7.00938">
        <ele>611.023</ele>
        <time>2014-03-21T16:26:35Z</time>
      </trkpt>
      <trkpt lat="43.74587" lon="7.00944">
        <ele>614.073</ele>
        <time>2014-03-21T16:26:43Z</time>
      </trkpt>
      <trkpt lat="43.74574" lon="7.00944">
        <ele>617.855</ele>
        <time>2014-03-21T16:26:48Z</time>
      </trkpt>
      <trkpt lat="43.74557" lon="7.00944">
        <ele>615.314</ele>
        <time>2014-03-21T16:26:55Z</time>
      </trkpt>
      <trkpt lat="43.74544" lon="7.00941">
        <ele>612.417</ele>
        <time>2014-03-21T16:27:00Z</time>
      </trkpt>
      <trkpt lat="43.74528" lon="7.0093">
        <ele>609.177</ele>
        <time>2014-03-21T16:27:07Z</time>
      </trkpt>
      <trkpt lat="43.74511" lon="7.00921">
        <ele>608.432</ele>
        <time>2014-03-21T16:27:14Z</time>
      </trkpt>
      <trkpt lat="43.74492" lon="7.00917">
        <ele>608.316</ele>
        <time>2014-03-21T16:27:21Z</time>
      </trkpt>
      <trkpt lat="43.74471" lon="7.00917">
        <ele>607.894</ele>
        <time>2014-03-21T16:27:29Z</time>
      </trkpt>
      <trkpt lat="43.74449" lon="7.00916">
        <ele>610.138</ele>
        <time>2014-03-21T16:27:38Z</time>
      </trkpt>
      <trkpt lat="43.74429" lon="7.00914">
        <ele>611.343</ele>
        <time>2014-03-21T16:27:46Z</time>
      </trkpt>
      <trkpt lat="43.74409" lon="7.0091">
        <ele>612.494</ele>
        <time>2014-03-21T16:27:54Z</time>
      </trkpt>
      <trkpt lat="43.74395" lon="7.00903">
        <ele>613.228</ele>
        <time>2014-03-21T16:28:00Z</time>
      </trkpt>
      <trkpt lat="43.74391" lon="7.00903">
        <ele>613.898</ele>
        <time>2014-03-21T16:28:02Z</time>
      </trkpt>
      <trkpt lat="43.74382" lon="7.00909">
        <ele>621.859</ele>
        <time>2014-03-21T16:28:09Z</time>
      </trkpt>
      <trkpt lat="43.74368" lon="7.00908">
        <ele>622.398</ele>
        <time>2014-03-21T16:28:16Z</time>
      </trkpt>
      <trkpt lat="43.74362" lon="7.00898">
        <ele>624.581</ele>
        <time>2014-03-21T16:28:21Z</time>
      </trkpt>
      <trkpt lat="43.74355" lon="7.0089">
        <ele>625.524</ele>
        <time>2014-03-21T16:28:26Z</time>
      </trkpt>
      <trkpt lat="43.74342" lon="7.00884">
        <ele>624.716</ele>
        <time>2014-03-21T16:28:33Z</time>
      </trkpt>
      <trkpt lat="43.74342" lon="7.00883">
        <ele>625.146</ele>
        <time>2014-03-21T16:28:39Z</time>
      </trkpt>
    </trkseg>
  </trk>
</gpx>